Date StartTime U_cm/s V_cm/s W_cm/s Ustd_cm/s Vstd_cm/s Wstd_cm/s Uvar_(cm/s)^2 Vvar_(cm/s)^2 Wvar_(cm/s)^2 KE_(m/s)^2 TurbulentKE_(m/s)^2 HorizWindSpeed_cm/s FrictionSpeec_cm/s DragCoef SpeedOfSound_m/s SonicTemperature_C Pressure_mb 
05/05/2014  00:00:00       17.108       13.291        6.962       29.676       34.770       20.779      880.659     1208.973      431.778        0.152        0.126       21.664       22.539        1.082      339.616       13.070      858.379
05/05/2014  00:01:00       78.462       46.762       15.221       32.263       37.027       34.235     1040.911     1370.991     1172.005        0.608        0.179       91.340       14.203        0.024      339.588       13.024      858.269
05/05/2014  00:02:00       47.493       42.958       38.594       41.873       41.074       33.065     1753.378     1687.094     1093.292        0.506        0.227       64.039       20.642        0.104      339.567       12.988      858.209
05/05/2014  00:03:00       58.188       45.826        5.825       54.737       33.447       21.504     2996.191     1118.708      462.410        0.505        0.229       74.066       12.468        0.028      339.474       12.829      858.183
05/05/2014  00:04:00       58.316       23.676        3.422       43.262       21.938       20.174     1871.609      481.293      406.987        0.337        0.138       62.938        9.267        0.022      339.474       12.831      858.197
05/05/2014  00:05:00       12.454      -14.003        3.946       29.856       30.064       18.415      891.389      903.864      339.126        0.125        0.107       18.740       18.808        1.007      339.525       12.917      858.293
05/05/2014  00:06:00      -70.828      -75.678        3.445       82.064       68.369       36.483     6734.454     4674.306     1331.035        1.175        0.637      103.652       33.515        0.105      339.577       13.005      858.431
05/05/2014  00:07:00      -79.547     -117.534        4.338       52.469       61.353       38.902     2752.990     3764.215     1513.376        1.409        0.402      141.922       29.711        0.044      339.528       12.921      858.519
05/05/2014  00:08:00       -7.105     -130.399        3.462       28.621       61.503       27.927      819.190     3782.571      779.937        1.122        0.269      130.593       17.106        0.017      339.584       13.016      858.468
05/05/2014  00:09:00      -17.458       39.634       71.463       33.048       49.427       32.723     1092.174     2443.044     1070.771        0.579        0.230       43.308       25.927        0.358      339.474       12.832      858.266
05/05/2014  00:10:00       19.536       34.082       38.582       27.787       36.281       30.774      772.090     1316.300      947.024        0.303        0.152       39.284       28.204        0.515      339.429       12.757      858.138
05/05/2014  00:11:00        6.491      -31.298       11.949       29.492       55.345       29.109      869.792     3063.041      847.340        0.297        0.239       31.964       35.187        1.212      339.504       12.883      858.174
05/05/2014  00:12:00       22.128      -49.324        7.402       49.786       33.927       30.094     2478.693     1151.016      905.647        0.376        0.227       54.060       18.731        0.120      339.602       13.048      858.315
05/05/2014  00:13:00     -119.491      -95.676       -9.192       77.260       49.583       35.800     5969.077     2458.477     1281.656        1.661        0.485      153.075       23.004        0.023      339.525       12.917      858.382
05/05/2014  00:14:00     -127.545     -137.961       -7.989       43.558       45.856       25.248     1897.301     2102.738      637.443        2.000        0.232      187.885       22.064        0.014      339.479       12.836      858.405
05/05/2014  00:15:00      -74.359      -62.502        3.474       36.851       28.578       22.112     1357.970      816.720      488.925        0.606        0.133       97.138       16.247        0.028      339.483       12.846      858.393
05/05/2014  00:16:00      -18.084      -35.534       -2.184       23.451       42.501       15.253      549.964     1806.293      232.654        0.209        0.129       39.871       17.451        0.192      339.471       12.827      858.362
05/05/2014  00:17:00      -44.811      -57.695        0.772       45.992       30.238       18.997     2115.279      914.316      360.874        0.436        0.170       73.053       19.085        0.068      339.515       12.901      858.382
05/05/2014  00:18:00     -135.546      -82.333        0.982       75.138       60.296       32.614     5645.707     3635.656     1063.674        1.775        0.517      158.592       31.560        0.040      339.430       12.756      858.458
05/05/2014  00:19:00      -67.519      -75.338       14.276       87.352       48.021       38.152     7630.395     2306.064     1455.537        1.091        0.570      101.166       45.261        0.200      339.342       12.609      858.530
05/05/2014  00:20:00     -111.576      -50.768        1.049       65.172       49.440       29.952     4247.419     2444.291      897.104        1.131        0.379      122.583       29.422        0.058      339.316       12.564      858.508
05/05/2014  00:21:00      -25.670      -13.028       -2.056       57.069       54.547       19.253     3256.917     2975.402      370.693        0.372        0.330       28.786       23.890        0.689      339.274       12.496      858.376
05/05/2014  00:22:00       90.426       66.994        9.965       50.579       28.248       44.801     2558.247      797.941     2007.170        0.906        0.268      112.538       35.971        0.102      339.277       12.499      858.188
05/05/2014  00:23:00        3.883      -24.663       14.003       24.810       48.041       33.928      615.551     2307.909     1151.084        0.245        0.204       24.967       34.063        1.861      339.327       12.584      858.257
05/05/2014  00:24:00      -13.804      -49.063       -5.156       37.564       31.168       23.350     1411.062      971.467      545.234        0.278        0.146       50.968       16.070        0.099      339.495       12.867      858.399
05/05/2014  00:25:00      -80.392      -70.200        7.569       55.775       39.298       26.390     3110.834     1544.302      696.447        0.840        0.268      106.728       22.507        0.044      339.392       12.694      858.462
05/05/2014  00:26:00      -54.500      -31.114        5.297       59.066       35.594       25.702     3488.744     1266.923      660.567        0.469        0.271       62.756       22.872        0.133      339.331       12.591      858.464
05/05/2014  00:27:00     -106.179      -50.821       -2.115       33.518       25.712       17.956     1123.449      661.116      322.423        0.798        0.105      117.715       10.535        0.008      339.292       12.525      858.392
05/05/2014  00:28:00      -66.988      -51.266       -1.809       28.593       16.640       18.697      817.565      276.886      349.575        0.428        0.072       84.354       12.815        0.023      339.301       12.540      858.355
05/05/2014  00:29:00      -38.601      -58.884       -5.369       40.387       23.602       20.227     1631.081      557.042      409.144        0.379        0.130       70.408       16.624        0.056      339.355       12.630      858.431
05/05/2014  00:30:00      -51.048      -46.045        3.934       28.028       23.520       22.970      785.592      553.204      527.626        0.330        0.093       68.747       14.381        0.044      339.271       12.491      858.431
05/05/2014  00:31:00      -87.282      -25.181       -3.921       27.113       24.518       14.343      735.117      601.123      205.720        0.490        0.077       90.842        9.455        0.011      339.328       12.585      858.406
05/05/2014  00:32:00     -134.371      -63.058       -2.889       45.808       44.762       24.158     2098.370     2003.645      583.595        1.336        0.234      148.432       22.027        0.022      339.274       12.495      858.421
05/05/2014  00:33:00     -108.247      -48.956       -3.684       52.963       23.041       20.680     2805.049      530.872      427.652        0.894        0.188      118.803       23.913        0.041      339.198       12.366      858.428
05/05/2014  00:34:00      -26.499       -1.673        0.899       36.508       17.275        9.898     1332.828      298.410       97.980        0.122        0.086       26.552       12.319        0.215      339.191       12.357      858.371
05/05/2014  00:35:00       11.884       27.444       21.736       12.106       19.969       16.688      146.562      398.766      278.495        0.110        0.041       29.907        9.522        0.101      339.104       12.208      858.292
05/05/2014  00:36:00      -41.212       10.331      -10.861       52.941       49.161        9.762     2802.802     2416.789       95.288        0.362        0.266       42.488       18.634        0.192      339.198       12.368      858.304
05/05/2014  00:37:00      -45.424      -47.910       -3.112       52.704       35.200       18.005     2777.676     1239.024      324.194        0.435        0.217       66.021       15.008        0.052      339.222       12.406      858.413
05/05/2014  00:38:00       15.698      -36.920        8.208       18.689       12.991       14.942      349.280      168.757      223.261        0.121        0.037       40.118       12.684        0.100      339.264       12.480      858.428
05/05/2014  00:39:00      -22.452       -5.284        4.398       19.634       17.433       18.036      385.496      303.913      325.284        0.078        0.051       23.066       14.049        0.371      339.218       12.400      858.370
05/05/2014  00:40:00       -8.522      -38.909       13.349       31.388       37.015       23.916      985.198     1370.123      571.988        0.235        0.146       39.831       10.960        0.076      339.179       12.335      858.345
05/05/2014  00:41:00       32.559      -74.972       -8.111       27.834       27.048       23.504      774.740      731.613      552.450        0.440        0.103       81.737       11.116        0.018      339.233       12.426      858.331
05/05/2014  00:42:00      -35.061      -35.642       -1.645       47.883       42.358       22.828     2292.759     1794.233      521.126        0.355        0.230       49.996       21.120        0.178      339.238       12.434      858.368
05/05/2014  00:43:00      -77.697      -83.472        4.698       44.141       40.859       29.166     1948.386     1669.456      850.657        0.875        0.223      114.037       20.881        0.034      339.147       12.281      858.416
05/05/2014  00:44:00      -32.918      -93.555       -6.905       43.932       40.853       14.850     1930.030     1668.986      220.537        0.685        0.191       99.178       10.248        0.011      339.128       12.250      858.408
05/05/2014  00:45:00      -29.162      -77.392        0.069       28.372       32.328       17.209      804.954     1045.072      296.136        0.449        0.107       82.704       13.940        0.028      339.168       12.317      858.360
05/05/2014  00:46:00        7.922      -20.137       21.426       25.807       36.602       19.724      665.995     1339.718      389.038        0.166        0.120       21.639       13.773        0.405      339.055       12.127      858.352
05/05/2014  00:47:00       30.241       48.045       66.959       44.408       32.072       32.395     1972.075     1028.612     1049.429        0.588        0.203       56.770       32.383        0.325      338.967       11.979      858.266
05/05/2014  00:48:00       29.799       24.886       -1.881       42.778       27.174       22.332     1829.952      738.429      498.735        0.229        0.153       38.824       19.425        0.250      339.029       12.082      858.198
05/05/2014  00:49:00       19.067       85.250      -15.747       18.786       14.771        8.971      352.921      218.181       80.477        0.427        0.033       87.357        4.013        0.002      339.074       12.157      858.170
05/05/2014  00:50:00      -24.221       26.951      -12.695       34.167       43.950        9.329     1167.365     1931.635       87.037        0.233        0.159       36.236       11.736        0.105      339.112       12.223      858.203
05/05/2014  00:51:00      -78.201      -65.777        2.422       74.701       39.375       29.882     5580.206     1550.370      892.930        0.923        0.401      102.186       32.151        0.099      339.046       12.111      858.321
05/05/2014  00:52:00      -90.952      -74.949        5.901       96.284       51.140       36.391     9270.573     2615.274     1324.270        1.356        0.661      117.854       44.940        0.145      339.055       12.126      858.373
05/05/2014  00:53:00      -77.700     -100.813        8.907       69.203       70.903       40.536     4788.989     5027.236     1643.192        1.387        0.573      127.281       50.902        0.160      339.100       12.202      858.371
05/05/2014  00:54:00      -52.171     -132.321      -11.528       51.916       43.494       16.731     2695.285     1891.691      279.910        1.261        0.243      142.235       13.357        0.009      339.141       12.272      858.355
05/05/2014  00:55:00      -29.555      -42.578       17.411       43.403       66.395       22.404     1883.839     4408.241      501.948        0.489        0.340       51.831       21.774        0.176      339.131       12.254      858.321
05/05/2014  00:56:00        5.150       24.614       62.922       27.064       36.384       29.951      732.455     1323.806      897.090        0.377        0.148       25.147       21.685        0.744      338.902       11.870      858.246
05/05/2014  00:57:00      -46.538      -45.633        1.860       47.565       40.104       30.079     2262.435     1608.341      904.765        0.451        0.239       65.178       32.996        0.256      339.137       12.265      858.266
05/05/2014  00:58:00      -14.170      -40.776        9.145       50.800       31.833       24.319     2580.624     1013.331      591.419        0.307        0.209       43.168       22.789        0.279      339.151       12.289      858.378
05/05/2014  00:59:00      -92.264      -32.195        2.944       47.884       36.438       21.015     2292.845     1327.754      441.623        0.681        0.203       97.720       19.353        0.039      339.017       12.063      858.377
05/05/2014  01:00:00       13.059       37.476        4.275       37.562       23.114       16.981     1410.905      534.254      288.364        0.191        0.112       39.686       14.540        0.134      338.967       11.978      858.197
05/05/2014  01:01:00       32.638      -21.457       -7.617       45.553       51.384       21.757     2075.059     2640.314      473.366        0.339        0.259       39.059       14.774        0.143      338.982       12.005      858.099
05/05/2014  01:02:00      -19.604      -63.301        0.711       48.424       44.070       34.176     2344.875     1942.180     1167.976        0.492        0.273       66.267       27.593        0.173      339.061       12.135      858.255
05/05/2014  01:03:00     -102.692     -115.550       -6.417       69.812       51.798       34.313     4873.717     2683.005     1177.397        1.633        0.437      154.587       37.662        0.059      339.049       12.116      858.396
05/05/2014  01:04:00      -22.738      -75.620        5.244       61.006       36.927       28.183     3721.710     1363.630      794.284        0.607        0.294       78.964       17.232        0.048      339.018       12.065      858.441
05/05/2014  01:05:00        6.859        8.770        7.075       21.989       59.828       25.427      483.504     3579.381      646.555        0.244        0.235       11.134       13.938        1.567      338.953       11.953      858.358
05/05/2014  01:06:00       70.722       73.338       54.107       59.428       40.790       38.261     3531.707     1663.796     1463.888        0.998        0.333      101.883       27.846        0.075      338.932       11.919      858.171
05/05/2014  01:07:00       30.673       40.920       47.441       45.968       42.846       38.100     2113.099     1835.780     1451.586        0.513        0.270       51.140       30.905        0.365      338.923       11.904      858.077
05/05/2014  01:08:00      -49.113      -54.756        4.344       61.637       39.802       33.768     3799.110     1584.188     1140.278        0.598        0.326       73.555       32.005        0.189      339.092       12.188      858.224
05/05/2014  01:09:00     -144.521     -114.047       -5.446       80.098       52.565       32.851     6415.695     2763.103     1079.220        2.209        0.513      184.101       29.903        0.026      339.017       12.061      858.339
05/05/2014  01:10:00     -137.464      -86.772       -0.029       58.951       36.208       30.603     3475.269     1311.048      936.536        1.607        0.286      162.560       28.997        0.032      338.945       11.941      858.379
05/05/2014  01:11:00     -102.984     -108.076       10.272       55.201       67.598       28.213     3047.173     4569.469      795.976        1.540        0.421      149.285       28.790        0.037      338.958       11.962      858.398
05/05/2014  01:12:00      -65.910      -31.044        7.461       63.302       40.576       20.893     4007.203     1646.416      436.528        0.573        0.305       72.855       30.703        0.178      338.927       11.912      858.350
05/05/2014  01:13:00       -6.514        3.439       18.744       33.416       10.929       22.138     1116.597      119.454      490.077        0.107        0.086        7.366       23.597       10.262      338.929       11.915      858.221
05/05/2014  01:14:00      -44.180      -19.476        1.809       14.362       12.751       15.464      206.280      162.579      239.127        0.147        0.030       48.283       10.796        0.050      338.909       11.881      858.197
05/05/2014  01:15:00      -49.316      -11.558        2.359       24.885       22.775       11.373      619.278      518.718      129.351        0.192        0.063       50.652       13.774        0.074      338.955       11.957      858.221
05/05/2014  01:16:00       46.084       41.064       19.242       20.120       22.010       18.494      404.834      484.426      342.014        0.271        0.062       61.725        8.935        0.021      338.909       11.881      858.194
05/05/2014  01:17:00       22.800       32.998      -10.503       23.926       28.309       15.891      572.470      801.377      252.531        0.167        0.081       40.109       15.557        0.150      338.914       11.891      858.216
05/05/2014  01:18:00        5.505       20.420       -1.342       19.492        7.752        6.879      379.938       60.098       47.316        0.047        0.024       21.149        6.746        0.102      338.964       11.974      858.217
05/05/2014  01:19:00       -0.914       21.645        7.619       14.979       13.475       13.683      224.363      181.580      187.213        0.056        0.030       21.664        9.625        0.197      338.932       11.921      858.169
05/05/2014  01:20:00        7.649       14.281       11.479       16.082       13.670       15.279      258.615      186.878      233.456        0.054        0.034       16.201       10.676        0.434      338.805       11.705      858.137
05/05/2014  01:21:00       37.903       26.184        1.186       18.008       13.262       14.748      324.279      175.876      217.502        0.142        0.036       46.067       13.693        0.088      338.938       11.931      858.126
05/05/2014  01:22:00        4.738       28.893       17.063       10.969       11.138       16.085      120.314      124.056      258.723        0.083        0.025       29.279        4.680        0.026      338.835       11.758      858.149
05/05/2014  01:23:00       22.712       24.547       26.805       25.921       20.168       18.380      671.902      406.747      337.837        0.163        0.071       33.442       18.032        0.291      338.798       11.693      858.140
05/05/2014  01:24:00       12.545       18.637       37.288       28.886       19.809       19.555      834.384      392.407      382.414        0.175        0.080       22.466       20.113        0.801      338.909       11.880      858.126
05/05/2014  01:25:00       33.103      -77.709        7.305       31.767       67.939       27.288     1009.120     4615.672      744.613        0.678        0.318       84.466       37.539        0.198      339.013       12.055      858.158
05/05/2014  01:26:00      -41.381      -63.275        0.702       46.017       38.159       24.911     2117.578     1456.104      620.568        0.495        0.210       75.605       20.776        0.076      339.035       12.093      858.203
05/05/2014  01:27:00      -97.654     -122.886       -4.074       55.084       37.903       29.051     3034.288     1436.624      843.949        1.498        0.266      156.963       31.483        0.040      338.920       11.901      858.241
05/05/2014  01:28:00      -90.207      -59.592        2.609       46.913       40.936       19.932     2200.857     1675.727      397.270        0.798        0.214      108.113       13.570        0.016      338.826       11.741      858.209
05/05/2014  01:29:00       29.317       71.819        8.197       20.115       42.310       25.038      404.611     1790.120      626.902        0.445        0.141       77.573       12.168        0.025      338.858       11.793      858.090
05/05/2014  01:30:00      -17.420       -0.082       -2.448       36.169       34.420       14.029     1308.228     1184.755      196.806        0.150        0.134       17.420       11.949        0.470      338.929       11.914      858.044
05/05/2014  01:31:00      -83.014      -31.452       -4.022       34.965       30.219       18.066     1222.574      913.179      326.385        0.518        0.123       88.772       19.834        0.050      338.911       11.884      858.084
05/05/2014  01:32:00      -36.754      -37.596        7.026       36.368       28.065       19.591     1322.655      787.633      383.826        0.265        0.125       52.577       12.367        0.055      338.881       11.831      858.121
05/05/2014  01:33:00      -91.410      -33.754       -7.265       23.681       22.154       14.327      560.810      490.786      205.259        0.540        0.063       97.443       10.178        0.011      338.946       11.944      858.171
05/05/2014  01:34:00      -65.245      -43.936       -5.365       32.720       17.127       12.653     1070.612      293.346      160.087        0.387        0.076       78.660        9.273        0.014      338.955       11.958      858.185
05/05/2014  01:35:00      -33.535      -36.279        6.728       21.281       22.251       17.360      452.861      495.123      301.368        0.187        0.062       49.404       13.567        0.075      338.884       11.839      858.167
05/05/2014  01:36:00      -45.964        5.087       -3.853       34.042       44.734       16.687     1158.840     2001.147      278.452        0.280        0.172       46.245       23.115        0.250      338.837       11.761      858.091
05/05/2014  01:37:00     -100.113       51.447      -14.321       26.844       18.653       19.283      720.616      347.941      371.851        0.716        0.072      112.558       12.483        0.012      338.965       11.975      858.064
05/05/2014  01:38:00     -162.602       40.397      -13.402       62.839       39.340       26.559     3948.752     1547.670      705.388        1.723        0.310      167.545       28.964        0.030      338.812       11.718      858.102
05/05/2014  01:39:00     -111.747        9.443       -8.324       53.447       37.957       29.480     2856.571     1440.731      869.043        0.891        0.258      112.145       27.028        0.058      338.384       10.998      858.147
05/05/2014  01:40:00      -62.192       14.751       -0.759       29.668       34.396       18.879      880.208     1183.079      356.435        0.325        0.121       63.918       14.910        0.054      338.383       10.998      858.142
05/05/2014  01:41:00      -19.443       -7.515        2.343       14.018       12.276       13.152      196.493      150.697      172.974        0.048        0.026       20.845        7.033        0.114      338.415       11.052      858.096
05/05/2014  01:42:00      -13.168      -31.540       -1.255       17.441       19.094       14.862      304.173      364.588      220.866        0.103        0.044       34.178        8.346        0.060      338.419       11.058      858.050
05/05/2014  01:43:00      -68.138      -26.333      -11.198       11.767       10.802        7.701      138.466      116.683       59.298        0.289        0.016       73.050        4.812        0.004      338.255       10.782      858.045
05/05/2014  01:44:00     -108.238      -39.636      -14.173       36.245       17.155       12.977     1313.722      294.300      168.407        0.763        0.089      115.267        7.209        0.004      338.335       10.917      858.055
05/05/2014  01:45:00     -129.357      -48.093       -9.927       38.551       25.305       19.505     1486.209      640.324      380.432        1.083        0.125      138.008       18.866        0.019      338.246       10.766      858.060
05/05/2014  01:46:00      -64.705      -12.509       -9.134       39.734       43.297       18.596     1578.829     1874.660      345.795        0.411        0.190       65.903       11.198        0.029      338.369       10.975      858.027
05/05/2014  01:47:00      -82.357       40.419      -22.922       29.860       27.115       22.667      891.602      735.249      513.784        0.554        0.107       91.741       15.854        0.030      338.633       11.417      857.956
05/05/2014  01:48:00      -99.652       80.758      -23.690       21.331       25.896       19.038      455.026      670.620      362.429        0.925        0.074      128.266       18.787        0.021      338.902       11.870      857.908
05/05/2014  01:49:00      -95.803      124.666      -28.211       22.154       23.276       17.837      490.786      541.783      318.176        1.343        0.068      157.226       12.965        0.007      338.793       11.686      857.889
05/05/2014  01:50:00      -84.848       90.396      -22.308       38.918       35.980       21.083     1514.616     1294.558      444.514        0.956        0.163      123.978       15.854        0.016      338.647       11.440      857.899
05/05/2014  01:51:00      -42.873       -2.438      -12.490       34.190       35.940       15.336     1168.948     1291.670      235.182        0.235        0.135       42.943       17.995        0.176      338.623       11.401      857.945
05/05/2014  01:52:00       -5.223      -37.590       -4.821       53.317       28.878       18.774     2842.696      833.924      352.456        0.275        0.201       37.952       11.272        0.088      338.436       11.088      857.982
05/05/2014  01:53:00       -8.615      -27.864        4.545       33.119       18.151       17.122     1096.856      329.453      293.159        0.130        0.086       29.166       10.219        0.123      338.387       11.005      857.950
05/05/2014  01:54:00      -70.488      -28.740       -8.072       18.164       19.092       14.382      329.943      364.517      206.842        0.338        0.045       76.122        7.055        0.009      338.406       11.035      857.919
05/05/2014  01:55:00      -82.018      -35.782       -1.526       16.292       16.444        9.394      265.439      270.389       88.256        0.432        0.031       89.484        4.970        0.003      338.473       11.148      857.920
05/05/2014  01:56:00     -108.479      -66.517       -3.136       41.194       29.211       17.487     1696.925      853.304      305.787        0.953        0.143      127.248       14.277        0.013      338.453       11.114      857.940
05/05/2014  01:57:00     -110.575      -75.658       -5.634       46.084       29.852       27.159     2123.752      891.159      737.621        1.087        0.188      133.981       15.735        0.014      338.507       11.204      857.954
05/05/2014  01:58:00     -115.100      -64.107        0.417       38.349       30.220       20.725     1470.625      913.231      429.507        1.009        0.141      131.749       24.665        0.035      338.511       11.213      857.966
05/05/2014  01:59:00     -111.690      -77.181       -3.100       47.583       34.672       22.236     2264.114     1202.148      494.459        1.120        0.198      135.762       17.716        0.017      338.517       11.221      857.982
05/05/2014  02:00:00     -104.800      -95.641       -0.014       56.739       59.872       28.702     3219.343     3584.639      823.791        1.388        0.381      141.881       29.164        0.042      338.657       11.458      857.998
05/05/2014  02:01:00     -184.457      -54.428       -5.504       40.934       42.890       24.951     1675.591     1839.558      622.575        2.058        0.207      192.319       18.379        0.009      338.318       10.887      858.011
05/05/2014  02:02:00     -166.320       -9.683      -15.971       56.504       68.168       30.672     3192.669     4646.889      940.754        1.839        0.439      166.602       34.379        0.043      338.797       11.692      857.982
05/05/2014  02:03:00     -130.503       57.576       -4.646       57.124       39.127       32.521     3263.124     1530.927     1057.612        1.311        0.293      142.639       27.297        0.037      338.636       11.422      857.922
05/05/2014  02:04:00     -124.929       74.872       -2.275       45.562       37.930       25.981     2075.907     1438.714      675.004        1.270        0.209      145.647       23.659        0.026      338.424       11.065      857.915
05/05/2014  02:05:00     -118.765       69.153       -6.236       41.792       34.682       26.518     1746.608     1202.872      703.199        1.129        0.183      137.431       23.880        0.030      338.421       11.061      857.900
05/05/2014  02:06:00      -84.259       74.989       -8.495       32.974       39.315       26.863     1087.259     1545.695      721.622        0.807        0.168      112.796       24.775        0.048      338.622       11.398      857.856
05/05/2014  02:07:00      -80.949       41.708      -11.136       25.112       31.972       20.092      630.631     1022.209      403.698        0.524        0.103       91.062       17.049        0.035      338.817       11.726      857.859
05/05/2014  02:08:00      -58.246      -14.431       -1.344       21.481       24.594       13.167      461.433      604.871      173.374        0.242        0.062       60.007        8.430        0.020      338.622       11.400      857.901
05/05/2014  02:09:00      -81.960      -43.232      -16.524       26.182       15.126       11.222      685.486      228.809      125.926        0.495        0.052       92.663        5.785        0.004      338.224       10.730      857.916
05/05/2014  02:10:00      -89.061      -46.528       -6.043       30.730       30.365       15.218      944.358      922.015      231.595        0.612        0.105      100.483        8.754        0.008      338.075       10.480      857.895
05/05/2014  02:11:00     -145.863      -26.914      -14.225       38.945       31.506       22.355     1516.698      992.636      499.746        1.261        0.150      148.325       22.333        0.023      337.966       10.297      857.876
05/05/2014  02:12:00     -163.623      -12.523      -16.523       65.358       34.107       26.515     4271.680     1163.292      703.022        1.667        0.307      164.102       32.297        0.039      338.025       10.397      857.896
05/05/2014  02:13:00     -113.119      -19.607       -2.468       40.341       44.107       32.820     1627.402     1945.387     1077.145        0.892        0.232      114.805       27.767        0.058      338.089       10.503      857.923
05/05/2014  02:14:00     -112.512       19.064       -8.476       43.736       46.135       25.022     1912.855     2128.457      626.125        0.888        0.233      114.116       16.611        0.021      338.185       10.664      857.917
05/05/2014  02:15:00     -101.881       16.548      -11.797       40.820       30.209       23.050     1666.308      912.556      531.320        0.695        0.156      103.216       19.841        0.037      338.357       10.953      857.884
05/05/2014  02:16:00      -95.967        9.430       -9.361       48.556       36.864       22.364     2357.679     1358.944      500.152        0.680        0.211       96.429       26.185        0.074      338.432       11.079      857.841
05/05/2014  02:17:00      -71.754      -21.852        0.619       32.303       26.656       16.460     1043.460      710.520      270.933        0.383        0.101       75.008       16.169        0.046      338.328       10.904      857.832
05/05/2014  02:18:00      -72.026      -72.121       -1.415       31.182       34.160       20.351      972.314     1166.882      414.174        0.647        0.128      101.927       13.400        0.017      338.068       10.466      857.841
05/05/2014  02:19:00      -42.818      -42.643       15.664       62.270       36.993       27.021     3877.593     1368.490      730.113        0.494        0.299       60.430       32.093        0.282      338.069       10.470      857.827
05/05/2014  02:20:00     -116.324      -57.536        5.458       40.463       28.588       21.753     1637.230      817.254      473.208        0.990        0.146      129.775       22.558        0.030      338.146       10.600      857.827
05/05/2014  02:21:00     -138.716      -29.995       -6.530       29.036       22.755       19.031      843.099      517.781      362.183        1.095        0.086      141.922       15.189        0.011      338.123       10.561      857.830
05/05/2014  02:22:00     -143.396      -12.398      -10.249       35.438       20.095       16.589     1255.848      403.817      275.200        1.138        0.097      143.931       13.723        0.009      337.992       10.341      857.833
05/05/2014  02:23:00     -122.454        1.896       -2.724       56.828       35.718       29.628     3229.427     1275.785      877.822        1.019        0.269      122.469       30.886        0.064      338.203       10.696      857.853
05/05/2014  02:24:00     -130.280       16.189       -4.835       38.962       34.492       26.336     1518.038     1189.729      693.582        1.033        0.170      131.282       25.302        0.037      338.348       10.939      857.859
05/05/2014  02:25:00     -133.320       40.655       -8.548       36.324       27.795       22.857     1319.415      772.582      522.462        1.106        0.131      139.381       16.020        0.013      338.339       10.924      857.803
05/05/2014  02:26:00      -74.507       40.473       -6.350       28.924       22.204       17.347      836.583      493.037      300.934        0.443        0.082       84.790       14.811        0.031      338.311       10.877      857.713
05/05/2014  02:27:00     -148.229       33.906      -11.781       35.429       25.697       21.171     1255.190      660.337      448.203        1.281        0.118      152.057       10.404        0.005      338.547       11.273      857.673
05/05/2014  02:28:00     -114.488       -5.004       -7.441       36.821       35.026       24.977     1355.770     1226.807      623.854        0.820        0.160      114.598       18.669        0.027      338.526       11.237      857.699
05/05/2014  02:29:00     -142.393      -65.976      -15.860       29.785       28.620       19.919      887.121      819.131      396.767        1.349        0.105      156.935       16.643        0.011      338.161       10.623      857.731
05/05/2014  02:30:00      -97.413      -33.947       -8.952       20.562       18.373       10.126      422.808      337.557      102.539        0.579        0.043      103.158        3.931        0.001      338.154       10.612      857.746
05/05/2014  02:31:00      -18.645        0.674        2.265       21.324       29.007       16.187      454.724      841.428      262.026        0.096        0.078       18.657       18.337        0.966      338.214       10.713      857.720
05/05/2014  02:32:00      -38.179       28.960       -1.932       26.565       21.295       17.867      705.685      453.471      319.218        0.189        0.074       47.920       16.578        0.120      338.231       10.741      857.681
05/05/2014  02:33:00      -36.398       43.475      -10.976       15.811       16.557       11.965      249.997      274.149      143.169        0.200        0.033       56.700        9.563        0.028      338.421       11.062      857.635
05/05/2014  02:34:00      -21.598       27.441       -7.430       27.521       27.032       11.288      757.412      730.735      127.412        0.144        0.081       34.921       10.001        0.082      338.427       11.070      857.626
05/05/2014  02:35:00      -99.907      -17.503      -15.403       31.008       36.506       16.312      961.475     1332.721      266.092        0.654        0.128      101.429       16.758        0.027      338.290       10.842      857.659
05/05/2014  02:36:00     -139.602      -82.862      -10.334       62.681       34.134       26.805     3928.879     1165.104      718.493        1.614        0.291      162.342       28.838        0.032      337.956       10.280      857.717
05/05/2014  02:37:00     -127.139      -40.071       -3.274       49.710       33.079       21.718     2471.108     1094.214      471.672        1.091        0.202      133.305       20.223        0.023      337.878       10.150      857.751
05/05/2014  02:38:00     -139.750      -19.992       -4.537       81.946       53.704       35.121     6715.126     2884.108     1233.457        1.539        0.542      141.173       38.905        0.076      337.912       10.205      857.742
05/05/2014  02:39:00     -101.762        2.343       -3.705       49.213       57.346       33.689     2421.886     3288.509     1134.919        0.861        0.342      101.789       30.722        0.091      337.914       10.210      857.649
05/05/2014  02:40:00      -50.001       78.527      -11.049       24.293       33.755       17.557      590.172     1139.407      308.247        0.541        0.102       93.094       15.743        0.029      337.935       10.245      857.537
05/05/2014  02:41:00      -51.844       97.057      -19.278       31.616       33.891       25.415      999.543     1148.596      645.922        0.764        0.140      110.036       17.566        0.025      338.062       10.458      857.525
05/05/2014  02:42:00      -55.977       -8.465       -2.176       33.482       45.337       20.213     1121.072     2055.422      408.580        0.340        0.179       56.614       19.000        0.113      338.126       10.567      857.570
05/05/2014  02:43:00       -4.674      -34.315        6.705       38.310       22.346       21.756     1467.672      499.332      473.327        0.184        0.122       34.632       13.104        0.143      338.077       10.483      857.618
05/05/2014  02:44:00      -89.947      -62.923       -2.487       41.922       26.289       20.224     1757.444      691.126      409.018        0.746        0.143      109.771       21.641        0.039      337.947       10.264      857.640
05/05/2014  02:45:00      -67.838      -42.534       10.198       46.969       33.493       25.847     2206.075     1121.762      668.052        0.525        0.200       80.069       21.406        0.071      337.866       10.128      857.631
05/05/2014  02:46:00      -80.942      -56.854       -3.739       42.894       25.028       19.769     1839.912      626.403      390.810        0.633        0.143       98.914       22.950        0.054      337.873       10.140      857.631
05/05/2014  02:47:00      -70.632      -39.498       -7.036       22.839       17.549       14.175      521.605      307.968      200.938        0.381        0.052       80.926       11.377        0.020      337.936       10.246      857.626
05/05/2014  02:48:00      -72.497      -45.605       -9.217       14.308       14.770        7.826      204.707      218.152       61.250        0.395        0.024       85.649        6.942        0.007      338.007       10.365      857.620
05/05/2014  02:49:00      -23.737      -49.445        3.305       27.462       29.330       19.644      754.136      860.220      385.882        0.251        0.100       54.847       17.451        0.101      338.082       10.491      857.625
05/05/2014  02:50:00      -45.551      -52.956        9.008       50.892       33.051       30.540     2589.968     1092.364      932.689        0.479        0.231       69.851       33.115        0.225      338.205       10.699      857.633
05/05/2014  02:51:00      -86.587      -64.214       -8.108       30.726       40.678       19.474      944.070     1654.685      379.247        0.733        0.149      107.800       17.565        0.027      338.172       10.643      857.606
05/05/2014  02:52:00      -68.624      -34.038      -10.946       30.308       16.424       13.166      918.601      269.746      173.353        0.367        0.068       76.602        8.351        0.012      338.232       10.743      857.559
05/05/2014  02:53:00      -58.646      -11.392       -5.112       29.627       25.678       16.403      877.730      659.375      269.043        0.270        0.090       59.742       14.386        0.058      338.119       10.553      857.538
05/05/2014  02:54:00      -60.412        0.608       -4.720       36.231       29.444       22.001     1312.677      866.929      484.054        0.317        0.133       60.415       23.305        0.149      338.205       10.699      857.519
05/05/2014  02:55:00      -82.328       11.420      -11.400       33.289       33.722       20.481     1108.131     1137.146      419.491        0.485        0.133       83.116       11.745        0.020      338.277       10.818      857.504
05/05/2014  02:56:00     -134.911       56.633      -14.188       43.140       34.424       31.524     1861.040     1184.983      993.783        1.282        0.202      146.315       23.163        0.025      338.232       10.743      857.498
05/05/2014  02:57:00     -139.253       54.080      -13.739       54.862       47.602       30.698     3009.851     2265.958      942.341        1.436        0.311      149.385       23.939        0.026      338.137       10.584      857.535
05/05/2014  02:58:00     -104.516      -36.960      -31.472       40.197       31.008       19.940     1615.774      961.506      397.591        0.813        0.149      110.858       13.349        0.014      337.906       10.196      857.589
05/05/2014  02:59:00      -71.229      -60.788       -6.004       46.799       32.348       24.029     2190.179     1046.393      577.413        0.631        0.191       93.642       16.131        0.030      337.716        9.878      857.582
05/05/2014  03:00:00     -110.282      -21.326      -11.396       23.696       24.660       15.329      561.479      608.139      234.982        0.708        0.070      112.325        6.390        0.003      337.695        9.843      857.552
05/05/2014  03:01:00      -94.538       16.752       -8.632       37.401       22.206       18.430     1398.871      493.103      339.659        0.576        0.112       96.011       12.794        0.018      337.854       10.109      857.514
05/05/2014  03:02:00     -127.087       52.204       -6.603       45.540       30.961       26.578     2073.875      958.566      706.417        1.133        0.187      137.391       12.794        0.009      338.030       10.404      857.490
05/05/2014  03:03:00      -79.866       -3.784       -9.031       51.163       40.322       22.987     2617.631     1625.862      528.388        0.562        0.239       79.955       16.265        0.041      337.867       10.131      857.483
05/05/2014  03:04:00      -95.629       35.776       -7.792       48.453       33.008       26.989     2347.656     1089.530      728.422        0.732        0.208      102.103       26.118        0.065      338.343       10.930      857.486
05/05/2014  03:05:00      -59.698       13.817       -1.592       33.499       34.396       18.235     1122.215     1183.085      332.520        0.320        0.132       61.276       13.388        0.048      338.162       10.627      857.483
05/05/2014  03:06:00      -46.156      -23.303       -1.436       20.479       19.909       16.662      419.393      396.368      277.629        0.188        0.055       51.705        7.865        0.023      338.079       10.487      857.500
05/05/2014  03:07:00      -55.841      -23.626      -11.283       32.966       17.166       12.873     1086.784      294.659      165.718        0.268        0.077       60.634        9.884        0.027      337.779        9.983      857.507
05/05/2014  03:08:00      -56.270      -36.236       -7.836       33.758       20.895       15.902     1139.627      436.618      252.889        0.318        0.091       66.929       10.485        0.025      337.652        9.772      857.521
05/05/2014  03:09:00      -13.268      -45.746       -5.518       20.956       30.454       17.794      439.153      927.445      316.630        0.199        0.084       47.631       18.504        0.151      337.508        9.530      857.522
05/05/2014  03:10:00      -91.163      -33.713       -4.054       39.203       24.490       17.028     1536.871      599.778      289.945        0.594        0.121       97.197       17.119        0.031      337.595        9.675      857.515
05/05/2014  03:11:00      -75.254      -47.471       -4.220       36.211       27.223       17.630     1311.240      741.085      310.819        0.515        0.118       88.976       14.744        0.027      337.653        9.772      857.499
05/05/2014  03:12:00      -31.903        6.872        3.125       26.734       19.076       18.211      714.691      363.911      331.628        0.124        0.071       32.634       14.462        0.196      337.830       10.069      857.465
05/05/2014  03:13:00        7.738       -5.698        3.763       25.479       13.493       15.321      649.191      182.068      234.736        0.059        0.053        9.609        8.987        0.875      337.951       10.272      857.441
05/05/2014  03:14:00       -6.214      -16.335        0.017       18.254       16.945       11.592      333.218      287.142      134.372        0.053        0.038       17.477        6.042        0.120      337.995       10.347      857.420
05/05/2014  03:15:00      -57.996      -29.162        5.317       64.199       19.725       20.217     4121.531      389.065      408.708        0.458        0.246       64.915       27.361        0.178      337.774        9.976      857.418
05/05/2014  03:16:00     -143.281      -38.057       -8.784       42.612       41.197       22.575     1815.744     1697.210      509.621        1.304        0.201      148.249       16.158        0.012      337.688        9.831      857.403
05/05/2014  03:17:00     -210.795        2.573      -21.789       82.695       46.172       34.914     6838.442     2131.879     1218.982        2.755        0.509      210.811       40.565        0.037      337.607        9.692      857.420
05/05/2014  03:18:00     -247.723       20.069      -32.125       51.166       47.613       31.520     2618.003     2267.021      993.537        3.434        0.294      248.534       26.191        0.011      337.454        9.436      857.450
05/05/2014  03:19:00     -171.413        1.604      -21.986       40.865       47.908       29.924     1669.974     2295.139      895.464        1.736        0.243      171.421       24.717        0.021      337.497        9.510      857.466
05/05/2014  03:20:00     -139.510       21.010       -9.345       40.064       38.411       22.988     1605.096     1475.391      528.452        1.180        0.180      141.083       18.497        0.017      337.642        9.755      857.452
05/05/2014  03:21:00      -93.966       48.496        2.302       40.377       35.867       30.080     1630.315     1286.429      904.816        0.750        0.191      105.743       21.579        0.042      338.084       10.494      857.408
05/05/2014  03:22:00     -103.513       21.508       -8.373       24.206       38.195       24.017      585.952     1458.859      576.825        0.693        0.131      105.724       14.194        0.018      338.075       10.480      857.390
05/05/2014  03:23:00     -116.805      -34.880      -16.357       15.826       21.337       14.918      250.458      455.269      222.556        0.803        0.046      121.902        7.942        0.004      337.760        9.951      857.395
05/05/2014  03:24:00     -118.948      -42.566      -15.210       25.753       23.343       15.120      663.225      544.906      228.626        0.881        0.072      126.335        5.179        0.002      337.570        9.634      857.406
05/05/2014  03:25:00      -78.628      -29.763       -7.781       31.366       25.958       16.501      983.814      673.837      272.298        0.453        0.096       84.073       12.686        0.023      337.492        9.501      857.429
05/05/2014  03:26:00      -17.348      -36.813        4.934       31.560       15.723       14.607      996.062      247.202      213.373        0.157        0.073       40.695       16.099        0.156      337.590        9.666      857.420
05/05/2014  03:27:00      -87.271      -52.328        3.213       64.213       29.394       20.388     4123.372      863.982      415.687        0.788        0.270      101.757       21.494        0.045      337.599        9.682      857.430
05/05/2014  03:28:00     -183.478      -75.127       -1.271       44.872       39.358       22.516     2013.494     1549.017      506.988        2.169        0.203      198.264       25.250        0.016      337.502        9.518      857.457
05/05/2014  03:29:00     -120.100      -33.205       -1.817       55.416       29.844       23.837     3070.895      890.679      568.205        1.003        0.226      124.606       22.556        0.033      337.616        9.710      857.487
05/05/2014  03:30:00     -118.777      -39.302       -4.720       23.877       33.199       18.784      570.123     1102.165      352.852        0.885        0.101      125.110       15.340        0.015      337.608        9.698      857.488
05/05/2014  03:31:00      -94.819      -24.758      -10.337       16.047       17.200       11.399      257.516      295.845      129.927        0.520        0.034       97.997        8.673        0.008      337.804       10.026      857.470
05/05/2014  03:32:00      -64.782        7.529       -3.038       45.839       24.755       18.192     2101.171      612.806      330.966        0.365        0.152       65.218       18.070        0.077      338.098       10.518      857.435
05/05/2014  03:33:00     -104.507       27.000       -7.970       35.035       27.505       21.326     1227.442      756.552      454.808        0.708        0.122      107.939       13.141        0.015      338.423       11.065      857.396
05/05/2014  03:34:00     -111.452        9.737      -16.138       47.987       31.638       24.062     2302.730     1000.956      579.001        0.833        0.194      111.877       23.364        0.044      338.282       10.826      857.373
05/05/2014  03:35:00     -141.594        5.189      -16.806       37.088       40.523       22.532     1375.555     1642.132      507.681        1.194        0.176      141.689       16.984        0.014      338.099       10.520      857.375
05/05/2014  03:36:00     -116.921       -3.565       -9.755       67.735       39.695       29.622     4587.976     1575.717      877.461        1.041        0.352      116.975       33.717        0.083      337.915       10.213      857.400
05/05/2014  03:37:00     -135.700       -0.691      -22.439       46.092       35.158       23.259     2124.436     1236.087      540.978        1.141        0.195      135.702       20.622        0.023      337.689        9.833      857.399
05/05/2014  03:38:00      -80.484       18.031      -12.910       28.741       35.200       26.569      826.060     1239.045      705.905        0.487        0.139       82.479        7.007        0.007      337.719        9.883      857.372
05/05/2014  03:39:00      -65.642      -18.403       -4.926       36.991       34.605       21.575     1368.323     1197.534      465.500        0.385        0.152       68.173       20.883        0.094      337.532        9.569      857.317
05/05/2014  03:40:00      -40.654      -10.295       -7.795       23.253       16.450       15.651      540.681      270.597      244.952        0.144        0.053       41.937       11.089        0.070      337.467        9.460      857.319
05/05/2014  03:41:00      -14.227      -28.251       10.389       35.306       34.746       24.682     1246.491     1207.278      609.211        0.209        0.153       31.631       22.380        0.501      337.365        9.289      857.347
05/05/2014  03:42:00      -39.648      -53.384        4.063       44.464       30.630       21.247     1977.016      938.204      451.437        0.390        0.168       66.497       22.875        0.118      337.275        9.139      857.354
05/05/2014  03:43:00        1.797      -41.910       10.913       35.552       22.141       18.021     1263.914      490.216      324.770        0.198        0.104       41.949       21.663        0.267      337.323        9.220      857.340
05/05/2014  03:44:00      -44.568      -21.692        2.365       17.918       19.466       12.924      321.047      378.924      167.020        0.166        0.043       49.567        5.533        0.012      337.254        9.104      857.313
05/05/2014  03:45:00      -78.966       -2.857       -8.003       34.408       26.972       15.601     1183.884      727.510      243.389        0.423        0.108       79.017       16.667        0.044      337.360        9.283      857.305
05/05/2014  03:46:00      -92.749        9.526      -17.477       30.720       28.893       18.664      943.746      834.788      348.329        0.556        0.106       93.237       13.275        0.020      337.414        9.372      857.296
05/05/2014  03:47:00     -130.393        0.543      -18.580       22.432       25.210       16.382      503.186      635.527      268.359        0.938        0.070      130.394       13.315        0.010      337.357        9.277      857.321
05/05/2014  03:48:00     -117.533      -18.073      -11.650       37.929       32.459       23.918     1438.582     1053.569      572.086        0.867        0.153      118.914       22.065        0.034      337.458        9.445      857.344
05/05/2014  03:49:00     -101.697      -13.205       -2.086       75.366       36.290       24.988     5680.086     1316.977      624.392        0.907        0.381      102.550       29.204        0.081      337.465        9.458      857.377
05/05/2014  03:50:00     -166.424      -19.342      -10.795       59.714       33.930       29.495     3565.715     1151.235      869.971        1.689        0.279      167.544       33.924        0.041      337.272        9.135      857.393
05/05/2014  03:51:00     -147.682       27.628       -7.519       45.566       30.955       24.986     2076.270      958.223      624.310        1.314        0.183      150.244       20.879        0.019      337.481        9.484      857.385
05/05/2014  03:52:00     -136.137       18.239       -6.391       45.201       45.035       27.506     2043.152     2028.143      756.586        1.187        0.241      137.353       20.795        0.023      337.579        9.649      857.367
05/05/2014  03:53:00     -193.340       66.111       -0.088       72.970       41.548       38.460     5324.590     1726.211     1479.148        2.514        0.426      204.331       31.353        0.024      337.502        9.517      857.342
05/05/2014  03:54:00     -199.856       66.739      -22.276       68.245       49.538       32.378     4657.377     2454.044     1048.348        2.652        0.408      210.705       31.574        0.022      337.458        9.443      857.321
05/05/2014  03:55:00     -220.272       88.138      -24.968       73.768       41.693       39.033     5441.749     1738.290     1523.602        3.281        0.435      237.251       35.551        0.022      337.479        9.478      857.304
05/05/2014  03:56:00     -188.030       36.089      -20.223       51.932       71.872       34.020     2696.884     5165.637     1157.367        2.304        0.451      191.462       29.237        0.023      337.389        9.329      857.315
05/05/2014  03:57:00     -145.389       -8.692       -6.636       76.574       50.193       33.898     5863.525     2519.386     1149.078        1.539        0.477      145.649       35.188        0.058      337.259        9.112      857.384
05/05/2014  03:58:00     -171.876      -27.084       -8.426       57.036       44.207       31.632     3253.062     1954.219     1000.609        1.828        0.310      173.997       29.363        0.028      337.234        9.070      857.445
05/05/2014  03:59:00     -164.992        2.380      -13.269       59.775       38.416       33.438     3573.108     1475.774     1118.104        1.678        0.308      165.009       33.048        0.040      337.282        9.150      857.433
05/05/2014  04:00:00     -114.739       -0.999      -14.300       47.514       30.031       17.652     2257.546      901.877      311.579        0.842        0.174      114.743       18.781        0.027      337.351        9.266      857.386
05/05/2014  04:01:00      -90.193      -18.390       -8.951       31.211       23.793       15.457      974.143      566.123      238.914        0.517        0.089       92.049       16.077        0.031      337.469        9.463      857.350
05/05/2014  04:02:00      -65.176       -1.828       -7.214       13.821       19.485       11.838      191.029      379.660      140.146        0.251        0.036       65.201        6.412        0.010      337.524        9.555      857.327
05/05/2014  04:03:00      -74.929      -23.972      -10.181       17.088       19.157       12.312      291.992      366.975      151.593        0.355        0.041       78.670        6.238        0.006      337.498        9.512      857.331
05/05/2014  04:04:00     -122.131      -27.804       -8.021       41.113       21.552       20.690     1690.245      464.500      428.063        0.917        0.129      125.256       14.286        0.013      337.436        9.409      857.357
05/05/2014  04:05:00     -155.827        9.231      -17.089       28.868       28.172       19.340      833.347      793.639      374.037        1.333        0.100      156.100       12.615        0.007      337.450        9.434      857.379
05/05/2014  04:06:00     -206.302       30.581      -19.872       26.038       34.136       20.153      677.977     1165.292      406.163        2.307        0.112      208.556       14.792        0.005      337.414        9.372      857.365
05/05/2014  04:07:00     -189.649       46.393      -12.373       19.900       27.923       15.304      396.007      779.713      234.223        1.984        0.070      195.241        9.263        0.002      337.411        9.368      857.341
05/05/2014  04:08:00     -150.778       33.473       -9.054       33.494       28.208       16.755     1121.874      795.664      280.722        1.307        0.110      154.449       13.097        0.007      337.430        9.398      857.306
05/05/2014  04:09:00     -166.151       21.758      -17.667       35.174       27.961       19.631     1237.179      781.800      385.360        1.540        0.120      167.569       17.607        0.011      337.507        9.529      857.282
05/05/2014  04:10:00     -132.857       -5.854      -11.135       35.466       35.427       19.179     1257.831     1255.065      367.851        1.034        0.144      132.986       15.054        0.013      337.544        9.591      857.269
05/05/2014  04:11:00      -87.723       -0.048       -7.929       32.674       26.339       18.791     1067.601      693.743      353.110        0.494        0.106       87.723       14.296        0.027      337.510        9.532      857.242
05/05/2014  04:12:00     -117.042      -13.966      -14.777       40.002       31.885       21.025     1600.154     1016.636      442.040        0.858        0.153      117.872       19.418        0.027      337.433        9.403      857.245
05/05/2014  04:13:00     -112.600      -15.732       -9.562       41.619       30.731       24.302     1732.122      944.409      590.594        0.814        0.163      113.694       22.698        0.040      337.401        9.350      857.264
05/05/2014  04:14:00      -78.261       -0.761       -6.813       48.707       30.134       27.929     2372.349      908.087      780.032        0.512        0.203       78.265       26.713        0.116      337.349        9.265      857.287
05/05/2014  04:15:00     -102.902       17.165      -16.335       53.945       33.640       22.751     2910.056     1131.627      517.623        0.785        0.228      104.324       18.707        0.032      337.389        9.329      857.291
05/05/2014  04:16:00      -95.957       23.282       -9.447       34.335       30.812       23.632     1178.867      949.363      558.462        0.626        0.134       98.741       16.495        0.028      337.621        9.719      857.292
05/05/2014  04:17:00     -101.247       50.540      -19.216       31.081       40.690       20.775      966.013     1655.655      431.580        0.811        0.153      113.160       12.554        0.012      337.734        9.908      857.272
05/05/2014  04:18:00     -104.125       25.198      -18.181       34.470       44.328       23.287     1188.180     1964.967      542.273        0.775        0.185      107.130       16.295        0.023      337.685        9.825      857.252
05/05/2014  04:19:00     -115.765       27.550      -13.330       29.942       44.970       23.142      896.548     2022.345      535.557        0.890        0.173      118.998       14.754        0.015      337.648        9.763      857.236
05/05/2014  04:20:00     -102.222       -0.996      -13.618       35.456       30.922       21.759     1257.139      956.172      473.474        0.666        0.134      102.227       10.946        0.011      337.543        9.587      857.207
05/05/2014  04:21:00      -77.948       26.968        3.000       34.910       34.536       21.500     1218.682     1192.733      462.249        0.484        0.144       82.481       14.728        0.032      337.538        9.579      857.204
05/05/2014  04:22:00      -82.039       52.202      -18.353       28.297       40.551       20.703      800.745     1644.351      428.611        0.633        0.144       97.239       16.119        0.027      337.689        9.834      857.196
05/05/2014  04:23:00     -104.883       50.580      -18.749       39.415       38.052       19.357     1553.576     1447.951      374.676        0.864        0.169      116.442       18.970        0.027      337.687        9.829      857.207
05/05/2014  04:24:00     -105.170       42.517      -12.814       36.825       40.658       25.876     1356.069     1653.073      669.578        0.835        0.184      113.439       21.898        0.037      337.763        9.957      857.211
05/05/2014  04:25:00     -123.055      -11.970      -20.214       45.948       44.654       21.707     2111.240     1993.970      471.190        1.013        0.229      123.636       26.084        0.045      337.505        9.525      857.225
05/05/2014  04:26:00     -141.898      -60.744      -10.435       40.582       33.126       24.217     1646.892     1097.351      586.459        1.363        0.167      154.353       20.990        0.018      337.382        9.318      857.259
05/05/2014  04:27:00     -169.362      -20.908      -18.497       40.434       40.133       25.996     1634.898     1610.686      675.803        1.669        0.196      170.648       16.990        0.010      337.431        9.400      857.252
05/05/2014  04:28:00     -201.786       11.488      -28.393       32.576       27.793       17.999     1061.223      772.439      323.960        2.191        0.108      202.112       11.420        0.003      337.470        9.464      857.219
05/05/2014  04:29:00     -147.044       -1.659      -14.718       38.253       34.882       25.978     1463.276     1216.788      674.860        1.260        0.168      147.053       18.256        0.015      337.445        9.423      857.173
05/05/2014  04:30:00     -137.040       16.352      -21.722       50.907       42.327       21.276     2591.538     1791.585      452.676        1.218        0.242      138.012       18.611        0.018      337.512        9.535      857.118
05/05/2014  04:31:00     -137.968      -25.580      -13.996       28.676       37.231       20.718      822.322     1386.135      429.226        1.126        0.132      140.319       16.158        0.013      337.507        9.527      857.095
05/05/2014  04:32:00     -135.847      -35.896      -11.122       37.359       29.183       20.206     1395.707      851.629      408.277        1.126        0.133      140.510       16.296        0.013      337.512        9.535      857.125
05/05/2014  04:33:00     -119.760      -44.632       -9.433       25.074       30.006       19.952      628.706      900.333      398.067        0.917        0.096      127.807       14.901        0.014      337.466        9.459      857.145
05/05/2014  04:34:00     -102.221      -32.243      -10.884       57.843       34.979       22.569     3345.782     1223.544      509.368        0.834        0.254      107.185       23.168        0.047      337.417        9.376      857.162
05/05/2014  04:35:00     -188.798      -18.431      -23.301       49.610       33.321       29.837     2461.169     1110.298      890.238        2.049        0.223      189.695       25.421        0.018      337.344        9.253      857.184
05/05/2014  04:36:00     -203.694       10.070      -12.739       58.112       37.364       33.453     3376.948     1396.047     1119.122        2.382        0.295      203.943       36.543        0.032      337.239        9.076      857.167
05/05/2014  04:37:00     -204.934       37.691      -17.398       37.599       35.715       22.885     1413.691     1275.591      523.739        2.347        0.161      208.371       14.115        0.005      337.290        9.161      857.157
05/05/2014  04:38:00     -193.141       12.992      -12.633       47.526       51.106       29.613     2258.765     2611.835      876.941        2.169        0.287      193.577       23.472        0.015      337.482        9.485      857.130
05/05/2014  04:39:00     -221.317       65.847      -15.309       46.344       33.777       19.115     2147.750     1140.903      365.400        2.860        0.183      230.905       12.366        0.003      337.698        9.845      857.101
05/05/2014  04:40:00     -126.843       18.725       -7.623       39.416       32.999       22.388     1553.607     1088.952      501.219        0.982        0.157      128.218       18.255        0.020      337.488        9.496      857.079
05/05/2014  04:41:00     -154.664       33.941      -16.872       49.856       43.940       22.814     2485.599     1930.758      520.489        1.515        0.247      158.345       18.828        0.014      337.457        9.443      857.039
05/05/2014  04:42:00      -86.708        6.611      -14.075       25.828       27.362       19.107      667.084      748.654      365.062        0.477        0.089       86.959       16.565        0.036      337.626        9.728      857.016
05/05/2014  04:43:00     -109.311      -40.173      -11.573       25.497       22.093       16.386      650.078      488.099      268.501        0.755        0.070      116.459       12.275        0.011      337.607        9.696      857.034
05/05/2014  04:44:00     -123.680      -74.221      -12.098       28.554       26.893       15.513      815.339      723.242      240.660        1.137        0.089      144.241       13.600        0.009      337.500        9.515      857.048
05/05/2014  04:45:00     -154.737      -56.232      -15.400       28.630       26.547       14.940      819.671      704.744      223.192        1.454        0.087      164.638       11.546        0.005      337.411        9.366      857.072
05/05/2014  04:46:00     -153.650      -49.341       -8.426       31.628       26.956       19.477     1000.318      726.640      379.341        1.411        0.105      161.378       17.229        0.011      337.358        9.278      857.068
05/05/2014  04:47:00     -154.257      -36.025      -19.191       30.209       27.354       18.587      912.572      748.219      345.480        1.373        0.100      158.408       14.056        0.008      337.366        9.292      857.041
05/05/2014  04:48:00     -148.470      -71.241      -11.749       47.837       40.590       25.743     2288.345     1647.583      662.688        1.593        0.230      164.678       25.533        0.024      337.303        9.185      857.023
05/05/2014  04:49:00     -172.115       16.515      -27.680       34.444       44.692       22.510     1186.380     1997.388      506.687        1.718        0.185      172.905       18.963        0.012      337.371        9.301      857.012
05/05/2014  04:50:00     -160.273       21.034       -6.134       33.634       40.874       29.886     1131.258     1670.661      893.169        1.493        0.185      161.647       17.348        0.012      337.322        9.216      857.029
05/05/2014  04:51:00     -187.155       18.317      -19.581       34.155       33.345       18.928     1166.554     1111.912      358.252        1.919        0.132      188.049       17.887        0.009      337.374        9.303      857.056
05/05/2014  04:52:00     -156.213      -17.311      -11.652       61.777       46.018       33.114     3816.448     2117.643     1096.560        1.593        0.352      157.169       30.824        0.038      337.339        9.247      857.091
05/05/2014  04:53:00     -124.186      -13.828      -13.142       44.346       45.742       26.174     1966.572     2092.316      685.057        1.026        0.237      124.954       24.834        0.039      337.320        9.213      857.107
05/05/2014  04:54:00     -129.829       -2.327      -16.281       44.608       36.866       23.888     1989.890     1359.137      570.623        1.052        0.196      129.850       17.847        0.019      337.287        9.159      857.100
05/05/2014  04:55:00     -133.981       -1.541      -10.406       41.395       39.299       25.836     1713.533     1544.401      667.506        1.099        0.196      133.990       19.066        0.020      337.329        9.229      857.102
05/05/2014  04:56:00     -181.259       26.392      -18.628       68.624       52.167       30.277     4709.257     2721.382      916.680        2.112        0.417      183.170       30.985        0.029      337.485        9.489      857.101
05/05/2014  04:57:00     -139.925       41.762       -7.886       45.910       36.695       27.275     2107.713     1346.526      743.927        1.279        0.210      146.025       21.260        0.021      337.449        9.430      857.102
05/05/2014  04:58:00     -120.310        0.447      -19.074       28.227       36.737       20.172      796.786     1349.633      406.923        0.870        0.128      120.311       12.729        0.011      337.466        9.457      857.105
05/05/2014  04:59:00      -81.676      -41.162       -2.871       41.026       39.064       25.704     1683.131     1526.018      660.719        0.612        0.193       91.462       20.901        0.052      337.453        9.436      857.113
05/05/2014  05:00:00      -84.471      -28.485        3.300       32.118       36.916       26.276     1031.576     1362.777      690.445        0.552        0.154       89.144       19.188        0.046      337.394        9.337      857.093
05/05/2014  05:01:00     -118.692      -35.563       -9.539       54.519       46.296       29.424     2972.374     2143.342      865.743        1.071        0.299      123.905       16.681        0.018      337.306        9.191      857.091
05/05/2014  05:02:00      -92.087      -33.607       -5.355       32.935       32.006       16.581     1084.699     1024.398      274.934        0.601        0.119       98.028       15.013        0.023      337.294        9.170      857.097
05/05/2014  05:03:00      -96.675        0.502      -27.640       66.464       28.725       21.879     4417.404      825.136      478.683        0.791        0.286       96.676       20.092        0.043      337.310        9.198      857.109
05/05/2014  05:04:00       -6.336      -37.699       -3.915       43.400       29.052       29.816     1883.602      844.024      889.016        0.255        0.181       38.227       13.419        0.123      337.411        9.365      857.110
05/05/2014  05:05:00      -30.328      -16.440       -2.311       27.864       27.669       13.092      776.400      765.580      171.403        0.145        0.086       34.497        9.655        0.078      337.327        9.225      857.100
05/05/2014  05:06:00      -38.094      -15.043       -8.326       16.129       14.892       15.934      260.153      221.773      253.902        0.124        0.037       40.957       10.852        0.070      337.393        9.337      857.098
05/05/2014  05:07:00      -52.397      -30.973       -4.192       25.642       25.330       20.053      657.526      641.627      402.142        0.271        0.085       60.867       17.194        0.080      337.305        9.190      857.107
05/05/2014  05:08:00      -94.031      -27.525      -12.745       19.375       20.298       13.366      375.386      412.002      178.638        0.536        0.048       97.977        6.359        0.004      337.237        9.076      857.108
05/05/2014  05:09:00      -91.130      -27.079      -10.874       11.639       16.705        8.362      135.463      279.070       69.925        0.482        0.024       95.068        4.008        0.002      337.236        9.074      857.082
05/05/2014  05:10:00      -78.004       -6.806       -5.391       15.517       21.005       10.091      240.784      441.219      101.828        0.347        0.039       78.300        8.010        0.010      337.299        9.179      857.058
05/05/2014  05:11:00      -70.595      -24.150       -2.614       32.932       34.499       18.214     1084.487     1190.148      331.737        0.409        0.130       74.612       11.523        0.024      337.359        9.280      857.051
05/05/2014  05:12:00     -140.381      -54.301       -6.103       31.224       31.855       22.466      974.957     1014.726      504.718        1.259        0.125      150.517       18.918        0.016      337.289        9.161      857.062
05/05/2014  05:13:00     -107.988      -63.339       -5.027       67.676       34.722       24.395     4580.067     1205.602      595.098        1.104        0.319      125.193       27.338        0.048      337.319        9.212      857.062
05/05/2014  05:14:00     -136.886      -95.913       -2.178       70.372       45.965       32.401     4952.173     2112.805     1049.832        1.803        0.406      167.144       28.481        0.029      337.238        9.076      857.054
05/05/2014  05:15:00     -115.623      -58.402        0.250       65.613       37.993       31.929     4305.129     1443.455     1019.487        1.177        0.338      129.535       31.133        0.058      337.222        9.051      857.038
05/05/2014  05:16:00      -98.159      -51.243       -2.640       46.515       33.424       17.882     2163.619     1117.132      319.763        0.793        0.180      110.729       19.296        0.030      337.463        9.455      857.025
05/05/2014  05:17:00      -83.246      -42.254        6.989       30.266       30.730       19.409      916.037      944.344      376.695        0.550        0.112       93.356       13.699        0.022      337.601        9.686      857.015
05/05/2014  05:18:00      -40.573      -42.236       -2.675       34.907       17.547       11.013     1218.525      307.901      121.284        0.254        0.082       58.567        9.094        0.024      337.761        9.953      857.012
05/05/2014  05:19:00      -12.403      -58.125       -2.467       17.953       31.256       13.416      322.319      976.932      179.997        0.251        0.074       59.434       12.534        0.044      337.688        9.832      857.017
05/05/2014  05:20:00        4.262       -1.848       11.746       14.411       15.160       12.757      207.666      229.836      162.741        0.038        0.030        4.645        9.903        4.545      337.582        9.650      857.009
05/05/2014  05:21:00      -15.053       19.194        4.444       25.927       24.441       15.601      672.214      597.386      243.387        0.106        0.076       24.392       19.824        0.661      337.455        9.441      856.997
05/05/2014  05:22:00      -64.146       36.558       -7.583       18.701       16.865       15.894      349.736      284.442      252.620        0.320        0.044       73.832        7.610        0.011      337.153        8.935      856.987
05/05/2014  05:23:00     -101.263       34.559      -10.769       24.671       23.972       14.894      608.648      574.654      221.838        0.648        0.070      106.998       11.217        0.011      337.273        9.135      856.980
05/05/2014  05:24:00     -147.112       20.043      -13.247       46.564       28.641       18.129     2168.236      820.309      328.679        1.277        0.166      148.471       16.791        0.013      337.193        9.002      856.979
05/05/2014  05:25:00     -148.645      -15.530      -10.349       41.038       36.937       20.390     1684.122     1364.364      415.736        1.295        0.173      149.454       19.179        0.016      337.174        8.972      856.985
05/05/2014  05:26:00     -136.269      -37.183        1.307       53.089       35.802       26.519     2818.430     1281.787      703.238        1.238        0.240      141.251       26.111        0.034      337.042        8.749      856.995
05/05/2014  05:27:00     -113.817      -57.942        2.400       55.373       40.429       22.330     3066.219     1634.539      498.629        1.076        0.260      127.717       26.634        0.043      337.170        8.964      857.001
05/05/2014  05:28:00     -122.636      -34.432       -5.788       51.492       36.657       25.547     2651.386     1343.714      652.663        1.045        0.232      127.378       26.101        0.042      337.315        9.207      857.004
05/05/2014  05:29:00      -72.852      -12.377      -11.361       32.694       35.593       20.382     1068.877     1266.845      415.429        0.417        0.138       73.896        6.124        0.007      337.364        9.288      856.985
05/05/2014  05:30:00     -105.200        2.580        1.574       28.367       47.808       19.841      804.698     2285.568      393.671        0.728        0.174      105.232       18.085        0.030      337.405        9.357      856.972
05/05/2014  05:31:00      -88.964       -9.684      -19.657       17.438       24.438       16.140      304.067      597.212      260.501        0.478        0.058       89.490       10.329        0.013      337.397        9.342      856.954
05/05/2014  05:32:00     -107.585      -59.542       -7.032       40.628       34.770       22.613     1650.646     1208.939      511.358        0.927        0.169      122.963       21.512        0.031      337.410        9.364      856.936
05/05/2014  05:33:00      -64.466      -44.400       11.629       49.737       40.808       22.312     2473.783     1665.289      497.815        0.545        0.232       78.277       24.928        0.101      337.320        9.217      856.939
05/05/2014  05:34:00      -97.557       -2.102       -8.259       26.241       21.987       16.691      688.579      483.444      278.581        0.552        0.073       97.580       11.496        0.014      337.392        9.335      856.938
05/05/2014  05:35:00      -57.290       23.716        0.592       28.698       43.993       22.520      823.563     1935.387      507.164        0.355        0.163       62.005       20.525        0.110      337.291        9.167      856.922
05/05/2014  05:36:00      -84.432       50.582      -15.742       25.390       25.527       14.792      644.647      651.642      218.801        0.572        0.076       98.424       15.815        0.026      337.553        9.604      856.914
05/05/2014  05:37:00      -69.555      -16.802        5.886       35.034       34.969       18.028     1227.404     1222.826      325.025        0.396        0.139       71.555       18.458        0.067      337.427        9.393      856.917
05/05/2014  05:38:00      -46.984      -41.577        3.457       47.945       32.423       25.479     2298.741     1051.255      649.158        0.397        0.200       62.739       25.813        0.169      337.318        9.211      856.934
05/05/2014  05:39:00     -109.573      -25.725       -5.781       34.168       30.929       18.294     1167.452      956.619      334.686        0.758        0.123      112.552       16.412        0.021      337.250        9.097      856.922
05/05/2014  05:40:00     -106.194       -9.556       -3.008       37.943       28.956       19.367     1439.676      838.441      375.087        0.701        0.133      106.623       21.422        0.040      337.188        8.992      856.873
05/05/2014  05:41:00      -73.099        2.094       -7.566       27.596       30.091       19.386      761.524      905.477      375.802        0.372        0.102       73.129        9.995        0.019      337.046        8.754      856.836
05/05/2014  05:42:00      -67.952       31.110      -10.017       32.430       27.379       16.598     1051.727      749.595      275.493        0.388        0.104       74.735       13.476        0.033      337.114        8.869      856.813
05/05/2014  05:43:00      -38.913       63.155       -1.462       31.979       24.765       18.029     1022.658      613.322      325.057        0.373        0.098       74.180       16.726        0.051      337.412        9.369      856.804
05/05/2014  05:44:00       -9.583       46.538        9.192       24.746       31.364       16.791      612.369      983.703      281.936        0.211        0.094       47.514       17.183        0.131      337.563        9.620      856.798
05/05/2014  05:45:00        8.715       86.410       -7.715       16.691       16.088       10.296      278.590      258.811      105.999        0.412        0.032       86.848        8.188        0.009      337.571        9.634      856.792
05/05/2014  05:46:00      -17.444       59.946       -4.320       19.970       39.185       12.658      398.795     1535.483      160.228        0.301        0.105       62.433       18.229        0.085      337.575        9.640      856.804
05/05/2014  05:47:00      -60.805        7.541       -9.278       16.940       23.502       11.932      286.967      552.364      142.368        0.241        0.049       61.271       12.403        0.041      337.395        9.341      856.822
05/05/2014  05:48:00      -78.457      -41.361       -9.742       30.622       15.881       14.113      937.700      252.217      199.182        0.467        0.069       88.692        8.823        0.010      337.231        9.067      856.842
05/05/2014  05:49:00     -104.288      -25.698       -7.035       44.925       30.394       22.108     2018.290      923.773      488.766        0.751        0.172      107.408       18.820        0.031      337.266        9.124      856.861
05/05/2014  05:50:00      -74.645       60.371      -15.224       37.076       32.079       20.664     1374.624     1029.062      427.015        0.614        0.142       96.003       19.396        0.041      337.568        9.628      856.870
05/05/2014  05:51:00       -4.246       25.538        0.296       22.918       16.121       13.669      525.252      259.891      186.844        0.082        0.049       25.889       10.659        0.170      337.579        9.648      856.871
05/05/2014  05:52:00      -52.943       15.370       -6.851       38.501       28.217       11.696     1482.336      796.203      136.794        0.275        0.121       55.129       13.435        0.059      337.493        9.504      856.878
05/05/2014  05:53:00      -75.071       -8.146      -15.372       17.657       16.587       11.010      311.760      275.135      121.230        0.332        0.035       75.512        6.501        0.007      337.500        9.515      856.887
05/05/2014  05:54:00      -30.519      -30.969        3.032       27.611       30.459       15.254      762.370      927.732      232.670        0.191        0.096       43.480       15.362        0.125      337.461        9.449      856.905
05/05/2014  05:55:00      -36.782       -5.409       -6.473       17.041       15.460       11.961      290.396      239.000      143.066        0.105        0.034       37.177        6.166        0.028      337.414        9.371      856.900
05/05/2014  05:56:00      -32.843      -12.492       -6.324       19.118       12.451       10.619      365.509      155.039      112.769        0.095        0.032       35.138        9.234        0.069      337.356        9.275      856.896
05/05/2014  05:57:00      -46.548      -11.230       -7.691       11.884       10.991        7.475      141.225      120.794       55.883        0.133        0.016       47.883        5.327        0.012      337.269        9.131      856.929
05/05/2014  05:58:00      -94.378      -10.971       -4.216       29.717       35.136       16.884      883.087     1234.557      285.056        0.572        0.120       95.014       14.953        0.025      337.219        9.047      856.967
05/05/2014  05:59:00      -53.548      -10.384        1.280       34.048       22.525       18.452     1159.234      507.359      340.484        0.249        0.100       54.546       17.093        0.098      337.176        8.973      856.979
05/05/2014  06:00:00       21.631       15.982       22.125       21.973       26.969       13.299      482.791      727.344      176.876        0.130        0.069       26.895       15.483        0.331      336.994        8.667      856.941
05/05/2014  06:01:00       73.357       60.390       -6.107       16.320       28.600       19.688      266.351      817.940      387.606        0.527        0.074       95.017       14.282        0.023      336.934        8.568      856.887
05/05/2014  06:02:00       57.064       15.584       -0.843       37.891       20.303       20.179     1435.731      412.229      407.179        0.288        0.113       59.154       14.904        0.063      337.051        8.762      856.852
05/05/2014  06:03:00       -9.780        9.762      -10.833       25.753       12.707        8.332      663.222      161.460       69.422        0.060        0.045       13.818        6.584        0.227      337.049        8.759      856.869
05/05/2014  06:04:00      -87.233       -0.165      -11.290       22.808       12.776       11.283      520.196      163.231      127.299        0.427        0.041       87.233        9.482        0.012      337.003        8.682      856.897
05/05/2014  06:05:00      -86.056      -36.741       -7.585       21.073       18.220       13.119      444.060      331.958      172.116        0.488        0.047       93.571        6.602        0.005      337.108        8.857      856.922
05/05/2014  06:06:00     -118.799      -56.264       -3.195       46.615       25.036       19.760     2172.983      626.779      390.441        1.024        0.160      131.449       21.203        0.026      337.148        8.926      856.938
05/05/2014  06:07:00     -134.051      -29.038       -1.278       41.371       35.938       23.370     1711.548     1291.542      546.170        1.118        0.177      137.160       23.605        0.030      337.064        8.785      856.939
05/05/2014  06:08:00      -90.796      -22.990       -4.079       23.554       20.865       15.676      554.808      435.362      245.749        0.501        0.062       93.661       11.296        0.015      337.103        8.850      856.941
05/05/2014  06:09:00      -63.963       -1.244       -4.484       22.602       13.163       12.456      510.872      173.269      155.144        0.248        0.042       63.975       10.582        0.027      337.076        8.804      856.942
05/05/2014  06:10:00      -32.819       -7.293       -5.573       17.191        9.571        6.698      295.517       91.600       44.861        0.080        0.022       33.620        6.717        0.040      337.135        8.905      856.921
05/05/2014  06:11:00      -13.351       -2.076       -2.328       10.647        7.367        3.953      113.367       54.269       15.626        0.019        0.009       13.512        3.576        0.070      337.189        8.997      856.888
05/05/2014  06:12:00       10.056       15.937        8.532       17.957        9.523        9.635      322.441       90.691       92.830        0.047        0.025       18.844        8.966        0.226      337.251        9.099      856.868
05/05/2014  06:13:00       47.785       33.089        1.833        9.778       10.746       13.062       95.604      115.467      170.614        0.188        0.019       58.123        7.349        0.016      337.039        8.744      856.857
05/05/2014  06:14:00       47.135       24.982       15.146       14.481       11.935       21.093      209.687      142.443      444.931        0.194        0.040       53.346       12.381        0.054      337.033        8.732      856.861
05/05/2014  06:15:00        9.958        9.018       17.556       15.902       22.182       11.579      252.884      492.021      134.067        0.068        0.044       13.434       12.387        0.850      337.088        8.825      856.898
05/05/2014  06:16:00        5.854        5.887       10.373       11.782       12.882       11.947      138.811      165.954      142.736        0.031        0.022        8.302       10.365        1.559      336.992        8.666      856.929
05/05/2014  06:17:00       43.875       23.860       19.826       20.108       13.538       14.114      404.329      183.290      199.214        0.184        0.039       49.943       11.539        0.053      337.215        9.039      856.922
05/05/2014  06:18:00       52.986       22.900       14.793       20.064       13.927       12.246      402.565      193.957      149.969        0.215        0.037       57.723        6.808        0.014      337.445        9.423      856.910
05/05/2014  06:19:00        8.472       -4.803       13.248       16.958       15.923       12.210      287.574      253.538      149.077        0.048        0.035        9.739       10.547        1.173      337.450        9.432      856.916
05/05/2014  06:20:00        9.796       -8.203       18.392       16.411       20.551       13.323      269.331      422.337      177.506        0.069        0.043       12.777        9.914        0.602      337.418        9.378      856.924
05/05/2014  06:21:00       39.115      -56.992       -7.224       25.974       23.046       16.601      674.660      531.130      275.606        0.316        0.074       69.124       13.049        0.036      337.696        9.846      856.920
05/05/2014  06:22:00       -9.545      -28.467        5.293       20.453       27.827       16.944      418.337      774.327      287.083        0.120        0.074       30.024       12.272        0.167      337.628        9.731      856.916
05/05/2014  06:23:00       26.437       16.444       15.529       26.720       16.824       14.662      713.969      283.057      214.988        0.121        0.061       31.133        4.586        0.022      337.442        9.417      856.893
05/05/2014  06:24:00       82.974       37.638       12.603       26.240       27.937       21.811      688.560      780.489      475.717        0.520        0.097       91.112       12.979        0.020      337.396        9.341      856.855
05/05/2014  06:25:00       58.274       42.581       32.964       33.152       25.307       27.690     1099.043      640.424      766.744        0.440        0.125       72.174       22.031        0.093      337.469        9.464      856.854
05/05/2014  06:26:00       81.598       33.236       18.980       44.584       27.932       30.668     1987.759      780.223      940.524        0.592        0.185       88.107       21.735        0.061      337.503        9.519      856.854
05/05/2014  06:27:00       65.446       52.790       41.269       39.579       22.098       24.582     1566.464      488.320      604.274        0.572        0.133       84.083       17.698        0.044      337.584        9.657      856.845
05/05/2014  06:28:00       68.749       45.099       37.552       32.439       24.771       25.973     1052.264      613.604      674.582        0.525        0.117       82.221       14.807        0.032      337.462        9.452      856.814
05/05/2014  06:29:00       68.447       31.458       -0.018       18.440       27.271       17.601      340.048      743.704      309.797        0.353        0.070       75.330       15.859        0.044      337.240        9.081      856.792
05/05/2014  06:30:00       -6.290      -34.610       -3.135       20.882       25.641       13.354      436.078      657.477      178.320        0.126        0.064       35.177        9.620        0.075      337.279        9.148      856.830
05/05/2014  06:31:00      -56.715      -26.481       -4.560       18.760       21.286       19.557      351.951      453.113      382.459        0.256        0.059       62.592        8.254        0.017      337.185        8.988      856.870
05/05/2014  06:32:00      -32.442       -1.526       -6.815       17.470       11.736        8.315      305.184      137.743       69.133        0.081        0.026       32.478        6.228        0.037      337.281        9.149      856.867
05/05/2014  06:33:00        6.090       25.025       -1.131       14.331       12.062        8.067      205.364      145.484       65.072        0.054        0.021       25.755        5.186        0.041      337.333        9.236      856.850
05/05/2014  06:34:00       32.895       35.873       -2.489       16.651       10.867       12.199      277.250      118.082      148.825        0.146        0.027       48.672        8.035        0.027      337.378        9.310      856.823
05/05/2014  06:35:00       41.381       47.569        5.494       25.659       29.083       20.931      658.374      845.833      438.090        0.297        0.097       63.049       16.804        0.071      337.330        9.233      856.783
05/05/2014  06:36:00       35.223       65.766      -11.175       22.583       34.261       16.680      510.011     1173.796      278.214        0.383        0.098       74.605       13.999        0.035      337.321        9.216      856.763
05/05/2014  06:37:00       -9.118       50.539      -11.590       22.628       37.466       11.538      512.025     1403.731      133.123        0.241        0.102       51.355       16.568        0.104      337.319        9.212      856.809
05/05/2014  06:38:00     -104.509      -39.420       -4.373       49.153       37.673       18.360     2416.006     1419.254      337.086        0.833        0.209      111.696       12.111        0.012      337.046        8.755      856.873
05/05/2014  06:39:00     -104.787       25.700       -8.600       30.235       23.773       18.748      914.179      565.158      351.501        0.677        0.092      107.893       18.053        0.028      336.887        8.489      856.885
05/05/2014  06:40:00     -103.559       37.893      -11.420       34.979       33.867       22.459     1223.531     1147.001      504.411        0.758        0.144      110.274       17.485        0.025      336.798        8.343      856.841
05/05/2014  06:41:00      -81.698       80.734      -23.189       24.944       31.314       15.975      622.208      980.543      255.195        0.779        0.093      114.859       13.888        0.015      336.988        8.659      856.787
05/05/2014  06:42:00      -91.772       60.082      -16.374       23.416       28.599       21.211      548.330      817.907      449.922        0.706        0.091      109.690       19.018        0.030      336.961        8.613      856.760
05/05/2014  06:43:00      -98.212       24.478      -17.478       26.213       26.162       21.257      687.110      684.435      451.865        0.619        0.091      101.216       11.228        0.012      336.940        8.579      856.765
05/05/2014  06:44:00      -82.149       -2.571      -12.788       21.526       33.281       22.672      463.350     1107.607      514.006        0.450        0.104       82.189       13.274        0.026      336.934        8.567      856.765
05/05/2014  06:45:00     -102.856        3.912      -21.602       27.624       27.242       17.847      763.092      742.144      318.525        0.644        0.091      102.931       15.561        0.023      336.890        8.494      856.752
05/05/2014  06:46:00     -130.414       13.330      -19.683       28.188       22.605       15.161      794.584      510.963      229.853        0.955        0.077      131.093        9.305        0.005      336.891        8.498      856.741
05/05/2014  06:47:00      -73.655       -2.708       -7.065       25.223       23.624       15.620      636.214      558.089      243.995        0.346        0.072       73.705       13.563        0.034      336.847        8.424      856.738
05/05/2014  06:48:00      -67.682       -8.138       -8.521       25.888       21.692       12.492      670.199      470.554      156.048        0.301        0.065       68.169        6.998        0.011      336.958        8.608      856.752
05/05/2014  06:49:00      -83.539      -20.060       -5.696       24.882       16.788       13.079      619.129      281.852      171.073        0.424        0.054       85.914        7.942        0.009      337.029        8.726      856.750
05/05/2014  06:50:00      -64.409      -30.193       -5.864       42.873       16.031       13.787     1838.067      257.002      190.095        0.369        0.114       71.135       12.000        0.028      337.066        8.788      856.736
05/05/2014  06:51:00      -14.659      -45.502       13.878       34.050       22.752       21.815     1159.418      517.667      475.890        0.232        0.108       47.805       13.306        0.077      337.108        8.859      856.731
05/05/2014  06:52:00      -27.631      -39.018       13.635       34.939       30.666       19.576     1220.729      940.377      383.210        0.251        0.127       47.811       18.537        0.150      337.218        9.046      856.736
05/05/2014  06:53:00      -68.267      -52.632       -0.021       31.424       24.826       18.849      987.457      616.319      355.284        0.469        0.098       86.201       15.728        0.033      337.253        9.102      856.729
05/05/2014  06:54:00      -50.470      -27.963       -2.132       17.863       20.594        7.886      319.081      424.098       62.189        0.207        0.040       57.699        5.143        0.008      337.388        9.328      856.726
05/05/2014  06:55:00      -27.055       10.925       -0.474       13.603       14.669        5.525      185.047      215.189       30.531        0.064        0.022       29.177        7.760        0.071      337.436        9.410      856.712
05/05/2014  06:56:00      -33.696       29.616       -4.528       10.427        8.323        7.623      108.714       69.277       58.110        0.113        0.012       44.861        5.150        0.013      337.500        9.515      856.691
05/05/2014  06:57:00      -59.248       20.082      -10.896       25.205       22.213       10.553      635.272      493.434      111.361        0.264        0.062       62.559       11.241        0.032      337.557        9.610      856.694
05/05/2014  06:58:00      -58.497       -9.398       -9.608       10.618       17.507        4.516      112.737      306.507       20.393        0.202        0.022       59.247        3.310        0.003      337.366        9.289      856.721
05/05/2014  06:59:00      -81.820      -12.911       -9.361       23.227       13.628       11.384      539.507      185.730      129.604        0.390        0.043       82.833        8.592        0.011      337.398        9.344      856.729
05/05/2014  07:00:00      -91.660       -8.590       -6.595       32.209       21.578       18.326     1037.392      465.610      335.857        0.518        0.092       92.061       17.343        0.035      337.373        9.302      856.731
05/05/2014  07:01:00     -135.948       24.628      -10.810       74.018       50.492       26.726     5478.683     2549.416      714.258        1.397        0.437      138.160       31.266        0.051      337.182        8.983      856.716
05/05/2014  07:02:00     -212.610       29.912      -18.009       57.646       46.265       35.274     3323.079     2140.449     1244.261        2.656        0.335      214.704       32.431        0.023      336.945        8.583      856.703
05/05/2014  07:03:00     -156.852       -8.679      -14.019       45.242       44.264       27.286     2046.817     1959.324      744.525        1.481        0.238      157.092       24.397        0.024      337.025        8.719      856.685
05/05/2014  07:04:00     -121.860      -30.224       -9.120       58.636       51.095       28.067     3438.143     2610.690      787.732        1.134        0.342      125.552       22.349        0.032      337.098        8.841      856.655
05/05/2014  07:05:00     -154.059       -1.220      -19.809       50.842       37.023       29.185     2584.929     1370.716      851.759        1.447        0.240      154.064       23.378        0.023      337.107        8.857      856.636
05/05/2014  07:06:00     -112.625      -48.274       -2.102       28.476       50.158       23.089      810.892     2515.870      533.098        0.944        0.193      122.535       16.013        0.017      337.128        8.891      856.666
05/05/2014  07:07:00      -72.058      -23.048       10.203       56.429       37.272       23.636     3184.269     1389.207      558.639        0.548        0.257       75.654       27.321        0.130      337.207        9.024      856.717
05/05/2014  07:08:00      -35.086        4.373        4.039       23.901       26.226       16.726      571.243      687.819      279.773        0.140        0.077       35.358       10.616        0.090      337.338        9.246      856.729
05/05/2014  07:09:00      -85.220        5.877       -4.611       41.809       22.124       14.182     1747.988      489.456      201.120        0.488        0.122       85.423        9.978        0.014      337.341        9.250      856.686
05/05/2014  07:10:00     -146.259        2.102      -19.108       32.908       22.501       15.183     1082.936      506.292      230.523        1.179        0.091      146.274        9.063        0.004      337.371        9.299      856.648
05/05/2014  07:11:00     -131.252      -19.945      -11.660       35.352       37.710       19.463     1249.776     1422.073      378.806        1.041        0.153      132.759       16.084        0.015      337.448        9.430      856.631
05/05/2014  07:12:00     -107.182       89.639      -14.220       45.320       29.965       24.723     2053.899      897.893      611.250        1.164        0.178      139.726       14.275        0.010      337.628        9.731      856.584
05/05/2014  07:13:00      -88.254       96.905      -12.998       49.323       55.919       26.715     2432.772     3126.883      713.708        1.181        0.314      131.070       22.067        0.028      337.750        9.935      856.534
05/05/2014  07:14:00      -81.135      -26.489       -4.411       49.651       35.850       22.911     2465.179     1285.220      524.923        0.579        0.214       85.349       18.225        0.046      337.724        9.892      856.567
05/05/2014  07:15:00       -3.572       37.584       -0.006       38.824       31.378       26.584     1507.301      984.574      706.720        0.231        0.160       37.753       19.307        0.262      337.919       10.220      856.588
05/05/2014  07:16:00       46.559      -23.119       30.100       45.565       65.945       50.138     2076.213     4348.795     2513.813        0.627        0.447       51.983       42.927        0.682      338.044       10.426      856.566
05/05/2014  07:17:00      103.985      -71.763       23.155       90.990       82.211       70.331     8279.122     6758.661     4946.485        1.824        0.999      126.345       68.976        0.298      338.287       10.833      856.558
05/05/2014  07:18:00       -2.406       33.825       51.053       15.225       31.311       17.305      231.793      980.372      299.447        0.263        0.076       33.911       17.681        0.272      338.513       11.216      856.592
05/05/2014  07:19:00       10.832      -11.389        2.095       14.152       23.452       21.038      200.281      549.977      442.592        0.072        0.060       15.718       19.507        1.540      338.486       11.171      856.596
05/05/2014  07:20:00        2.550      -24.330       10.840       31.311       24.894       16.430      980.402      619.702      269.933        0.129        0.094       24.464       20.207        0.682      338.533       11.248      856.593
05/05/2014  07:21:00       -7.556        2.507       24.536       28.641       26.782       17.813      820.321      717.284      317.319        0.126        0.093        7.961       17.932        5.074      338.587       11.340      856.585
05/05/2014  07:22:00      -10.084        6.465       14.162       20.126       14.477       14.670      405.051      209.597      215.216        0.059        0.041       11.978       13.836        1.334      338.622       11.399      856.577
05/05/2014  07:23:00     -112.325       25.562      -15.503       35.091       19.305        9.073     1231.387      372.675       82.320        0.760        0.084      115.197        6.121        0.003      338.269       10.806      856.550
05/05/2014  07:24:00     -174.028      -54.786      -11.484       70.611       43.656       31.472     4985.897     1905.886      990.488        2.065        0.394      182.448       20.156        0.012      338.289       10.838      856.557
05/05/2014  07:25:00     -229.496      -71.415       -0.478       72.736       70.660       36.827     5290.523     4992.777     1356.198        3.470        0.582      240.351       39.768        0.027      338.082       10.487      856.573
05/05/2014  07:26:00     -174.764       -4.447      -23.392       78.767       51.392       39.748     6204.241     2641.140     1579.920        2.077        0.521      174.821       39.030        0.050      338.072       10.472      856.568
05/05/2014  07:27:00     -118.003      -48.323        3.191       75.624       44.234       35.833     5718.945     1956.688     1284.007        1.261        0.448      127.514       40.072        0.099      338.125       10.564      856.557
05/05/2014  07:28:00     -105.595       32.446       -9.853       39.144       42.595       21.847     1532.224     1814.311      477.285        0.806        0.191      110.467       15.668        0.020      338.075       10.480      856.568
05/05/2014  07:29:00     -104.833        9.702      -12.000       47.268       40.077       20.488     2234.240     1606.131      419.767        0.774        0.213      105.281        4.006        0.001      338.159       10.621      856.581
05/05/2014  07:30:00      -96.479      -48.946        0.621       37.131       31.310       21.818     1378.733      980.296      476.030        0.727        0.142      108.184       16.731        0.024      338.237       10.753      856.568
05/05/2014  07:31:00      -62.781      -11.442        1.159       36.514       29.122       20.493     1333.301      848.082      419.979        0.334        0.130       63.815       19.740        0.096      338.323       10.895      856.516
05/05/2014  07:32:00     -101.547       46.848      -15.683       20.912       18.552       13.273      437.318      344.190      176.178        0.685        0.048      111.832        5.742        0.003      338.290       10.841      856.461
05/05/2014  07:33:00     -118.681       19.771       -8.578       36.125       21.685        9.532     1305.026      470.222       90.858        0.821        0.093      120.316        8.979        0.006      338.301       10.860      856.421
05/05/2014  07:34:00      -98.827      -22.568       -5.443       31.864       17.329       14.267     1015.286      300.306      203.544        0.591        0.076      101.371       15.398        0.023      338.313       10.878      856.414
05/05/2014  07:35:00     -101.391      -10.781       -7.194       26.815       20.563       14.377      719.050      422.833      206.693        0.590        0.067      101.963       12.306        0.015      338.387       11.003      856.428
05/05/2014  07:36:00      -67.538      -13.782        2.194       29.732       15.752       13.774      883.970      248.120      189.727        0.304        0.066       68.929       15.430        0.050      338.406       11.033      856.430
05/05/2014  07:37:00      -39.867      -38.233        1.770       15.053       13.887       11.007      226.594      192.847      121.146        0.180        0.027       55.237        7.284        0.017      338.486       11.171      856.436
05/05/2014  07:38:00      -25.562        0.603        3.332        7.312       11.636        8.622       53.467      135.398       74.339        0.046        0.013       25.569        5.517        0.047      338.602       11.366      856.436
05/05/2014  07:39:00      -35.965        8.103       -0.881        9.936        8.839        5.632       98.725       78.131       31.723        0.078        0.010       36.866        3.258        0.008      338.579       11.325      856.435
05/05/2014  07:40:00      -50.236       29.652      -11.726        6.707       11.064        5.845       44.981      122.415       34.169        0.187        0.010       58.334        5.002        0.007      338.606       11.372      856.427
05/05/2014  07:41:00       -5.067       49.533        7.655       18.670       24.766       17.434      348.576      613.374      303.940        0.190        0.063       49.791       14.015        0.079      338.859       11.796      856.388
05/05/2014  07:42:00       10.948       25.981        8.512       26.973       19.220       16.753      727.565      369.408      280.652        0.112        0.069       28.193       11.796        0.175      338.979       11.998      856.364
05/05/2014  07:43:00      -13.836       35.190        0.204       22.052       28.193       22.515      486.269      794.852      506.942        0.161        0.089       37.812       17.951        0.225      338.923       11.905      856.371
05/05/2014  07:44:00        4.709       25.907        5.253       42.569       21.269       15.918     1812.084      452.391      253.381        0.162        0.126       26.331       17.599        0.447      338.931       11.917      856.377
05/05/2014  07:45:00       19.279       85.738       -0.708       23.531       29.556       20.578      553.731      873.545      423.457        0.479        0.093       87.879       17.651        0.040      338.949       11.950      856.371
05/05/2014  07:46:00       -4.698       41.371      -15.002       17.273       34.805        7.143      298.371     1211.406       51.026        0.176        0.078       41.636        9.107        0.048      338.914       11.890      856.393
05/05/2014  07:47:00      -35.172       -6.012       -1.443       13.233       11.740        8.391      175.110      137.823       70.412        0.083        0.019       35.682        5.726        0.026      338.915       11.890      856.410
05/05/2014  07:48:00      -21.572        5.614        4.859       21.235       15.534       10.806      450.908      241.292      116.772        0.066        0.040       22.291       10.829        0.236      339.061       12.136      856.413
05/05/2014  07:49:00       -3.073       31.217        7.328       11.015       16.647       12.987      121.334      277.123      168.661        0.080        0.028       31.368        8.279        0.070      339.181       12.338      856.410
05/05/2014  07:50:00       50.719       54.574        6.676       30.805       18.335       18.668      948.966      336.190      348.497        0.361        0.082       74.503       15.817        0.045      339.037       12.096      856.406
05/05/2014  07:51:00       42.972       60.473        3.055       24.100       25.113       19.484      580.810      630.681      379.621        0.355        0.080       74.186       13.488        0.033      339.051       12.120      856.404
05/05/2014  07:52:00        2.477       55.559       -7.384       13.776       26.206       18.627      189.785      686.747      346.964        0.219        0.061       55.614       18.863        0.115      339.126       12.248      856.418
05/05/2014  07:53:00        2.488       33.827        6.463       17.278       20.735       18.472      298.532      429.925      341.211        0.113        0.053       33.919       14.839        0.191      339.295       12.531      856.444
05/05/2014  07:54:00      -17.588       20.094        7.092       17.236       17.416       12.496      297.065      303.321      156.143        0.076        0.038       26.704        5.648        0.045      339.289       12.521      856.470
05/05/2014  07:55:00        6.090       58.995       -7.988       11.464       12.310       14.013      131.429      151.544      196.363        0.203        0.024       59.309        8.344        0.020      339.201       12.372      856.473
05/05/2014  07:56:00        0.590       56.559       -3.247       12.585       12.544       15.177      158.388      157.342      230.333        0.188        0.027       56.562        8.811        0.024      339.270       12.487      856.461
05/05/2014  07:57:00      -16.314       27.218       -2.692       19.612       15.262       15.004      384.613      232.918      225.130        0.093        0.042       31.732        9.165        0.083      339.312       12.558      856.466
05/05/2014  07:58:00      -67.742      -10.008       -2.295       31.970       23.175       12.036     1022.052      537.093      144.875        0.320        0.085       68.478       12.254        0.032      339.150       12.287      856.490
05/05/2014  07:59:00     -110.610       13.660       -9.542       30.443       22.903       18.483      926.750      524.527      341.616        0.715        0.090      111.450       18.468        0.027      339.073       12.155      856.515
05/05/2014  08:00:00      -91.047       17.298       -9.436       27.028       12.995        7.899      730.501      168.874       62.401        0.482        0.048       92.676       11.025        0.014      339.102       12.205      856.521
05/05/2014  08:01:00      -15.276       49.747       -9.091       18.725       27.012       15.608      350.608      729.626      243.605        0.206        0.066       52.039       14.526        0.078      339.300       12.538      856.503
05/05/2014  08:02:00       10.849       88.477       -8.576       16.930       40.924       22.900      286.616     1674.755      524.430        0.525        0.124       89.139       25.986        0.085      339.358       12.636      856.462
05/05/2014  08:03:00       -3.155      150.792      -21.550       23.406       28.358       15.117      547.861      804.171      228.538        1.240        0.079      150.825       10.833        0.005      339.239       12.436      856.417
05/05/2014  08:04:00      -12.317      102.118        1.293       20.273       37.134       25.478      410.976     1378.939      649.105        0.651        0.122      102.858       24.341        0.056      339.585       13.020      856.416
05/05/2014  08:05:00      -13.420       79.457        4.413       29.540       38.892       22.349      872.607     1512.622      499.458        0.470        0.144       80.583       20.082        0.062      339.603       13.049      856.461
05/05/2014  08:06:00      -65.550       14.245       -7.778       30.919       44.781       18.627      955.961     2005.321      346.968        0.393        0.165       67.080       15.508        0.053      339.449       12.789      856.503
05/05/2014  08:07:00      -94.519       -0.014      -11.983       25.317       25.072       19.067      640.970      628.624      363.553        0.535        0.082       94.519       16.379        0.030      339.325       12.580      856.504
05/05/2014  08:08:00      -52.602       15.212       -4.172       43.615       17.549       17.005     1902.226      307.977      289.175        0.276        0.125       54.758       23.121        0.178      339.371       12.660      856.452
05/05/2014  08:09:00        4.840       86.849       -5.032       23.802       58.668       25.263      566.549     3441.977      638.238        0.612        0.232       86.983       33.739        0.150      339.613       13.066      856.399
05/05/2014  08:10:00       -1.335      105.749       -7.811       19.027       30.009       20.631      362.019      900.526      425.650        0.647        0.084      105.757       16.177        0.023      339.533       12.932      856.381
05/05/2014  08:11:00        0.670       14.496       18.107       25.026       28.931       17.993      626.298      836.992      323.749        0.116        0.089       14.511       10.978        0.572      339.928       13.599      856.377
05/05/2014  08:12:00        8.941       67.595        5.636       20.992       49.976       26.163      440.648     2497.619      684.484        0.415        0.181       68.183       25.657        0.142      339.756       13.308      856.382
05/05/2014  08:13:00       -1.505      120.738       -7.899       20.742       35.041       23.737      430.249     1227.852      563.464        0.843        0.111      120.748       20.787        0.030      339.556       12.971      856.387
05/05/2014  08:14:00      -16.064       67.869        3.249       32.584       52.665       25.296     1061.706     2773.641      639.874        0.467        0.224       69.744       28.586        0.168      339.624       13.086      856.377
05/05/2014  08:15:00      -10.438      121.856       -8.050       24.859       63.467       25.729      617.975     4028.029      661.990        1.016        0.265      122.302       30.992        0.064      339.556       12.970      856.379
05/05/2014  08:16:00        2.331      120.370       -4.380       30.068       39.972       30.847      904.087     1597.793      951.562        0.898        0.173      120.393       30.200        0.063      339.603       13.049      856.375
05/05/2014  08:17:00       -2.655      118.728       -9.119       39.607       56.531       30.236     1568.732     3195.782      914.226        0.993        0.284      118.758       32.267        0.074      339.725       13.254      856.361
05/05/2014  08:18:00       55.185      158.925      -17.896       51.098       55.245       41.091     2610.970     3051.979     1688.470        1.799        0.368      168.233       39.401        0.055      339.654       13.134      856.350
05/05/2014  08:19:00       67.397       98.290       -4.266       47.693       46.491       36.686     2274.631     2161.404     1345.853        1.000        0.289      119.178       34.086        0.082      339.616       13.071      856.343
05/05/2014  08:20:00       80.882       76.210       14.422       64.570       46.084       43.237     4169.312     2123.728     1869.409        1.036        0.408      111.130       30.669        0.076      339.630       13.093      856.329
05/05/2014  08:21:00      -96.087       19.375      -22.563       66.059       37.277       25.169     4363.801     1389.565      633.483        0.825        0.319       98.021       23.414        0.057      339.566       12.986      856.333
05/05/2014  08:22:00      -22.160       -2.230        7.936       46.573       24.087       24.227     2169.048      580.166      586.947        0.195        0.167       22.272       23.624        1.125      339.707       13.224      856.337
05/05/2014  08:23:00      -52.608      135.495       -2.324       38.755       67.081       30.558     1501.952     4499.849      933.805        1.403        0.347      145.349       34.000        0.055      339.819       13.412      856.319
05/05/2014  08:24:00      -22.829      189.057      -10.295       27.544       58.063       32.018      758.662     3371.364     1025.133        2.076        0.258      190.430       27.639        0.021      339.766       13.323      856.303
05/05/2014  08:25:00      -18.687      138.761       -0.994       29.993       49.914       29.643      899.585     2491.369      878.696        1.194        0.213      140.014       26.094        0.035      339.882       13.519      856.323
05/05/2014  08:26:00       -2.306       92.707        2.168       24.082       41.527       22.968      579.928     1724.458      527.525        0.572        0.142       92.735       22.983        0.061      339.895       13.542      856.344
05/05/2014  08:27:00       22.561       83.869       -8.767       32.764       40.317       24.594     1073.451     1625.437      604.884        0.546        0.165       86.851       24.449        0.079      339.850       13.467      856.330
05/05/2014  08:28:00      -12.436      104.479      -10.541       42.770       59.360       29.804     1829.313     3523.608      888.284        0.871        0.312      105.217       33.501        0.101      339.750       13.297      856.306
05/05/2014  08:29:00      -34.435       49.873       -7.851       33.228       46.152       37.732     1104.085     2130.020     1423.740        0.420        0.233       60.606       26.367        0.189      339.811       13.401      856.284
05/05/2014  08:30:00       23.524       54.291       -7.411       27.969       18.038       23.810      782.253      325.352      566.936        0.261        0.084       59.168       13.736        0.054      339.768       13.329      856.253
05/05/2014  08:31:00       26.979       30.178        1.782       32.085       21.053       23.268     1029.472      443.221      541.388        0.183        0.101       40.479       12.441        0.094      339.747       13.292      856.252
05/05/2014  08:32:00       24.748       17.139       32.573       27.953       37.539       37.027      781.368     1409.173     1371.035        0.276        0.178       30.103       27.825        0.854      339.838       13.446      856.254
05/05/2014  08:33:00      117.716       80.726       21.299       28.419       36.335       35.561      807.647     1320.244     1264.588        1.211        0.170      142.737       21.963        0.024      339.562       12.980      856.195
05/05/2014  08:34:00       42.273       33.331        6.789       35.043       39.487       36.589     1227.979     1559.200     1338.732        0.353        0.206       53.833       21.692        0.162      339.751       13.300      856.158
05/05/2014  08:35:00       36.020       46.173       -0.351       53.750       38.115       38.480     2889.032     1452.771     1480.682        0.462        0.291       58.561       29.148        0.248      339.958       13.649      856.141
05/05/2014  08:36:00       25.729       35.059       10.334       46.479       61.996       38.408     2160.331     3843.513     1475.145        0.474        0.374       43.487       30.451        0.490      339.916       13.578      856.133
05/05/2014  08:37:00      -17.116      156.339      -14.166       54.817       89.067       37.737     3004.952     7932.946     1424.090        1.865        0.618      157.274       45.334        0.083      339.760       13.313      856.138
05/05/2014  08:38:00       10.960      133.507      -14.048       48.761       57.132       34.085     2377.611     3264.026     1161.814        1.247        0.340      133.956       30.407        0.052      339.823       13.419      856.129
05/05/2014  08:39:00       35.912       77.900      -14.580       40.466       63.740       35.355     1637.525     4062.803     1249.956        0.726        0.348       85.779       38.923        0.206      339.836       13.443      856.127
05/05/2014  08:40:00       56.253       38.091        6.137       36.759       25.478       22.934     1351.224      649.135      525.952        0.359        0.126       67.937       21.396        0.099      339.942       13.623      856.113
05/05/2014  08:41:00        3.688      109.343       -4.803       26.097       32.416       21.534      681.064     1050.813      463.719        0.709        0.110      109.405       11.518        0.011      339.734       13.271      856.108
05/05/2014  08:42:00        1.495       92.384        2.681       42.743       37.690       22.908     1827.005     1420.570      524.776        0.616        0.189       92.396       19.911        0.046      339.812       13.402      856.132
05/05/2014  08:43:00       66.212       51.819       10.318       38.394       31.350       33.857     1474.109      982.799     1146.287        0.539        0.180       84.079       22.085        0.069      339.910       13.567      856.147
05/05/2014  08:44:00       74.416       76.604        4.753       55.706       49.333       29.663     3103.120     2433.721      879.881        0.892        0.321      106.798       27.426        0.066      339.874       13.506      856.150
05/05/2014  08:45:00      131.698       60.285        8.525       46.274       50.912       30.860     2141.326     2592.078      952.357        1.337        0.284      144.840       25.607        0.031      339.867       13.494      856.149
05/05/2014  08:46:00       97.655       72.670       -1.936       53.168       48.811       39.391     2826.800     2382.493     1551.625        1.079        0.338      121.727       28.168        0.054      339.869       13.499      856.149
05/05/2014  08:47:00      147.545       79.121       12.920       48.174       30.557       29.957     2320.776      933.708      897.427        1.617        0.208      167.421       14.197        0.007      339.799       13.378      856.166
05/05/2014  08:48:00      103.764       75.326       15.849       35.252       25.537       32.418     1242.715      652.141     1050.930        0.982        0.147      128.222       19.489        0.023      339.746       13.289      856.162
05/05/2014  08:49:00      133.595       77.807       10.621       38.477       32.492       31.014     1480.503     1055.725      961.876        1.376        0.175      154.601       24.752        0.026      339.809       13.397      856.148
05/05/2014  08:50:00      137.901      104.668       31.545       62.329       28.145       35.937     3884.907      792.159     1291.449        1.847        0.298      173.125       26.582        0.024      339.887       13.527      856.143
05/05/2014  08:51:00       56.807       52.258       60.916       49.334       49.362       31.323     2433.863     2436.609      981.142        0.776        0.293       77.188       26.774        0.120      339.977       13.681      856.125
05/05/2014  08:52:00       91.464       78.408       17.825       47.372       42.686       34.855     2244.136     1822.117     1214.847        1.006        0.264      120.472        5.693        0.002      339.864       13.490      856.129
05/05/2014  08:53:00      108.071       62.332       20.919       25.642       21.746       22.703      657.532      472.908      515.407        0.882        0.082      124.759       14.377        0.013      339.802       13.386      856.130
05/05/2014  08:54:00       34.283       73.552       79.939       54.815       56.814       39.443     3004.696     3227.780     1555.716        1.038        0.389       81.149       35.976        0.197      339.877       13.511      856.141
05/05/2014  08:55:00       64.966       32.413       85.543       65.727       75.041       45.008     4320.101     5631.198     2025.699        1.228        0.599       72.603       49.776        0.470      339.688       13.192      856.144
05/05/2014  08:56:00       55.872       45.147       44.187       31.099       46.191       34.018      967.177     2133.644     1157.200        0.568        0.213       71.832       20.352        0.080      339.790       13.365      856.124
05/05/2014  08:57:00      138.392       68.105       15.637       42.397       41.571       31.699     1797.498     1728.142     1004.843        1.428        0.227      154.242       19.602        0.016      339.882       13.519      856.114
05/05/2014  08:58:00       95.230       82.094       49.048       72.471       51.434       47.562     5252.106     2645.408     2262.126        1.418        0.508      125.730       37.506        0.089      339.795       13.373      856.118
05/05/2014  08:59:00      164.878       94.581       16.442       49.146       52.954       40.291     2415.333     2804.147     1623.387        2.162        0.342      190.080       17.931        0.009      339.880       13.514      856.125
05/05/2014  09:00:00      148.549      106.297       12.067       50.336       47.003       34.236     2533.665     2209.267     1172.126        1.971        0.296      182.663       22.455        0.015      339.843       13.453      856.118
05/05/2014  09:01:00      152.605      100.850       21.466       61.409       63.407       46.619     3771.009     4020.457     2173.365        2.194        0.498      182.918       30.559        0.028      339.877       13.510      856.113
05/05/2014  09:02:00      131.165       94.771       23.774       78.959       69.743       45.074     6234.468     4864.130     2031.627        1.994        0.657      161.820       26.609        0.027      339.836       13.441      856.126
05/05/2014  09:03:00      118.177       75.247       21.008       78.762       78.504       54.176     6203.464     6162.804     2935.060        1.768        0.765      140.100       43.116        0.095      339.886       13.525      856.151
05/05/2014  09:04:00      143.615      107.655       54.273       79.745       55.067       59.068     6359.310     3032.401     3489.074        2.402        0.644      179.485       35.143        0.038      339.855       13.471      856.178
05/05/2014  09:05:00       77.744       48.963       40.625       87.003       45.667       37.940     7569.586     2085.468     1439.479        1.059        0.555       91.878       31.554        0.118      339.984       13.691      856.173
05/05/2014  09:06:00       86.297       82.866       14.215       66.006       43.989       47.435     4356.774     1935.053     2250.102        1.153        0.427      119.641       15.147        0.016      340.063       13.825      856.140
05/05/2014  09:07:00      132.981      106.381       84.677       88.190       60.529       57.023     7777.525     3663.771     3251.665        2.543        0.735      170.296       40.433        0.056      340.033       13.771      856.106
05/05/2014  09:08:00      117.297       87.530       21.281       87.583       54.697       51.002     7670.757     2991.796     2601.222        1.757        0.663      146.356       44.505        0.092      339.919       13.582      856.117
05/05/2014  09:09:00      121.352       90.387       27.608       42.985       37.151       46.451     1847.716     1380.188     2157.685        1.452        0.269      151.315       16.823        0.012      340.019       13.751      856.123
05/05/2014  09:10:00       86.243       74.386       45.162       65.098       55.041       41.055     4237.701     3029.552     1685.489        1.198        0.448      113.891       35.847        0.099      340.086       13.863      856.098
05/05/2014  09:11:00      179.088      108.597        6.369       90.293       59.224       41.045     8152.764     3507.524     1684.703        2.862        0.667      209.441       14.011        0.004      339.890       13.530      856.088
05/05/2014  09:12:00       40.448       97.514        1.072       42.362       56.705       38.481     1794.517     3215.447     1480.790        0.882        0.325      105.570       32.835        0.097      339.992       13.705      856.091
05/05/2014  09:13:00       56.592       41.955       13.441       34.269       32.576       35.044     1174.359     1061.220     1228.075        0.430        0.173       70.448       17.144        0.059      339.917       13.579      856.131
05/05/2014  09:14:00       82.386       43.434       -1.474       46.715       42.227       38.925     2182.288     1783.155     1515.190        0.708        0.274       93.134       23.244        0.062      340.056       13.814      856.154
05/05/2014  09:15:00      178.648      112.896       25.957      106.392       66.762       45.302    11319.345     4457.223     2052.250        3.158        0.891      211.331       22.318        0.011      340.053       13.805      856.128
05/05/2014  09:16:00      169.796      141.836       76.690      110.530       58.099       75.054    12216.785     3375.523     5633.101        3.802        1.061      221.242       72.799        0.108      340.079       13.849      856.064
05/05/2014  09:17:00       76.975       27.428       67.354       97.845       99.601       61.117     9573.627     9920.266     3735.335        1.722        1.161       81.716       57.795        0.500      340.041       13.786      856.021
05/05/2014  09:18:00      183.438      115.706       45.456       84.177       58.312       73.354     7085.761     3400.291     5380.762        3.248        0.793      216.881       55.441        0.065      340.145       13.962      856.023
05/05/2014  09:19:00      185.557       94.993       17.223       73.461       56.894       49.972     5396.539     3236.934     2497.250        2.744        0.557      208.459       18.899        0.008      339.960       13.649      856.028
05/05/2014  09:20:00      119.443       44.217       41.174       82.326       59.917       47.286     6777.575     3590.085     2235.933        1.526        0.630      127.364       39.835        0.098      340.049       13.801      856.031
05/05/2014  09:21:00       99.203       64.776       18.667       79.990       67.022       38.931     6398.350     4491.928     1515.589        1.339        0.620      118.478       27.307        0.053      340.221       14.089      856.030
05/05/2014  09:22:00      146.690       63.809        8.878      101.874       86.190       55.189    10378.220     7428.659     3045.868        2.326        1.043      159.967       41.959        0.069      340.206       14.066      856.027
05/05/2014  09:23:00      112.449       81.129       17.278       59.036       37.231       38.615     3485.263     1386.144     1491.149        1.294        0.318      138.661       14.503        0.011      340.410       14.411      856.026
05/05/2014  09:24:00       52.343      140.094      -20.195       57.179      107.315       38.602     3269.491    11516.490     1490.116        1.952        0.814      149.553       47.889        0.103      340.425       14.434      856.052
05/05/2014  09:25:00       75.224      131.703       -6.563       67.779       87.481       42.396     4594.016     7652.857     1797.399        1.854        0.702      151.672       34.738        0.052      340.417       14.422      856.093
05/05/2014  09:26:00       63.745       96.509       -2.663       51.771       61.801       43.158     2680.238     3819.425     1862.588        1.087        0.418      115.661       40.422        0.122      340.335       14.284      856.122
05/05/2014  09:27:00      -27.712      114.360        4.268       47.024       88.230       36.647     2211.296     7784.581     1342.990        1.260        0.567      117.670       46.351        0.155      340.285       14.199      856.121
05/05/2014  09:28:00      -22.657       82.460       -7.539       34.251       55.549       28.556     1173.133     3085.675      815.442        0.622        0.254       85.516       30.626        0.128      340.297       14.220      856.096
05/05/2014  09:29:00      112.252       95.170       30.213      107.128       54.862       52.442    11476.344     3009.852     2750.143        1.990        0.862      147.166       37.249        0.064      340.548       14.643      856.068
05/05/2014  09:30:00       65.689      160.212        9.297       75.654      113.968       62.556     5723.506    12988.704     3913.270        2.634        1.131      173.155       71.534        0.171      340.402       14.395      856.058
05/05/2014  09:31:00       -1.284      104.464       -3.584       50.847       90.854       40.376     2585.429     8254.493     1630.205        1.170        0.624      104.472       50.630        0.235      340.311       14.244      856.087
05/05/2014  09:32:00       37.465       27.660        7.886       64.121       33.088       29.081     4111.475     1094.825      845.691        0.414        0.303       46.569       26.169        0.316      340.312       14.245      856.095
05/05/2014  09:33:00       44.185       21.911       41.315       32.882       45.242       26.736     1081.241     2046.807      714.830        0.399        0.192       49.320       24.584        0.248      340.162       13.992      856.082
05/05/2014  09:34:00       30.460      -53.156       -1.737       36.257       22.282       27.294     1314.568      496.476      744.952        0.316        0.128       61.265       17.452        0.081      339.748       13.295      856.077
05/05/2014  09:35:00       -5.366      -28.949       11.169       36.072       40.604       37.749     1301.166     1648.688     1425.018        0.268        0.219       29.442       28.119        0.912      340.268       14.173      856.094
05/05/2014  09:36:00      -13.480      -25.731       -5.307       58.405       25.357       19.266     3411.098      642.995      371.192        0.265        0.221       29.048       19.484        0.450      340.111       13.905      856.080
05/05/2014  09:37:00      -12.459       13.666       24.737       32.340       47.391       40.947     1045.866     2245.878     1676.645        0.296        0.248       18.493       37.233        4.054      340.443       14.469      856.047
05/05/2014  09:38:00       49.243       92.026      112.787       60.660       50.624       34.095     3679.629     2562.751     1162.485        1.551        0.370      104.373       21.721        0.043      340.347       14.305      856.015
05/05/2014  09:39:00       20.950       61.484       76.587       35.731       64.838       48.472     1276.736     4204.003     2349.490        0.896        0.392       64.955       47.904        0.544      340.315       14.251      856.002
05/05/2014  09:40:00      -23.684       52.870        3.566       57.766       42.432       29.063     3336.918     1800.504      844.685        0.467        0.299       57.932       27.625        0.227      340.435       14.454      856.008
05/05/2014  09:41:00       -4.363       37.026       -9.118       52.197       27.106       32.870     2724.545      734.729     1080.416        0.301        0.227       37.283       21.020        0.318      340.188       14.036      856.010
05/05/2014  09:42:00      -28.900       26.472      -30.312       51.490       63.760       22.566     2651.235     4065.375      509.239        0.484        0.361       39.192       21.222        0.293      340.061       13.822      856.009
05/05/2014  09:43:00      -53.789       47.193       -6.013       42.262       52.502       28.435     1786.108     2756.444      808.530        0.525        0.268       71.557       17.495        0.060      340.197       14.051      856.000
05/05/2014  09:44:00        7.296       44.321       10.917       21.234       36.717       29.335      450.868     1348.140      860.549        0.240        0.133       44.918       25.379        0.319      340.680       14.869      855.984
05/05/2014  09:45:00        3.223       21.643       11.264       27.782       33.960       27.900      771.857     1153.295      778.403        0.165        0.135       21.882       20.071        0.841      340.699       14.900      855.979
05/05/2014  09:46:00       29.021       54.383        4.232       55.992       34.745       38.841     3135.111     1207.243     1508.635        0.483        0.293       61.642       30.427        0.244      340.303       14.230      855.958
05/05/2014  09:47:00      -29.044       19.129      -16.980       17.585       20.691       19.236      309.225      428.126      370.006        0.130        0.055       34.777       17.279        0.247      340.294       14.215      855.926
05/05/2014  09:48:00      -26.069       14.643        6.338       20.899       33.325       17.189      436.771     1110.550      295.447        0.139        0.092       29.900       17.904        0.359      340.706       14.911      855.904
05/05/2014  09:49:00      -81.019       41.046       -8.621       66.744       49.145       33.270     4454.806     2415.218     1106.913        0.815        0.399       90.823       36.495        0.161      340.611       14.750      855.899
05/05/2014  09:50:00      -60.525       93.767      -11.380       50.265       75.962       36.236     2526.562     5770.159     1313.076        1.110        0.480      111.604       31.988        0.082      340.505       14.572      855.898
05/05/2014  09:51:00      -37.199      170.865      -13.520       37.506       64.604       33.835     1406.706     4173.704     1144.838        1.874        0.336      174.867       30.855        0.031      340.668       14.846      855.904
05/05/2014  09:52:00      -96.456       58.826      -12.329       43.025       56.694       33.669     1851.151     3214.247     1133.626        0.956        0.310      112.979       25.529        0.051      340.550       14.649      855.905
05/05/2014  09:53:00     -100.515      104.940      -30.010       45.283       50.799       26.693     2050.510     2580.495      712.519        1.368        0.267      145.313       26.322        0.033      340.439       14.459      855.903
05/05/2014  09:54:00       11.465      108.939       10.926       47.339       56.934       41.365     2240.941     3241.486     1711.058        0.965        0.360      109.540       40.281        0.135      340.862       15.176      855.905
05/05/2014  09:55:00      -47.094      141.723      -13.576       52.618       65.755       31.235     2768.677     4323.667      975.650        1.528        0.403      149.343       32.696        0.048      340.640       14.800      855.910
05/05/2014  09:56:00      -37.983      219.478      -21.512       28.359       45.622       27.175      804.257     2081.324      738.490        2.685        0.181      222.740       23.314        0.011      340.476       14.522      855.901
05/05/2014  09:57:00      -32.393      251.836      -30.108       49.618       55.659       32.721     2461.964     3097.947     1070.677        3.600        0.332      253.911       32.839        0.017      340.405       14.398      855.900
05/05/2014  09:58:00       26.149      154.938       -9.191       52.774       83.279       43.170     2785.104     6935.460     1863.662        1.818        0.579      157.129       44.901        0.082      340.628       14.779      855.912
05/05/2014  09:59:00      102.952       96.020       13.852       54.461       53.913       46.348     2965.966     2906.564     2148.117        1.401        0.401      140.780       33.771        0.058      340.504       14.569      855.911
05/05/2014  10:00:00       84.413       87.887        4.935       61.533       60.978       36.426     3786.356     3718.342     1326.870        1.185        0.442      121.859       31.122        0.065      340.577       14.693      855.911
05/05/2014  10:01:00       32.760      156.205       -8.120       60.549       79.308       48.902     3666.179     6289.682     2391.380        1.894        0.617      159.604       50.114        0.099      340.591       14.717      855.908
05/05/2014  10:02:00       78.766       92.914       16.767       91.937       70.818       56.219     8452.327     5015.249     3160.595        1.587        0.831      121.808       45.838        0.142      340.748       14.981      855.883
05/05/2014  10:03:00       74.578      166.585       -9.689       66.573       76.793       51.478     4431.968     5897.126     2649.950        2.319        0.649      182.517       45.065        0.061      340.604       14.737      855.866
05/05/2014  10:04:00       50.983      218.793      -25.298       63.198       98.458       52.744     3993.939     9693.961     2781.906        3.379        0.823      224.654       49.146        0.048      340.594       14.720      855.862
05/05/2014  10:05:00       24.553       61.183       -6.865       39.424       49.630       30.175     1554.224     2463.099      910.502        0.466        0.246       65.926       31.108        0.223      340.720       14.936      855.845
05/05/2014  10:06:00       28.390       59.577       -1.355       46.523       40.525       36.035     2164.396     1642.292     1298.496        0.473        0.255       65.995       24.887        0.142      340.802       15.074      855.835
05/05/2014  10:07:00       16.082       12.612       23.408       64.566       26.315       30.185     4168.748      692.465      911.149        0.337        0.289       20.438       28.760        1.980      340.720       14.936      855.824
05/05/2014  10:08:00      102.234       67.073       26.644       40.114       24.816       29.444     1609.097      615.810      866.976        0.938        0.155      122.273       21.207        0.030      340.504       14.569      855.843
05/05/2014  10:09:00      -12.002       58.050       -6.737       60.352       57.898       28.697     3642.342     3352.202      823.500        0.569        0.391       59.278       35.098        0.351      340.695       14.892      855.861
05/05/2014  10:10:00      -26.046      132.779       -2.470       34.569       64.153       35.198     1195.000     4115.604     1238.889        1.243        0.327      135.310       35.411        0.068      340.810       15.087      855.874
05/05/2014  10:11:00       25.482      137.669       -6.217       39.540       60.855       37.556     1563.442     3703.364     1410.448        1.316        0.334      140.007       29.766        0.045      340.801       15.072      855.870
05/05/2014  10:12:00       23.937      111.573       -9.650       44.654       60.021       29.682     1994.014     3602.543      881.040        0.979        0.324      114.111       29.688        0.068      340.854       15.161      855.840
05/05/2014  10:13:00       53.285       90.021        8.327       50.167       57.954       36.593     2516.746     3358.670     1339.078        0.911        0.361      104.609       31.241        0.089      340.926       15.284      855.801
05/05/2014  10:14:00      128.876       92.369        2.620       64.719       46.847       36.030     4188.525     2194.626     1298.167        1.641        0.384      158.559       13.705        0.007      340.820       15.104      855.825
05/05/2014  10:15:00       90.840       58.737       30.374       67.552       51.825       43.778     4563.322     2685.795     1916.514        1.089        0.458      108.175       27.229        0.063      340.803       15.077      855.903
05/05/2014  10:16:00       71.259      160.125      -10.942       49.756       67.563       48.939     2475.668     4564.799     2395.068        2.013        0.472      175.265       44.351        0.064      340.636       14.791      855.941
05/05/2014  10:17:00       48.850       18.879       24.374       57.287       40.950       23.237     3281.776     1676.933      539.941        0.442        0.275       52.371       19.044        0.132      340.745       14.977      855.966
05/05/2014  10:18:00      -48.110      135.021      -12.123       43.416       54.360       33.674     1884.934     2955.038     1133.932        1.333        0.299      143.336       20.630        0.021      340.530       14.612      855.923
05/05/2014  10:19:00      -18.254       96.170      -12.408       44.989       55.116       34.697     2024.021     3037.803     1203.901        0.800        0.313       97.888       37.270        0.145      340.873       15.193      855.817
05/05/2014  10:20:00       20.549      121.861       -8.196       49.334       63.389       31.753     2433.831     4018.121     1008.229        1.140        0.373      123.581       32.511        0.069      340.821       15.106      855.812
05/05/2014  10:21:00       24.986       67.383       19.567       24.689       40.784       33.258      609.551     1663.357     1106.100        0.446        0.169       71.867       34.909        0.236      340.969       15.356      855.868
05/05/2014  10:22:00       31.112       20.811       21.112       28.571       21.131       15.908      816.308      446.514      253.050        0.168        0.076       37.431        8.513        0.052      340.967       15.354      855.871
05/05/2014  10:23:00       40.171       50.572       26.843       18.297       33.271       28.054      334.789     1106.936      787.022        0.356        0.111       64.585       19.832        0.094      340.957       15.337      855.875
05/05/2014  10:24:00       47.087       45.881        8.734       24.415       27.270       28.021      596.085      743.676      785.197        0.326        0.106       65.744       13.975        0.045      340.981       15.377      855.883
05/05/2014  10:25:00      -29.716      -18.170       -0.887       40.348       23.989       14.623     1627.956      575.489      213.820        0.182        0.121       34.831       11.712        0.113      341.022       15.447      855.895
05/05/2014  10:26:00        2.071      -17.270       32.235       28.974       50.732       28.004      839.506     2573.751      784.221        0.277        0.210       17.394       18.235        1.099      341.424       16.128      855.912
05/05/2014  10:27:00       65.059      122.683      157.241       79.668      171.247      130.950     6346.916    29325.513    17147.937        4.840        2.641      138.866      141.132        1.033      340.833       15.124      855.913
05/05/2014  10:28:00       72.849      -41.210       68.912      105.532      132.007       93.495    11136.996    17425.877     8741.386        2.452        1.865       83.698      100.153        1.432      341.157       15.673      855.904
05/05/2014  10:29:00       74.610      -46.693       38.194       77.044      111.244       76.401     5935.808    12375.197     5837.156        1.667        1.207       88.016       84.133        0.914      341.034       15.466      855.876
05/05/2014  10:30:00       31.267       24.308       13.192       45.805       66.754       38.882     2098.143     4456.041     1511.782        0.490        0.403       39.605       24.269        0.375      341.169       15.694      855.818
05/05/2014  10:31:00      104.172     -102.774       17.682       97.711      103.182       67.186     9547.374    10646.628     4513.911        2.321        1.235      146.336       55.049        0.142      341.066       15.520      855.824
05/05/2014  10:32:00     -141.392     -174.246       -6.536      150.291      119.840       66.122    22587.450    14361.720     4372.099        4.585        2.066      224.396       54.099        0.058      341.215       15.770      855.835
05/05/2014  10:33:00      -66.043      -43.404       -0.219       53.192       77.770       44.539     2829.421     6048.185     1983.717        0.855        0.543       79.029       30.407        0.148      341.319       15.949      855.852
05/05/2014  10:34:00       20.758      -89.959       23.908       74.000      104.732       58.207     5475.955    10968.858     3388.072        1.446        0.992       92.323       62.635        0.460      341.190       15.730      855.821
05/05/2014  10:35:00       10.485      -18.855       58.586       35.088       98.501       39.378     1231.200     9702.438     1550.633        0.819        0.624       21.574       53.100        6.058      341.319       15.949      855.806
05/05/2014  10:36:00       -3.880      -44.665       12.159       42.096       40.432       28.562     1772.091     1634.766      815.773        0.319        0.211       44.834       16.680        0.138      341.044       15.484      855.779
05/05/2014  10:37:00        9.816      -27.130       18.824       36.330       45.110       34.470     1319.903     2034.887     1188.205        0.286        0.227       28.851       28.660        0.987      341.141       15.648      855.764
05/05/2014  10:38:00        2.336      -63.889      -10.700       75.719       47.547       41.043     5733.306     2260.710     1684.516        0.694        0.484       63.932       37.100        0.337      341.276       15.877      855.778
05/05/2014  10:39:00     -118.787     -167.757       17.599      121.618      109.385       51.759    14790.937    11964.976     2678.960        3.599        1.472      205.555       50.662        0.061      341.256       15.840      855.782
05/05/2014  10:40:00     -107.242     -159.357       -0.817       91.688       84.349       48.641     8406.705     7114.709     2365.991        2.739        0.894      192.082       42.445        0.049      341.356       16.009      855.773
05/05/2014  10:41:00     -203.378     -177.736      -11.591      115.267      100.336       50.938    13286.531    10067.277     2594.709        4.951        1.297      270.098       63.123        0.055      341.242       15.815      855.777
05/05/2014  10:42:00     -148.900      -88.309       15.888      156.050      114.186       52.198    24351.736    13038.513     2724.637        3.516        2.006      173.117       67.178        0.151      341.357       16.011      855.766
05/05/2014  10:43:00     -233.969     -111.118      -16.106       92.798       60.233       41.985     8611.383     3627.966     1762.732        4.067        0.700      259.015       43.683        0.028      341.088       15.554      855.759
05/05/2014  10:44:00     -164.343     -121.277       -5.091       93.429       55.280       34.688     8729.029     3055.867     1203.273        2.736        0.649      204.247       44.829        0.048      341.186       15.721      855.742
05/05/2014  10:45:00     -199.550     -107.608       -5.914      115.771      108.780       51.763    13403.013    11833.093     2679.451        3.967        1.396      226.716       50.846        0.050      341.109       15.592      855.724
05/05/2014  10:46:00     -138.264       33.624       -3.774       96.439       95.441       51.832     9300.413     9108.960     2686.568        2.067        1.055      142.294       52.200        0.135      341.263       15.853      855.687
05/05/2014  10:47:00     -159.290       75.410       14.303       91.075      168.189       77.611     8294.712    28287.580     6023.432        3.693        2.130      176.238       65.592        0.139      341.383       16.056      855.659
05/05/2014  10:48:00     -195.863     -116.955       -2.028      101.903       83.914       44.092    10384.285     7041.633     1944.098        3.570        0.969      228.125       37.736        0.027      341.235       15.804      855.685
05/05/2014  10:49:00     -191.114       19.238       -7.399       62.626       60.409       36.986     3921.971     3649.306     1367.945        2.294        0.447      192.080       33.172        0.030      341.162       15.680      855.686
05/05/2014  10:50:00     -126.106      -56.043       -3.936       75.040       41.203       37.132     5631.032     1697.696     1378.790        1.388        0.435      137.998       41.289        0.090      341.407       16.098      855.699
05/05/2014  10:51:00      -88.805      -11.178       15.352       70.632       61.401       32.048     4988.853     3770.073     1027.048        0.901        0.489       89.506       34.567        0.149      341.729       16.644      855.667
05/05/2014  10:52:00      -42.109      -42.732       19.815       61.864       52.918       32.388     3827.173     2800.333     1048.982        0.583        0.384       59.993       34.891        0.338      341.899       16.933      855.649
05/05/2014  10:53:00     -121.288      -38.503        8.451       82.972       53.509       35.539     6884.355     2863.210     1263.037        1.364        0.551      127.252       29.794        0.055      341.648       16.506      855.645
05/05/2014  10:54:00     -165.329      -64.279       -4.714      106.652       99.903       48.357    11374.743     9980.670     2338.420        2.759        1.185      177.385       55.953        0.099      341.717       16.621      855.667
05/05/2014  10:55:00      -10.461      -28.335       17.155       57.388       55.722       33.059     3293.435     3104.966     1092.922        0.435        0.375       30.204       26.173        0.751      341.900       16.935      855.688
05/05/2014  10:56:00       -9.683      -82.154       14.101       49.878       77.817       33.057     2487.767     6055.422     1092.738        0.834        0.482       82.722       29.010        0.123      341.618       16.456      855.687
05/05/2014  10:57:00      -64.874     -238.497        5.487      106.723      116.445       44.121    11389.800    13559.463     1946.683        4.400        1.345      247.163       39.867        0.026      341.384       16.056      855.709
05/05/2014  10:58:00     -272.048     -168.220      -10.110      119.086      109.062       63.574    14181.360    11894.452     4041.633        6.626        1.506      319.857       48.388        0.023      341.440       16.150      855.652
05/05/2014  10:59:00     -102.973      -45.835       -1.600      100.084      108.431       56.678    10016.717    11757.261     3212.447        1.884        1.249      112.713       49.513        0.193      342.021       17.139      855.628
05/05/2014  11:00:00       31.792     -180.183      -30.897      105.595      102.823       58.517    11150.362    10572.618     3424.235        2.978        1.257      182.966       54.035        0.087      341.781       16.731      855.616
05/05/2014  11:01:00       81.941     -186.097      -24.641      124.067      108.707       68.394    15392.738    11817.226     4677.673        3.691        1.594      203.338       49.887        0.060      341.734       16.650      855.643
05/05/2014  11:02:00       -8.614      -58.186       13.127       83.644       79.324       63.545     6996.354     6292.370     4037.906        1.048        0.866       58.820       59.428        1.021      341.684       16.567      855.665
05/05/2014  11:03:00      -33.416      -26.779       29.546       57.793       57.591       55.507     3340.022     3316.720     3081.032        0.622        0.487       42.822       44.323        1.071      341.751       16.682      855.652
05/05/2014  11:04:00     -123.068       -4.226      -17.453       44.075       37.817       32.875     1942.629     1430.098     1080.738        0.996        0.223      123.140       22.711        0.034      341.654       16.517      855.676
05/05/2014  11:05:00     -223.308      -47.614      -13.061       87.481       60.893       37.473     7652.933     3707.979     1404.227        3.253        0.638      228.327       42.850        0.035      341.578       16.384      855.678
05/05/2014  11:06:00     -144.802       39.981      -19.292      104.461       86.155       50.258    10912.131     7422.722     2525.853        2.190        1.043      150.221       43.536        0.084      341.517       16.282      855.686
05/05/2014  11:07:00       15.920       35.490       18.090       35.506       41.939       37.302     1260.689     1758.917     1391.416        0.312        0.221       38.897       29.824        0.588      342.065       17.216      855.674
05/05/2014  11:08:00       -4.472        4.351       42.162       83.138       92.753       63.253     6911.864     8603.124     4000.996        1.066        0.976        6.239       31.845       26.054      342.014       17.126      855.668
05/05/2014  11:09:00       39.009       13.459       58.819       68.421      101.469       77.386     4681.410    10296.039     5988.544        1.306        1.048       41.266       52.321        1.608      341.784       16.737      855.638
05/05/2014  11:10:00       40.662       61.112       56.981      103.255       93.329       57.960    10661.575     8710.211     3359.345        1.568        1.137       73.403       58.740        0.640      341.746       16.673      855.571
05/05/2014  11:11:00      -36.614      -97.418       13.787       79.785       94.785       70.970     6365.706     8984.213     5036.738        1.570        1.019      104.072       36.623        0.124      341.747       16.672      855.576
05/05/2014  11:12:00      137.490     -192.379      -28.625      108.434       95.302       62.572    11757.971     9082.462     3915.238        4.074        1.238      236.460       53.199        0.051      341.745       16.668      855.591
05/05/2014  11:13:00      -46.127     -148.232       12.393      175.517      154.945       70.143    30806.361    24008.038     4920.095        4.198        2.987      155.243       79.035        0.259      341.989       17.082      855.588
05/05/2014  11:14:00     -144.794     -150.636       11.223      155.361      145.100       71.285    24136.934    21053.970     5081.554        4.702        2.514      208.942       79.226        0.144      341.832       16.816      855.588
05/05/2014  11:15:00     -183.661     -105.160       12.248      128.524       82.387       52.122    16518.309     6787.565     2716.706        3.548        1.301      211.637       54.134        0.065      341.705       16.602      855.567
05/05/2014  11:16:00      -39.433     -105.394       32.315      119.631      113.762       86.712    14311.476    12941.858     7519.051        2.423        1.739      112.530       54.962        0.239      342.110       17.290      855.569
05/05/2014  11:17:00      -74.565     -146.379      -20.821      161.975      121.673       50.730    26235.908    14804.201     2573.541        3.551        2.181      164.276       35.897        0.048      341.931       16.984      855.592
05/05/2014  11:18:00     -223.977     -160.552        2.985      131.148      152.457       62.755    17199.719    23243.047     3938.172        6.016        2.219      275.577       70.870        0.066      341.634       16.480      855.606
05/05/2014  11:19:00     -233.565     -131.713      -10.547      112.452       77.938       51.681    12645.368     6074.370     2670.887        4.670        1.070      268.144       40.904        0.023      341.706       16.601      855.603
05/05/2014  11:20:00     -242.255     -203.027        7.709      138.028      248.318       72.768    19051.785    61661.715     5295.162        9.297        4.300      316.081       80.740        0.065      341.756       16.686      855.609
05/05/2014  11:21:00     -146.849     -219.850        5.805      201.688      143.439       89.242    40678.180    20574.709     7964.206        6.956        3.461      264.384       78.016        0.087      341.823       16.800      855.609
05/05/2014  11:22:00       33.885     -185.210       17.790      128.394      133.415       78.978    16485.115    17799.630     6237.542        3.814        2.026      188.285       23.888        0.016      342.074       17.226      855.593
05/05/2014  11:23:00     -137.591     -230.994       -2.535      235.900      163.470      105.995    55648.920    26722.561    11235.043        8.293        4.680      268.867       68.478        0.065      341.733       16.648      855.603
05/05/2014  11:24:00     -289.714     -214.629        6.286      176.306      166.778       65.708    31083.732    27814.872     4317.594        9.662        3.161      360.555       80.502        0.050      341.562       16.359      855.605
05/05/2014  11:25:00     -259.120      -99.912       -9.446      134.053       98.627       53.516    17970.251     9727.265     2863.952        5.388        1.528      277.715       58.017        0.044      341.603       16.428      855.602
05/05/2014  11:26:00     -186.905      -47.706      -13.744       77.066       70.719       35.923     5939.120     5001.216     1290.428        2.481        0.612      192.897       35.598        0.034      341.360       16.017      855.595
05/05/2014  11:27:00     -256.603      -66.451      -21.076       72.754       99.579       43.578     5293.195     9916.033     1899.032        4.390        0.855      265.067       40.035        0.023      341.533       16.307      855.555
05/05/2014  11:28:00     -258.863     -113.107       -0.317      109.890       99.575       55.270    12075.744     9915.104     3054.806        5.242        1.252      282.495       49.708        0.031      341.808       16.774      855.535
05/05/2014  11:29:00     -123.099     -117.912       -2.347      126.634       64.378       55.037    16036.079     4144.465     3029.093        2.613        1.160      170.460       60.115        0.124      341.867       16.877      855.554
05/05/2014  11:30:00     -236.237     -103.706       -1.465      156.259      145.466       55.541    24417.011    21160.339     3084.816        5.760        2.433      257.998       67.000        0.067      341.854       16.855      855.475
05/05/2014  11:31:00     -364.687      -84.894      -14.484      182.468      176.410       72.594    33294.719    31120.390     5269.902       10.504        3.484      374.438       83.173        0.049      341.520       16.287      855.450
05/05/2014  11:32:00     -144.552     -146.171        0.205      138.044      144.089       57.639    19056.180    20761.618     3322.267        4.269        2.157      205.575       47.898        0.054      341.604       16.429      855.533
05/05/2014  11:33:00      -65.855     -217.785        4.739      146.116      139.990       66.873    21349.977    19597.174     4472.027        4.860        2.271      227.524       59.955        0.069      341.802       16.766      855.546
05/05/2014  11:34:00     -243.473     -203.135       10.894      198.016      180.129       91.083    39210.345    32446.587     8296.093        9.029        3.998      317.085      102.536        0.105      341.907       16.943      855.552
05/05/2014  11:35:00     -288.403     -198.504      -12.156      108.507      126.709       62.557    11773.764    16055.063     3913.370        7.723        1.587      350.115       48.314        0.019      341.494       16.242      855.557
05/05/2014  11:36:00     -209.580     -115.315        8.342      155.368       97.727       63.269    24139.243     9550.516     4002.940        4.748        1.885      239.210       78.049        0.106      341.850       16.846      855.541
05/05/2014  11:37:00     -422.551     -285.488        5.333      281.028      189.514       88.757    78976.590    35915.693     7877.769       19.140        6.139      509.953      100.010        0.038      341.633       16.478      855.545
05/05/2014  11:38:00     -353.800     -250.553      -11.616      209.753      136.092       88.043    43996.173    18520.953     7751.651       12.916        3.513      433.533       95.990        0.049      341.638       16.486      855.541
05/05/2014  11:39:00     -279.749     -204.571       10.153      260.163      256.741      103.377    67684.603    65916.119    10686.743       13.222        7.214      346.567      124.553        0.129      341.752       16.680      855.513
05/05/2014  11:40:00     -444.015     -255.907      -16.333      225.711      179.411       88.247    50945.308    32188.218     7787.457       17.689        4.546      512.482       92.250        0.032      341.360       16.016      855.488
05/05/2014  11:41:00     -278.886     -139.495       18.839      279.835      185.784      112.663    78307.638    34515.837    12692.919       11.153        6.276      311.827      120.563        0.149      341.671       16.543      855.474
05/05/2014  11:42:00     -403.633     -227.400       -4.905      161.518      177.029       85.506    26087.970    31339.401     7311.265       13.968        3.237      463.282       72.740        0.025      341.464       16.192      855.459
05/05/2014  11:43:00     -320.314     -274.083       -7.829      227.666      162.683       93.930    51831.985    26465.842     8822.920       13.243        4.356      421.571      109.316        0.067      341.580       16.389      855.444
05/05/2014  11:44:00     -378.000     -194.308       -1.333      251.386      154.566       90.178    63195.032    23890.663     8132.012       13.791        4.761      425.017      118.418        0.078      341.742       16.662      855.435
05/05/2014  11:45:00     -357.864     -241.786        5.051      206.767      172.829       93.135    42752.764    29869.996     8674.053       13.391        4.065      431.888      105.448        0.060      341.745       16.667      855.438
05/05/2014  11:46:00     -565.936     -320.235      -16.923      314.085      239.883      122.215    98649.665    57543.775    14936.553       29.709        8.556      650.257      147.570        0.052      341.452       16.171      855.412
05/05/2014  11:47:00     -228.815      -38.580       19.757      272.227      151.114      109.357    74107.583    22835.362    11958.850        8.155        5.445      232.045      134.350        0.335      341.867       16.876      855.410
05/05/2014  11:48:00     -472.907     -251.627       -9.521      282.412      280.107      111.447    79756.671    78459.943    12420.486       22.881        8.532      535.684      136.091        0.065      341.571       16.374      855.417
05/05/2014  11:49:00     -509.213     -115.151        6.699      310.448      236.293      125.603    96377.791    55834.534    15776.165       22.026        8.399      522.071      125.779        0.058      341.484       16.225      855.410
05/05/2014  11:50:00     -563.575     -381.039      -19.782      316.555      255.230      147.501   100207.351    65142.164    21756.575       32.512        9.355      680.300      152.040        0.050      341.076       15.533      855.394
05/05/2014  11:51:00     -484.959     -223.578      -13.992      273.069      235.184      121.854    74566.650    55311.532    14848.404       21.502        7.236      534.015      137.825        0.067      341.136       15.637      855.416
05/05/2014  11:52:00     -481.976     -202.169       -7.192      285.558      224.420      123.264    81543.533    50364.225    15193.989       21.013        7.355      522.660      141.877        0.074      341.161       15.679      855.439
05/05/2014  11:53:00     -549.738     -112.212      -21.438      317.017      178.996      113.886   100499.840    32039.733    12969.925       23.036        7.275      561.073      144.506        0.066      341.224       15.786      855.419
05/05/2014  11:54:00     -440.893      -83.340      -12.947      272.202      148.534       96.059    74093.776    22062.245     9227.339       15.342        5.269      448.700      123.457        0.076      341.360       16.016      855.407
05/05/2014  11:55:00     -388.178      -67.883      -23.996      210.108      129.151       76.411    44145.199    16679.883     5838.620       11.125        3.333      394.069       89.942        0.052      341.332       15.969      855.424
05/05/2014  11:56:00     -200.171     -102.822       22.770      227.958      215.599      113.685    51964.835    46482.828    12924.210        8.124        5.569      225.035      114.503        0.259      341.597       16.418      855.388
05/05/2014  11:57:00     -208.817     -148.199        7.254      175.490      150.085       94.979    30796.633    22525.604     9021.023        6.397        3.117      256.061      103.426        0.163      341.725       16.635      855.411
05/05/2014  11:58:00     -277.903     -183.435       -7.296      142.234      122.661       69.585    20230.540    15045.716     4842.106        7.552        2.006      332.984       73.074        0.048      341.715       16.617      855.447
05/05/2014  11:59:00     -480.839     -311.634      -21.769      275.549      161.116       99.584    75927.084    25958.301     9917.058       22.028        5.590      572.993      120.795        0.044      341.425       16.124      855.443
05/05/2014  12:00:00     -283.162     -210.503       31.426      256.984      179.281      112.097    66040.603    32141.570    12565.631       11.809        5.537      352.835      123.579        0.123      341.621       16.459      855.478
05/05/2014  12:01:00     -355.743      -75.784      -14.317      196.417      203.366       72.199    38579.489    41357.622     5212.626       10.881        4.257      363.726       61.573        0.029      341.410       16.100      855.511
05/05/2014  12:02:00     -495.097     -172.786      -21.778      187.115      194.367       93.242    35011.907    37778.354     8694.120       17.845        4.074      524.382       95.255        0.033      341.171       15.696      855.472
05/05/2014  12:03:00     -219.922     -233.002       25.026      206.079      170.861       96.524    42468.624    29193.489     9316.901        9.211        4.049      320.399       97.219        0.092      341.181       15.712      855.454
05/05/2014  12:04:00     -280.981     -336.996      -21.914      184.056      165.006       80.052    33876.627    27226.953     6408.322       13.024        3.376      438.767       75.474        0.030      341.065       15.514      855.365
05/05/2014  12:05:00     -409.251     -267.092      -17.271      259.763      195.834      114.159    67476.890    38350.771    13032.260       17.897        5.943      488.697      125.819        0.066      341.288       15.894      855.390
05/05/2014  12:06:00     -532.058     -390.964      -25.407      313.573      196.334      123.070    98328.314    38547.163    15146.179       29.427        7.601      660.257      140.314        0.045      341.205       15.752      855.381
05/05/2014  12:07:00     -523.709     -303.906      -27.331      297.044      202.716      122.399    88235.387    41093.610    14981.564       25.581        7.216      605.499      138.785        0.053      341.281       15.881      855.381
05/05/2014  12:08:00     -458.644     -339.550       -4.430      294.998      191.517      121.638    87023.957    36678.829    14795.874       23.206        6.925      570.656      145.365        0.065      341.172       15.697      855.361
05/05/2014  12:09:00     -327.130     -205.857       -6.516      253.478      185.839      117.225    64251.127    34535.993    13741.602       13.096        5.626      386.512      126.744        0.108      341.306       15.924      855.338
05/05/2014  12:10:00     -321.501      -77.565       -4.116      272.605      194.685       84.386    74313.568    37902.117     7121.033       11.434        5.967      330.725       98.620        0.089      341.538       16.317      855.285
05/05/2014  12:11:00     -369.592     -115.495       13.589      262.132      195.447      113.648    68713.181    38199.464    12915.952       13.495        5.991      387.218      118.952        0.094      341.451       16.169      855.318
05/05/2014  12:12:00     -533.144     -354.352      -16.330      310.480      245.532      140.352    96397.978    60285.891    19698.679       29.319        8.819      640.163      146.825        0.053      341.210       15.761      855.347
05/05/2014  12:13:00     -456.735     -168.048      -12.410      273.670      220.290      131.699    74895.461    48527.822    17344.609       18.886        7.038      486.670      126.257        0.067      341.089       15.556      855.384
05/05/2014  12:14:00     -276.095      -89.814       31.913      218.294      213.987      111.759    47652.053    45790.619    12490.013        9.560        5.297      290.336      131.017        0.204      341.307       15.926      855.462
05/05/2014  12:15:00     -366.259      -82.094       -3.844      287.359      240.317       98.502    82575.277    57752.119     9702.724       14.544        7.502      375.346      126.007        0.113      341.198       15.742      855.489
05/05/2014  12:16:00     -469.102     -148.651      -21.400      276.898      215.131       85.306    76672.510    46281.431     7277.105       18.639        6.512      492.091      100.833        0.042      341.184       15.718      855.510
05/05/2014  12:17:00     -423.691     -260.658      -15.089      219.445      162.101       95.635    48155.946    26276.604     9145.984       16.561        4.179      497.451      111.067        0.050      341.136       15.636      855.549
05/05/2014  12:18:00     -350.216     -222.385       -8.415      167.291      143.605       83.812    27986.309    20622.447     7024.419       11.389        2.782      414.857       75.646        0.033      341.248       15.826      855.548
05/05/2014  12:19:00     -317.187     -215.096       -9.349      182.319      123.796       75.727    33240.042    15325.473     5734.608       10.062        2.715      383.242       67.696        0.031      341.320       15.948      855.486
05/05/2014  12:20:00     -319.215     -271.880        1.655      242.601      185.907       96.132    58855.062    34561.317     9241.403       13.922        5.133      419.305      107.205        0.065      341.446       16.161      855.446
05/05/2014  12:21:00     -474.044     -164.016       -9.737      272.149      196.824      117.235    74065.233    38739.707    13744.160       18.911        6.327      501.616      137.009        0.075      341.366       16.026      855.450
05/05/2014  12:22:00     -200.009     -121.834       32.890      166.873      127.790       86.663    27846.761    16330.217     7510.517        5.380        2.584      234.195       84.034        0.129      341.672       16.546      855.464
05/05/2014  12:23:00     -398.592     -208.981        7.483      277.301      191.213       98.116    76895.858    36562.529     9626.663       16.282        6.154      450.054       98.819        0.048      341.540       16.321      855.513
05/05/2014  12:24:00     -324.316     -180.817       -4.644      277.415      148.171      111.073    76959.247    21954.623    12337.243       12.455        5.563      371.316      122.032        0.108      341.371       16.033      855.534
05/05/2014  12:25:00     -208.859     -153.867        0.491      177.408      125.288       70.146    31473.760    15697.023     4920.427        5.968        2.605      259.417       87.997        0.115      341.588       16.402      855.544
05/05/2014  12:26:00      -94.423     -191.018       17.728      144.283      173.599       54.842    20817.495    30136.446     3007.637        4.983        2.698      213.081       66.662        0.098      341.672       16.546      855.465
05/05/2014  12:27:00     -429.860     -282.769       16.558      265.069      198.083      120.736    70261.449    39237.000    14577.141       19.452        6.204      514.527      134.190        0.068      341.400       16.081      855.421
05/05/2014  12:28:00     -413.539     -133.659        4.181      239.193      150.577       91.792    57213.116    22673.481     8425.735       13.859        4.416      434.603      116.114        0.071      341.500       16.252      855.461
05/05/2014  12:29:00     -360.421     -101.751       -9.457      258.972      164.886      100.900    67066.542    27187.407    10180.764       12.237        5.222      374.509      106.186        0.080      341.252       15.834      855.459
05/05/2014  12:30:00     -214.948     -191.406       32.280      219.893      193.627      105.432    48352.876    37491.400    11115.996        9.040        4.848      287.818      140.831        0.239      341.741       16.661      855.438
05/05/2014  12:31:00     -441.970     -159.309      -11.669      207.745      140.851       84.908    43158.083    19839.016     7209.326       14.552        3.510      469.805       91.373        0.038      341.343       15.986      855.441
05/05/2014  12:32:00     -284.188     -242.624        8.779      203.249      196.803       94.034    41310.293    38731.556     8842.421       11.428        4.444      373.670      102.303        0.075      341.450       16.167      855.450
05/05/2014  12:33:00     -350.384     -237.602        2.466      202.626      148.974       89.514    41057.270    22193.139     8012.760       12.523        3.563      423.348      100.058        0.056      341.433       16.141      855.445
05/05/2014  12:34:00     -235.898     -276.162        4.488      163.397      123.063       81.531    26698.628    15144.521     6647.341        9.020        2.425      363.199       86.694        0.057      341.675       16.549      855.453
05/05/2014  12:35:00     -172.797     -249.025       33.069      189.231      169.514      101.756    35808.546    28735.051    10354.325        8.392        3.745      303.105      102.614        0.115      341.633       16.476      855.442
05/05/2014  12:36:00     -463.637     -220.778      -26.636      246.891      190.051       87.721    60955.333    36119.219     7694.997       18.457        5.238      513.520      102.903        0.040      341.369       16.031      855.451
05/05/2014  12:37:00     -389.760     -340.737      -23.210      225.950      199.887      103.925    51053.360    39954.861    10800.336       18.516        5.090      517.701      113.641        0.048      341.301       15.916      855.420
05/05/2014  12:38:00     -495.609     -396.554       -8.036      271.367      224.658      120.366    73640.203    50471.408    14488.084       27.075        6.930      634.731      125.894        0.039      341.009       15.421      855.361
05/05/2014  12:39:00     -476.849     -352.298       -3.041      302.559      257.075      126.672    91542.109    66087.461    16045.906       26.256        8.684      592.874      148.312        0.063      341.167       15.690      855.387
05/05/2014  12:40:00     -636.482     -346.998      -20.706      350.223      232.404      120.836   122656.064    54011.704    14601.365       35.857        9.563      724.926      146.626        0.041      340.957       15.333      855.383
05/05/2014  12:41:00     -468.769     -128.372       -2.133      256.562      200.772      108.177    65823.933    40309.416    11702.346       17.701        5.892      486.028      118.078        0.059      341.132       15.630      855.429
05/05/2014  12:42:00     -543.967     -393.726      -20.055      255.221      217.544      110.473    65137.665    47325.440    12204.327       28.797        6.233      671.506      135.222        0.041      340.685       14.872      855.422
05/05/2014  12:43:00     -462.565     -192.077       -7.050      326.638      215.293      106.859   106692.551    46351.109    11418.931       20.765        8.223      500.859      129.797        0.067      340.890       15.220      855.372
05/05/2014  12:44:00     -597.614     -257.550      -22.676      258.773      234.288      123.203    66963.699    54890.698    15178.951       28.048        6.852      650.749      121.246        0.035      340.833       15.124      855.380
05/05/2014  12:45:00     -406.619     -177.178       -3.792      222.565      183.846      101.420    49535.019    33799.497    10286.109       14.516        4.681      443.544      113.043        0.065      340.992       15.392      855.379
05/05/2014  12:46:00     -432.105     -165.710      -13.052      264.279      164.118       93.915    69843.514    26934.787     8820.055       15.995        5.280      462.789      104.031        0.051      341.039       15.472      855.381
05/05/2014  12:47:00     -551.262     -402.554      -30.967      244.489      190.985      132.976    59774.761    36475.119    17682.732       29.039        5.697      682.597      131.465        0.037      340.972       15.359      855.365
05/05/2014  12:48:00     -484.730     -232.249        4.353      298.399      222.564      118.734    89041.775    49534.693    14097.828       22.077        7.634      537.497      131.709        0.060      341.052       15.494      855.357
05/05/2014  12:49:00     -308.095     -297.248       -4.324      219.341      175.220       92.540    48110.564    30701.903     8563.602       13.532        4.369      428.111      104.885        0.060      341.167       15.688      855.385
05/05/2014  12:50:00     -225.376     -149.207       34.901      233.754      159.029       92.344    54640.722    25290.113     8527.412        8.135        4.423      270.290       93.427        0.119      341.592       16.410      855.405
05/05/2014  12:51:00     -359.884     -185.064       -3.164      218.750      158.976       79.419    47851.708    25273.251     6307.396       12.159        3.972      404.679       96.155        0.056      341.376       16.042      855.442
05/05/2014  12:52:00     -361.924     -259.462        2.409      235.055      181.159       95.075    55250.656    32818.716     9039.187       14.769        4.855      445.320      108.736        0.060      341.302       15.917      855.455
05/05/2014  12:53:00     -392.669     -325.792      -16.450      210.932      166.755       97.583    44492.208    27807.243     9522.396       17.119        4.091      510.224      104.290        0.042      340.878       15.199      855.446
05/05/2014  12:54:00     -400.088     -342.733        0.433      212.180      158.409      102.911    45020.333    25093.304    10590.733       17.910        4.035      526.817      112.449        0.046      340.931       15.287      855.376
05/05/2014  12:55:00     -489.636     -269.721        9.952      278.223      208.599      120.890    77408.096    43513.522    14614.395       22.404        6.777      559.011      140.821        0.063      341.052       15.494      855.342
05/05/2014  12:56:00     -379.681     -142.601       -7.533      208.862      161.896       83.964    43623.283    26210.417     7049.961       12.070        3.844      405.577       94.715        0.055      341.117       15.604      855.388
05/05/2014  12:57:00     -510.921     -373.607      -13.497      260.952      238.922      112.128    68096.073    57083.756    12572.689       26.925        6.888      632.947      125.302        0.039      340.889       15.218      855.366
05/05/2014  12:58:00     -574.604     -119.430      -14.335      306.510      242.321      133.021    93948.349    58719.296    17694.612       25.747        8.518      586.884      146.001        0.062      340.923       15.276      855.316
05/05/2014  12:59:00     -455.554     -236.596      -12.750      256.977      202.228      110.953    66037.394    40896.199    12310.607       19.143        5.962      513.330      124.327        0.059      340.753       14.989      855.348
05/05/2014  13:00:00     -343.037     -145.925        2.001      192.272      156.559       87.076    36968.377    24510.640     7582.302       10.400        3.453      372.785       86.641        0.054      340.937       15.299      855.383
05/05/2014  13:01:00     -283.785     -160.178      -12.873      177.857      153.203       76.996    31633.014    23471.109     5928.313        8.368        3.052      325.869       95.804        0.086      340.972       15.358      855.378
05/05/2014  13:02:00     -496.704     -190.060      -21.903      173.091      157.774       77.361    29960.609    24892.665     5984.795       17.207        3.042      531.825       66.628        0.016      340.822       15.104      855.256
05/05/2014  13:03:00     -478.807     -399.079      -25.075      262.428      207.102      115.995    68868.714    42891.352    13454.919       25.716        6.261      623.313      113.228        0.033      341.144       15.649      855.226
05/05/2014  13:04:00     -507.295     -344.364      -13.764      260.265      185.601      107.472    67737.676    34447.857    11550.311       24.491        5.687      613.135      122.860        0.040      341.161       15.678      855.226
05/05/2014  13:05:00     -327.496     -405.022       -3.205      267.791      233.830      114.778    71711.905    54676.696    13173.946       20.541        6.978      520.862      122.203        0.055      341.176       15.705      855.183
05/05/2014  13:06:00     -553.570     -363.281       -2.479      294.405      193.707      105.231    86674.547    37522.565    11073.575       28.682        6.764      662.128      104.912        0.025      340.934       15.294      855.272
05/05/2014  13:07:00     -454.894     -310.780      -14.409      234.659      152.816      101.630    55064.961    23352.678    10328.663       19.622        4.437      550.919      109.753        0.040      340.941       15.306      855.316
05/05/2014  13:08:00     -463.455     -346.114      -25.227      211.389      231.850      105.361    44685.156    53754.428    11100.966       22.236        5.477      578.433      125.929        0.047      340.888       15.218      855.336
05/05/2014  13:09:00     -223.974     -135.376       19.323      191.172      137.492       74.761    36546.874    18904.071     5589.172        6.494        3.052      261.708       82.821        0.100      341.219       15.778      855.358
05/05/2014  13:10:00     -517.183     -366.990       -3.705      252.090      163.927      110.559    63549.320    26872.143    12223.357       25.239        5.132      634.160      125.636        0.039      340.675       14.856      855.277
05/05/2014  13:11:00     -382.426     -259.033      -29.633      198.040      212.381       90.169    39219.970    45105.545     8130.427       15.332        4.623      461.896      106.807        0.053      340.907       15.247      855.235
05/05/2014  13:12:00     -552.184     -324.067       -7.627      240.710      199.197      104.604    57941.345    39679.513    10941.969       25.925        5.428      640.255      112.476        0.031      340.708       14.912      855.224
05/05/2014  13:13:00     -353.022     -294.780        6.728      246.387      228.842       92.804    60706.726    52368.760     8612.502       16.660        6.084      459.913      113.989        0.061      340.780       15.034      855.206
05/05/2014  13:14:00     -476.071     -310.898       15.414      259.391      226.464      126.794    67283.584    51285.745    16076.747       22.907        6.732      568.596      134.332        0.056      340.658       14.828      855.176
05/05/2014  13:15:00     -341.549     -174.091       14.043      194.698      172.149       88.624    37907.190    29635.152     7854.267       11.126        3.770      383.358       94.080        0.060      340.850       15.153      855.141
05/05/2014  13:16:00     -502.881     -170.424      -11.775      290.174      254.775       94.065    84201.121    64910.408     8848.230       21.998        7.898      530.974      115.660        0.047      340.976       15.364      855.134
05/05/2014  13:17:00     -299.458     -229.352        9.015      209.816      144.699       97.169    44022.546    20937.697     9441.838       10.837        3.720      377.197       94.665        0.063      341.138       15.640      855.118
05/05/2014  13:18:00     -380.638     -194.198        3.467      212.530      147.678       92.517    45169.165    21808.646     8559.355       12.906        3.777      427.315       89.040        0.043      341.221       15.782      855.080
05/05/2014  13:19:00     -215.264      -84.283        8.978      212.416      186.359      110.330    45120.615    34729.553    12172.661        7.275        4.601      231.176       97.100        0.176      341.428       16.131      855.069
05/05/2014  13:20:00     -332.129     -263.677       -2.019      240.148      207.062      131.388    57671.093    42874.477    17262.708       14.880        5.890      424.070      143.734        0.115      341.151       15.661      855.066
05/05/2014  13:21:00     -118.589     -106.701       43.195      189.995      161.205      110.690    36097.971    25987.050    12252.204        5.081        3.717      159.526      111.126        0.485      341.408       16.098      855.045
05/05/2014  13:22:00     -296.901     -182.042      -19.248      200.073      148.301       79.208    40029.324    21993.239     6273.963        9.496        3.415      348.266       86.379        0.062      341.218       15.775      854.996
05/05/2014  13:23:00     -405.050     -118.699      -12.153      259.091      243.115      100.939    67128.402    59104.931    10188.626       15.733        6.821      422.084      101.106        0.057      341.308       15.929      855.013
05/05/2014  13:24:00     -535.504     -381.069       -4.509      269.464      251.317      144.828    72611.025    63160.198    20975.271       29.434        7.837      657.251      152.652        0.054      340.934       15.294      855.035
05/05/2014  13:25:00     -511.897     -245.838      -30.673      239.983      197.604       94.890    57591.925    39047.304     9004.031       21.451        5.282      567.869       98.022        0.030      341.003       15.410      855.070
05/05/2014  13:26:00     -278.965     -155.093       11.419      193.825      174.449       82.146    37568.318    30432.385     6747.924        8.836        3.737      319.179       90.041        0.080      341.501       16.252      855.055
05/05/2014  13:27:00     -325.528     -183.794        9.419      250.119      160.152      104.437    62559.407    25648.706    10907.185       11.946        4.956      373.829      119.715        0.103      341.196       15.739      855.036
05/05/2014  13:28:00     -482.165     -250.723      -40.051      344.346      205.385      114.852   118574.026    42182.929    13190.896       23.541        8.697      543.456      158.019        0.085      341.175       15.702      855.056
05/05/2014  13:29:00     -362.038     -331.664      -20.509      280.755      246.801      107.304    78823.387    60910.553    11514.161       19.634        7.562      490.991      141.745        0.083      341.113       15.597      855.068
05/05/2014  13:30:00     -450.903     -336.944       -1.068      231.325      220.536      113.484    53511.111    48635.913    12878.638       21.591        5.751      562.890       98.413        0.031      341.108       15.587      855.012
05/05/2014  13:31:00     -363.488     -250.560       -6.651      247.884      181.192      115.543    61446.357    32830.706    13350.141       15.127        5.381      441.479      137.893        0.098      341.273       15.868      855.065
05/05/2014  13:32:00     -463.393     -190.083       -6.990      261.036      165.416       84.888    68139.717    27362.520     7206.024       17.679        5.135      500.864      101.760        0.041      341.145       15.652      855.083
05/05/2014  13:33:00     -498.282     -204.415        9.155      307.112      221.967      129.334    94317.608    49269.416    16727.334       22.520        8.016      538.582      167.985        0.097      341.277       15.874      855.005
05/05/2014  13:34:00     -539.086     -140.178       -6.819      253.837      242.970      113.028    64433.473    59034.208    12775.252       22.325        6.812      557.013      111.671        0.040      341.242       15.815      854.995
05/05/2014  13:35:00     -448.002     -268.643       -0.234      299.637      219.550      131.476    89782.611    48201.984    17286.022       21.404        7.764      522.374      161.817        0.096      341.117       15.604      854.992
05/05/2014  13:36:00     -524.470     -136.146       -6.998      306.753      172.574      103.359    94097.660    29781.755    10683.069       21.408        6.728      541.853      134.815        0.062      341.157       15.672      855.003
05/05/2014  13:37:00     -629.930     -161.211      -36.699      236.024      199.158      114.742    55707.169    39663.998    13165.805       26.632        5.427      650.231      116.540        0.032      340.903       15.242      855.013
05/05/2014  13:38:00     -327.320      -56.223        4.396      222.355      168.627       92.773    49441.743    28435.055     8606.854        9.838        4.324      332.113      108.669        0.107      341.362       16.018      854.910
05/05/2014  13:39:00     -568.364     -304.667      -24.343      266.238      236.909      121.509    70882.852    56125.842    14764.411       27.908        7.089      644.871      132.214        0.042      341.224       15.785      854.935
05/05/2014  13:40:00     -561.864     -156.630      -15.442      339.807      255.144      123.573   115468.490    65098.537    15270.223       26.811        9.792      583.287      152.954        0.069      341.150       15.659      854.995
05/05/2014  13:41:00     -310.581        7.182       14.829      202.977      199.946       80.116    41199.675    39978.501     6418.652        9.215        4.380      310.664       76.523        0.061      341.243       15.819      854.993
05/05/2014  13:42:00     -381.172      -68.558      -13.049      177.708      191.702       89.108    31580.276    36749.832     7940.318       11.320        3.814      387.288       96.520        0.062      341.342       15.984      854.947
05/05/2014  13:43:00     -376.705     -265.510      -14.049      194.227      135.653       87.933    37724.318    18401.831     7732.289       13.822        3.193      460.871       89.072        0.037      341.089       15.556      854.989
05/05/2014  13:44:00     -331.604     -220.012       14.883      246.825      171.997      101.562    60922.819    29582.921    10314.752       12.968        5.041      397.953      102.815        0.067      341.219       15.776      854.969
05/05/2014  13:45:00     -382.494     -180.747       10.319      270.127      197.269      118.571    72968.608    38914.980    14059.076       15.248        6.297      423.050      140.319        0.110      341.238       15.808      855.002
05/05/2014  13:46:00     -498.566      -73.488      -25.444      230.320      200.518      109.818    53047.252    40207.315    12060.063       17.994        5.266      503.953      117.128        0.054      341.037       15.469      855.063
05/05/2014  13:47:00     -351.357     -157.875      -10.397      225.905      183.387       88.866    51033.193    33630.912     7897.122       12.050        4.628      385.197       93.225        0.059      341.187       15.723      855.028
05/05/2014  13:48:00     -241.086     -150.963       14.572      216.084      136.708       88.440    46692.263    18689.038     7821.680        7.715        3.660      284.451       99.072        0.121      341.138       15.639      855.024
05/05/2014  13:49:00     -329.050     -188.532       13.405      214.351      156.887       87.952    45946.560    24613.542     7735.618       11.113        3.915      379.233      107.078        0.080      340.994       15.396      855.015
05/05/2014  13:50:00     -478.614     -235.780      -14.825      281.868      236.029      112.594    79449.407    55709.539    12677.454       21.633        7.392      533.538      133.564        0.063      340.962       15.342      854.953
05/05/2014  13:51:00     -461.860     -220.680      -22.397      220.755      214.297      110.332    48732.878    45923.397    12173.139       18.465        5.341      511.874      115.120        0.051      341.015       15.432      855.016
05/05/2014  13:52:00     -639.930     -255.974      -31.371      295.707      213.064      115.168    87442.698    45396.371    13263.570       31.103        7.305      689.227      107.943        0.025      340.805       15.076      855.019
05/05/2014  13:53:00     -510.089     -263.763      -32.647      267.643      238.899      107.913    71632.954    57072.939    11645.167       23.556        7.018      574.249      116.580        0.041      340.753       14.989      855.001
05/05/2014  13:54:00     -424.826     -199.427       -8.626      207.016      189.222       84.781    42855.631    35804.944     7187.813       15.307        4.292      469.306       87.829        0.035      340.850       15.153      855.006
05/05/2014  13:55:00     -616.506     -233.658      -44.534      299.551      274.081      140.121    89730.570    75120.271    19634.028       31.054        9.224      659.299      153.645        0.054      340.831       15.120      854.999
05/05/2014  13:56:00     -452.322     -160.416       -8.529      345.460      251.095      137.172   119342.453    63048.585    18816.266       21.576       10.060      479.925      160.797        0.112      340.865       15.177      855.017
05/05/2014  13:57:00     -551.977     -104.774      -15.233      251.253      186.800      110.626    63128.317    34894.397    12238.146       21.305        5.513      561.833      119.193        0.045      340.855       15.159      855.051
05/05/2014  13:58:00     -410.491      -76.561        2.405      201.866      179.343       97.218    40749.949    32163.800     9451.396       12.835        4.118      417.570       99.649        0.057      340.929       15.285      855.058
05/05/2014  13:59:00     -433.329     -146.252       14.814      299.670      192.540      115.544    89801.939    37071.604    13350.391       17.478        7.011      457.345      119.524        0.068      340.902       15.240      855.071
05/05/2014  14:00:00     -573.501     -247.825      -19.107      402.217      238.008      144.499   161778.773    56647.984    20880.001       31.492       11.965      624.757      173.582        0.077      340.664       14.838      854.994
05/05/2014  14:00:00     -798.000      -82.000     -118.000          NaN          NaN          NaN          NaN          NaN          NaN       32.873          NaN      802.202        0.000        0.000      340.640       14.780      855.000
05/05/2014  14:14:00     -492.789     -291.068      -29.857      301.736      194.895      128.303    91044.572    37984.220    16461.612       23.675        7.275      572.330      175.220        0.094      340.692       14.884      854.968
05/05/2014  14:15:00     -566.458     -251.850      -16.543      261.581      175.017      111.531    68424.503    30631.100    12439.205       24.801        5.575      619.922      106.828        0.030      340.776       15.026      854.953
05/05/2014  14:16:00     -620.726     -253.953      -26.785      379.066      262.498      112.559   143691.020    68905.370    12669.637       33.784       11.263      670.666      153.669        0.052      340.825       15.110      855.019
05/05/2014  14:17:00     -272.873     -133.910       33.536      348.583      213.798      117.863   121510.367    45709.377    13891.604       13.728        9.056      303.960      160.650        0.279      340.857       15.165      855.074
05/05/2014  14:18:00     -249.033      -16.045      -10.293      227.394      134.311       76.932    51708.026    18039.471     5918.557        6.901        3.783      249.549      109.523        0.193      340.916       15.264      855.022
05/05/2014  14:19:00     -298.091     -123.262       -0.022      214.976      196.190       91.731    46214.860    38490.661     8414.520        9.857        4.656      322.570      107.574        0.111      340.956       15.332      854.919
05/05/2014  14:20:00     -428.592     -193.819        0.856      290.450      226.112      143.580    84361.164    51126.575    20615.344       18.865        7.805      470.380      164.339        0.122      340.783       15.039      854.828
05/05/2014  14:21:00     -466.624     -237.640       -6.094      362.461      273.652      132.720   131377.805    74885.161    17614.709       24.902       11.194      523.651      154.472        0.087      340.740       14.963      854.790
05/05/2014  14:22:00     -469.432     -152.344       -4.711      302.286      254.107      142.207    91376.929    64570.400    20222.698       20.985        8.809      493.533      161.459        0.107      340.669       14.846      854.886
05/05/2014  14:23:00     -521.589     -165.536      -16.396      227.175      228.089      106.639    51608.294    52024.462    11371.790       20.734        5.750      547.226      115.522        0.045      340.751       14.984      854.874
05/05/2014  14:24:00     -519.911     -250.037      -24.706      318.173      238.006      117.283   101234.216    56646.627    13755.277       25.250        8.582      576.911      142.049        0.061      340.772       15.019      854.839
05/05/2014  14:25:00     -685.882     -422.654      -46.744      312.804      296.952      126.541    97846.150    88180.256    16012.503       42.661       10.102      805.649      149.546        0.034      340.610       14.746      854.860
05/05/2014  14:26:00     -444.159     -258.673       -5.891      227.112      219.501      114.865    51579.749    48180.738    13194.031       18.857        5.648      513.993       93.700        0.033      340.664       14.837      854.942
05/05/2014  14:27:00     -320.920     -157.677        3.677      234.850      172.603       99.197    55154.372    29791.644     9839.962       11.131        4.739      357.563      107.321        0.090      340.657       14.826      854.950
05/05/2014  14:28:00     -343.907     -132.211       11.146      201.181      183.131       93.648    40473.683    33537.142     8769.941       10.931        4.139      368.445      106.823        0.084      340.761       15.001      854.928
05/05/2014  14:29:00     -413.215     -168.757      -12.183      316.123      272.747      124.422    99933.499    74391.105    15480.894       19.455        9.490      446.347      143.638        0.104      340.671       14.850      854.902
05/05/2014  14:30:00     -553.109     -127.036      -14.805      306.696      230.580      117.187    94062.350    53167.314    13732.906       24.159        8.048      567.511      132.462        0.054      340.640       14.797      854.898
05/05/2014  14:31:00     -567.505     -408.829      -17.979      364.053      234.056      145.311   132534.716    54782.211    21115.181       34.894       10.422      699.430      192.463        0.076      340.505       14.568      854.962
05/05/2014  14:32:00     -424.961     -314.929       -9.626      309.153      237.345      120.269    95575.470    56332.804    14464.566       22.309        8.319      528.935      141.678        0.072      340.468       14.507      854.975
05/05/2014  14:33:00     -377.232     -296.228        0.076      222.257      162.035      104.297    49398.312    26255.323    10877.944       15.828        4.327      479.641      108.143        0.051      340.532       14.616      854.967
05/05/2014  14:34:00     -469.017     -334.388      -17.836      241.014      197.774      116.015    58087.837    39114.447    13459.430       22.136        5.533      576.015      123.904        0.046      340.596       14.721      854.952
05/05/2014  14:35:00     -298.893     -177.700       26.949      219.943      186.685      108.890    48374.723    34851.250    11857.036       10.834        4.754      347.728      119.424        0.118      340.654       14.820      854.941
05/05/2014  14:36:00     -540.599     -274.579       -5.126      253.691      242.280      123.276    64359.124    58699.569    15196.880       25.293        6.913      606.334      129.708        0.046      340.652       14.817      854.983
05/05/2014  14:37:00     -569.403     -166.306       -8.971      305.794      241.718      103.361    93510.200    58427.361    10683.420       25.726        8.131      593.192      138.391        0.054      340.641       14.798      854.966
05/05/2014  14:38:00     -642.292     -135.824      -25.488      288.339      198.218      110.844    83139.584    39290.275    12286.487       28.315        6.736      656.496      122.809        0.035      340.633       14.784      854.874
05/05/2014  14:39:00     -669.924       -5.685      -72.908      284.780      232.028      114.941    81099.585    53837.107    13211.335       30.112        7.407      669.948      106.173        0.025      340.625       14.772      854.847
05/05/2014  14:40:00     -855.286      -66.516      -54.739      263.864      197.932      113.352    69624.267    39177.027    12848.678       43.027        6.082      857.869      109.197        0.016      340.533       14.616      854.783
05/05/2014  14:41:00     -428.052     -151.992       10.971      252.615      214.454      130.290    63814.316    45990.445    16975.447       16.659        6.339      454.235      135.925        0.090      340.668       14.844      854.761
05/05/2014  14:42:00     -502.784     -275.304      -24.056      326.387      214.918      130.023   106528.229    46189.607    16906.084       24.936        8.481      573.222      152.623        0.071      340.647       14.808      854.730
05/05/2014  14:43:00     -673.396     -231.234      -19.877      369.838      253.021      143.017   136779.907    64019.609    20453.840       36.425       11.063      711.991      181.722        0.065      340.628       14.776      854.745
05/05/2014  14:44:00     -637.493     -270.811      -27.461      309.946      242.858      134.173    96066.756    58979.884    18002.305       32.673        8.652      692.630      146.233        0.045      340.628       14.776      854.808
05/05/2014  14:45:00     -484.536     -310.312      -11.936      328.364      285.999      147.752   107822.825    81795.547    21830.757       27.129       10.572      575.386      176.548        0.094      340.663       14.836      854.795
05/05/2014  14:46:00     -579.214     -297.182       -1.255      351.890      287.177      148.689   123826.859    82470.419    22108.326       32.606       11.420      651.004      173.832        0.071      340.586       14.705      854.818
05/05/2014  14:47:00     -476.156      -77.756      -16.909      312.077      269.989      136.713    97391.785    72894.035    18690.438       21.098        9.449      482.463      148.295        0.094      340.627       14.775      854.853
05/05/2014  14:48:00     -425.540     -274.433        9.004      309.248      216.123      105.071    95634.286    46708.984    11039.950       20.490        7.669      506.357      127.613        0.064      340.742       14.970      854.902
05/05/2014  14:49:00     -570.411     -340.588       -4.381      332.508      259.457      147.265   110561.765    67317.758    21686.909       32.044        9.978      664.356      160.492        0.058      340.401       14.393      854.858
05/05/2014  14:50:00     -458.921     -301.005       -3.330      211.172      166.464      100.214    44593.430    27710.422    10042.943       19.177        4.117      548.829       88.493        0.026      340.431       14.443      854.851
05/05/2014  14:51:00     -474.681     -349.039      -15.392      302.842      275.799      124.659    91713.390    76065.217    15539.743       26.532        9.166      589.195      156.130        0.070      340.482       14.530      854.791
05/05/2014  14:52:00     -536.130     -190.517      -25.368      262.711      209.829      124.796    69016.906    44028.186    15574.001       22.647        6.431      568.975      132.494        0.054      340.548       14.641      854.801
05/05/2014  14:53:00     -459.122      -84.323        1.047      258.163      210.536       99.012    66647.928    44325.514     9803.457       16.932        6.039      466.801      116.159        0.062      340.627       14.776      854.763
05/05/2014  14:54:00     -544.519     -138.769       -5.736      322.233      230.542      132.399   103834.383    53149.764    17529.385       24.512        8.726      561.923      155.068        0.076      340.673       14.852      854.715
05/05/2014  14:55:00     -527.623     -149.927        2.486      290.778      214.280      118.100    84551.998    45916.018    13947.587       22.261        7.221      548.511      137.664        0.063      340.677       14.859      854.752
05/05/2014  14:56:00     -383.529     -250.774       -0.162      286.103      217.510      146.128    81855.117    47310.610    21353.509       18.022        7.526      458.238      160.712        0.123      340.672       14.851      854.767
05/05/2014  14:57:00     -522.563     -338.021       -1.800      280.173      191.298      116.732    78497.099    36594.813    13626.248       25.800        6.436      622.359      132.330        0.045      340.543       14.632      854.800
05/05/2014  14:58:00     -504.228     -191.203      -26.649      224.497      159.877      100.220    50398.779    25560.689    10044.109       18.874        4.300      539.263      102.679        0.036      340.493       14.548      854.799
05/05/2014  14:59:00     -329.726     -126.575       -6.561      161.537      155.590       78.456    26094.241    24208.381     6155.315        9.061        2.823      353.186       73.292        0.043      340.506       14.570      854.802
05/05/2014  15:00:00     -334.012     -186.275       -8.593      208.613      155.851       85.312    43519.176    24289.488     7278.078       11.070        3.754      382.443      101.372        0.070      340.441       14.460      854.755
05/05/2014  15:01:00     -299.188     -235.137        2.849      260.000      170.512      103.263    67600.069    29074.427    10663.177       12.605        5.367      380.530      129.902        0.117      340.460       14.492      854.698
05/05/2014  15:02:00     -434.535      -58.368      -12.105      252.259      191.043      109.025    63634.725    36497.442    11886.361       15.217        5.601      438.437      118.777        0.073      340.636       14.790      854.705
05/05/2014  15:03:00     -471.981     -103.487      -24.673      279.434      262.922      121.744    78083.087    69128.193    14821.593       19.803        8.102      483.193      130.816        0.073      340.494       14.549      854.765
05/05/2014  15:04:00     -582.517     -106.602      -27.662      229.533      214.989      111.011    52685.465    46220.126    12323.464       23.132        5.561      592.191      109.609        0.034      340.434       14.448      854.730
05/05/2014  15:05:00     -511.303     -202.257      -31.385      270.364      196.019      106.832    73096.699    38423.587    11413.168       21.310        6.147      549.853      112.756        0.042      340.448       14.474      854.711
05/05/2014  15:06:00     -424.850     -350.794      -28.756      278.881      251.376      143.338    77774.504    63189.901    20545.918       23.291        8.076      550.957      147.516        0.072      340.437       14.454      854.662
05/05/2014  15:07:00     -353.307     -301.945       20.069      288.136      227.528      140.640    83022.090    51768.817    19779.540       18.545        7.729      464.754      154.019        0.110      340.444       14.465      854.634
05/05/2014  15:08:00     -285.810     -152.448       35.329      247.878      208.420      118.917    61443.420    43438.810    14141.289       11.258        5.951      323.925      140.476        0.188      340.495       14.552      854.677
05/05/2014  15:09:00     -342.405      -20.608        0.326      188.683      136.802       78.393    35601.120    18714.824     6145.512        8.905        3.023      343.024       87.635        0.065      340.499       14.559      854.685
05/05/2014  15:10:00     -291.087     -147.616        6.793      282.367      219.269      110.998    79731.190    48078.860    12320.520       12.332        7.007      326.377      131.770        0.163      340.376       14.349      854.569
05/05/2014  15:11:00     -342.947      -46.024      -16.679      355.381      166.710       87.237   126295.339    27792.228     7610.306       14.082        8.085      346.022      127.388        0.136      340.587       14.708      854.552
05/05/2014  15:12:00     -480.411     -195.398        2.890      299.158      219.789      124.950    89495.430    48307.091    15612.524       21.117        7.671      518.628      141.018        0.074      340.613       14.750      854.546
05/05/2014  15:13:00     -456.345     -118.258      -17.515      208.323      155.148       83.583    43398.286    24070.939     6986.195       14.848        3.723      471.419       83.297        0.031      340.770       15.017      854.568
05/05/2014  15:14:00     -482.402     -216.612      -27.013      297.865      204.828      109.526    88723.585    41954.384    11996.032       21.149        7.134      528.803      124.231        0.055      340.729       14.947      854.600
05/05/2014  15:15:00     -446.434     -122.233        0.585      334.867      194.721      140.263   112136.172    37916.250    19673.705       19.195        8.486      462.866      166.664        0.130      340.489       14.542      854.535
05/05/2014  15:16:00     -604.245      -26.469      -21.368      270.069      212.090      118.302    72937.386    44982.329    13995.448       24.907        6.596      604.825      117.091        0.037      340.367       14.335      854.529
05/05/2014  15:17:00     -578.369      -65.683      -14.794      312.333      204.750      117.797    97551.776    41922.431    13876.028       24.617        7.668      582.086      138.577        0.057      340.372       14.344      854.504
05/05/2014  15:18:00     -686.883      -51.098      -46.546      262.859      219.357      108.722    69094.661    48117.604    11820.426       30.278        6.452      688.781      119.017        0.030      340.291       14.207      854.525
05/05/2014  15:19:00     -544.831     -145.685      -17.028      250.030      209.148       93.086    62514.963    43742.843     8664.925       21.662        5.746      563.973      111.225        0.039      340.327       14.267      854.470
05/05/2014  15:20:00     -544.824      -40.010      -21.152      344.170      180.130      117.357   118453.286    32446.868    13772.717       23.174        8.234      546.291      148.852        0.074      340.384       14.366      854.337
05/05/2014  15:21:00     -544.721     -255.510       -9.594      326.256      274.595      138.928   106443.241    75402.169    19301.101       28.158       10.057      601.669      158.179        0.069      340.470       14.510      854.333
05/05/2014  15:22:00     -594.241     -249.773      -16.213      316.501      241.591      132.675   100172.701    58366.103    17602.548       29.592        8.807      644.600      151.520        0.055      340.329       14.269      854.467
05/05/2014  15:23:00     -521.279     -228.791      -10.856      312.877      233.637      115.417    97891.704    54586.207    13321.178       24.496        8.290      569.278      135.858        0.057      340.320       14.257      854.482
05/05/2014  15:24:00     -579.450     -367.198      -26.439      349.201      316.882      150.916   121941.032   100414.044    22775.646       35.816       12.257      686.000      181.591        0.070      340.257       14.149      854.494
05/05/2014  15:25:00     -427.371     -273.968       -2.269      227.210      202.709      100.388    51624.339    41091.110    10077.721       18.023        5.140      507.646      109.321        0.046      340.287       14.200      854.551
05/05/2014  15:26:00     -461.940     -300.224        9.265      287.786      245.745      132.504    82820.569    60390.466    17557.308       23.216        8.038      550.929      158.389        0.083      340.227       14.097      854.539
05/05/2014  15:27:00     -567.819     -260.208      -10.871      306.779      177.059      110.807    94113.472    31349.873    12278.118       26.397        6.887      624.601      131.027        0.044      340.185       14.028      854.514
05/05/2014  15:28:00     -574.858     -429.825       -4.824      322.713      251.861      145.224   104143.470    63433.861    21090.135       35.191        9.433      717.782      167.880        0.055      340.156       13.978      854.491
05/05/2014  15:29:00     -387.419     -261.803       -1.078      318.060      269.424      137.496   101162.142    72589.303    18905.023       20.561        9.633      467.584      161.967        0.120      340.235       14.113      854.392
05/05/2014  15:30:00     -401.592      -99.600       -2.591      367.378      221.773      109.150   134966.668    49183.312    11913.818       18.359        9.803      413.759      139.185        0.113      340.308       14.236      854.403
05/05/2014  15:31:00     -729.491     -139.478      -28.746      275.490      237.764      115.975    75894.890    56531.529    13450.255       34.913        7.294      742.705      135.010        0.033      340.295       14.213      854.292
05/05/2014  15:32:00     -457.325      -78.355       13.838      248.131      216.303      110.082    61568.811    46787.017    12117.939       16.795        6.024      463.989      102.311        0.049      340.389       14.371      854.290
05/05/2014  15:33:00     -337.278     -143.143       -5.815      232.383      210.209      112.531    54001.776    44187.825    12663.296       12.254        5.543      366.397      122.751        0.112      340.399       14.390      854.332
05/05/2014  15:34:00     -380.109      -93.681       13.073      321.931      210.968      129.511   103639.252    44507.307    16773.151       15.914        8.246      391.483      145.150        0.137      340.324       14.264      854.315
05/05/2014  15:35:00     -486.801     -140.407       11.707      265.676      229.141      122.077    70583.807    52505.815    14902.874       19.738        6.900      506.645      134.521        0.070      340.314       14.246      854.264
05/05/2014  15:36:00     -550.591     -271.785       -1.197      307.505      288.548      121.988    94559.500    83259.683    14881.005       28.482        9.635      614.017      153.669        0.063      340.319       14.255      854.273
05/05/2014  15:37:00     -541.863     -217.749      -42.857      322.485      230.990      121.974   103996.442    53356.603    14877.637       25.751        8.612      583.978      145.055        0.062      340.247       14.133      854.235
05/05/2014  15:38:00     -417.713     -100.610       20.552      316.037      227.853      136.889    99879.165    51917.123    18738.589       17.775        8.527      429.659      160.564        0.140      340.278       14.184      854.237
05/05/2014  15:39:00     -578.509     -223.367      -33.424      336.287      221.810      132.859   113089.202    49199.523    17651.609       28.278        8.997      620.133      160.673        0.067      340.229       14.102      854.291
05/05/2014  15:40:00     -573.323     -308.627       -6.200      270.719      268.193      116.373    73288.842    71927.418    13542.660       29.134        7.938      651.114      134.869        0.043      340.199       14.051      854.158
05/05/2014  15:41:00     -490.487     -254.701       -4.720      314.271      269.185      142.288    98766.042    72460.739    20246.014       24.843        9.574      552.675      161.135        0.085      340.286       14.199      854.141
05/05/2014  15:42:00     -665.301     -302.989      -31.658      346.327      295.798      139.587   119942.653    87496.713    19484.470       38.113       11.346      731.046      150.667        0.042      340.273       14.176      854.234
05/05/2014  15:43:00     -676.057     -291.271      -33.874      344.615      279.015      148.093   118759.627    77849.633    21931.661       38.075       10.927      736.133      169.125        0.053      340.185       14.027      854.272
05/05/2014  15:44:00     -334.196     -236.486        8.854      280.405      240.008      121.964    78627.141    57603.638    14875.297       15.937        7.555      409.405      134.174        0.107      340.323       14.262      854.265
05/05/2014  15:45:00     -305.988     -199.415        7.624      261.750      207.307      111.377    68512.964    42976.381    12404.850       12.865        6.195      365.233      123.975        0.115      340.373       14.346      854.212
05/05/2014  15:46:00     -373.348      -94.156      -27.517      202.264      189.371      102.426    40910.853    35861.449    10491.019       11.812        4.363      385.038      105.497        0.075      340.378       14.354      854.178
05/05/2014  15:47:00     -626.148     -283.669      -18.072      290.184      237.228      128.777    84206.582    56277.341    16583.503       31.493        7.853      687.408      128.035        0.035      340.291       14.207      854.110
05/05/2014  15:48:00     -559.929     -246.379       -5.669      327.402      261.932      140.611   107191.761    68608.629    19771.573       28.487        9.779      611.737      167.369        0.075      340.315       14.248      854.140
05/05/2014  15:49:00     -584.804     -273.547       15.088      407.443      248.467      150.871   166010.006    61736.021    22762.026       33.373       12.525      645.619      197.168        0.093      340.220       14.087      854.177
05/05/2014  15:50:00     -725.304     -329.733      -25.218      359.910      258.167      128.294   129535.177    66650.080    16459.438       42.399       10.632      796.737      154.391        0.038      340.095       13.876      854.185
05/05/2014  15:51:00     -454.298     -248.913      -12.687      246.258      229.085      106.558    60643.216    52480.069    11354.675       19.647        6.224      518.020      115.076        0.049      340.214       14.076      854.168
05/05/2014  15:52:00     -337.420     -103.478        7.572      230.640      183.991      116.697    53194.838    33852.554    13618.101       11.262        5.033      352.931      129.121        0.134      340.359       14.324      854.152
05/05/2014  15:53:00     -474.119     -380.762      -20.936      275.817      207.747      137.710    76074.898    43158.891    18964.109       25.417        6.910      608.086      143.294        0.056      340.159       13.983      854.107
05/05/2014  15:54:00     -553.610     -205.266       -2.799      301.331      221.395      117.159    90800.238    49015.588    13726.170       25.105        7.677      590.439      136.672        0.054      340.191       14.038      854.070
05/05/2014  15:55:00     -643.217     -281.265       -7.847      276.330      227.972      123.905    76358.490    51971.372    15352.496       31.826        7.184      702.024      135.372        0.037      340.336       14.282      853.973
05/05/2014  15:56:00     -604.566     -297.430       -9.518      331.141      324.717      135.125   109654.651   105440.979    18258.678       34.366       11.668      673.769      139.025        0.043      340.401       14.392      853.949
05/05/2014  15:57:00     -575.113     -222.642        0.154      326.667      201.919      125.426   106711.566    40771.141    15731.759       27.174        8.161      616.705      138.635        0.051      340.352       14.310      853.994
05/05/2014  15:58:00     -596.966     -259.646      -27.835      316.951      213.335      118.983   100457.922    45511.917    14156.931       29.231        8.006      650.987      148.553        0.052      340.295       14.214      853.993
05/05/2014  15:59:00     -521.173     -215.631        8.093      369.879      328.968      155.566   136810.609   108219.818    24200.710       29.365       13.462      564.019      186.161        0.109      340.328       14.270      853.915
05/05/2014  16:00:00     -562.041     -262.408      -21.032      380.777      263.799      143.253   144991.028    69590.089    20521.447       31.010       11.755      620.281      151.044        0.059      340.242       14.124      853.913
05/05/2014  16:01:00     -628.672     -442.011      -29.118      299.031      274.970      150.893    89419.526    75608.500    22768.801       38.959        9.390      768.506      162.202        0.045      340.186       14.029      853.925
05/05/2014  16:02:00     -729.189     -250.995      -19.402      360.377      272.495      153.455   129871.295    74253.488    23548.339       41.134       11.384      771.178      175.167        0.052      340.258       14.152      853.942
05/05/2014  16:03:00     -622.881     -332.792       -0.089      322.358      277.804      139.769   103914.456    77175.298    19535.309       34.964       10.031      706.209      159.947        0.051      340.157       13.980      853.881
05/05/2014  16:04:00     -528.432     -332.645      -12.979      331.519      231.291      129.054   109904.710    53495.638    16655.046       28.502        9.003      624.414      155.003        0.062      340.166       13.996      853.841
05/05/2014  16:05:00     -437.933     -131.594      -17.097      263.539      211.307      115.208    69452.707    44650.628    13272.877       16.836        6.369      457.277      124.069        0.074      340.318       14.253      853.919
05/05/2014  16:06:00     -434.908     -210.673       -6.950      302.818      229.573      126.936    91698.949    52703.846    16112.637       19.701        8.026      483.247      151.675        0.099      340.295       14.212      853.936
05/05/2014  16:07:00     -686.871     -280.848      -16.627      341.141      268.737      126.036   116377.222    72219.616    15885.010       37.767       10.224      742.070      134.992        0.033      340.191       14.038      853.937
05/05/2014  16:08:00     -386.731     -179.054       -8.106      326.063      214.637      117.207   106317.229    46069.135    13737.365       17.387        8.306      426.170      132.041        0.096      340.221       14.089      853.876
05/05/2014  16:09:00     -763.240     -411.325      -12.546      479.207      322.438      159.934   229639.106   103966.211    25578.834       55.546       17.959      867.020      205.051        0.056      340.083       13.856      853.765
05/05/2014  16:10:00     -671.830     -430.352      -39.686      314.890      259.293      153.485    99155.780    67232.925    23557.650       41.400        9.497      797.846      169.427        0.045      340.072       13.837      853.777
05/05/2014  16:11:00     -660.855     -399.867       -7.378      397.774      301.491      160.440   158224.284    90896.694    25740.918       43.571       13.743      772.413      188.385        0.059      340.055       13.807      853.869
05/05/2014  16:12:00     -624.453     -412.061       -7.200      410.369      272.848      156.997   168402.446    74445.826    24648.195       41.359       13.375      748.155      212.546        0.081      340.074       13.840      853.775
05/05/2014  16:13:00     -592.123     -372.200       -3.390      445.503      312.431      149.628   198473.350    97613.385    22388.569       40.375       15.924      699.387      209.386        0.090      340.043       13.789      853.773
05/05/2014  16:14:00     -620.335     -382.330       -8.593      343.749      287.141      150.723   118163.421    82449.851    22717.383       37.715       11.167      728.692      166.021        0.052      340.036       13.778      853.810
05/05/2014  16:15:00     -571.061     -346.728       -7.455      292.621      302.958      134.023    85627.036    91783.353    17962.066       32.084        9.769      668.080      154.639        0.054      340.055       13.808      853.811
05/05/2014  16:16:00     -771.911     -373.300      -20.999      382.274      269.746      148.733   146133.407    72762.775    22121.365       48.828       12.051      857.438      181.879        0.045      340.037       13.778      853.778
05/05/2014  16:17:00     -703.212     -450.901      -16.915      395.979      270.130      161.029   156799.183    72970.415    25930.457       47.685       12.785      835.355      203.609        0.059      340.045       13.792      853.756
05/05/2014  16:18:00     -770.447     -383.972      -23.918      403.912      265.983      155.115   163144.980    70746.910    24060.729       49.972       12.898      860.826      173.144        0.040      339.970       13.665      853.784
05/05/2014  16:19:00     -747.589     -443.999      -48.093      375.783      282.712      126.324   141212.630    79926.016    15957.668       49.767       11.855      869.496      158.274        0.033      339.896       13.539      853.768
05/05/2014  16:20:00     -829.031     -335.406      -54.836      348.176      293.233      156.784   121226.547    85985.827    24581.270       51.725       11.590      894.310      177.342        0.039      339.827       13.423      853.797
05/05/2014  16:21:00     -484.551     -347.067      -16.792      288.856      249.005      116.687    83438.042    62003.665    13615.875       25.726        7.953      596.025      146.562        0.060      339.907       13.558      853.874
05/05/2014  16:22:00     -609.067     -436.128      -12.488      285.683      239.317      134.769    81615.055    57272.404    18162.586       35.916        7.853      749.112      147.590        0.039      339.902       13.549      853.791
05/05/2014  16:23:00     -542.003     -269.135      -15.023      275.216      262.854      124.439    75744.047    69092.158    15485.132       26.334        8.016      605.145      145.053        0.057      339.997       13.712      853.831
05/05/2014  16:24:00     -649.585     -429.312      -22.559      401.027      314.204      149.637   160822.869    98724.137    22391.278       44.430       14.097      778.633      195.360        0.063      339.899       13.546      853.814
05/05/2014  16:25:00     -799.689     -499.858      -17.583      330.907      280.233      157.727   109499.144    78530.433    24877.752       55.125       10.645      943.059      146.820        0.024      339.754       13.301      853.697
05/05/2014  16:26:00     -540.533     -298.687      -22.696      253.455      213.318      119.080    64239.491    45504.477    14179.953       25.289        6.196      617.568      118.119        0.037      339.914       13.569      853.793
05/05/2014  16:27:00     -487.689     -188.281      -20.424      389.884      235.420      133.688   152009.310    55422.752    17872.394       24.946       11.265      522.772      176.912        0.115      339.998       13.714      853.839
05/05/2014  16:28:00     -623.453     -434.359      -12.565      339.357      256.829      151.291   115163.190    65961.169    22889.012       39.073       10.201      759.843      168.990        0.049      339.752       13.298      853.821
05/05/2014  16:29:00     -570.289     -265.564      -21.656      286.787      273.826      134.738    82246.766    74980.834    18154.323       28.577        8.769      629.089      160.883        0.065      339.736       13.271      853.866
05/05/2014  16:30:00     -540.797     -239.135      -20.457      345.241      260.782      123.020   119191.154    68007.476    15133.833       27.616       10.117      591.309      149.610        0.064      339.758       13.308      853.891
05/05/2014  16:31:00     -696.541     -279.669      -24.088      390.131      310.064      153.508   152202.281    96139.873    23564.746       41.788       13.595      750.589      184.662        0.061      339.729       13.260      853.858
05/05/2014  16:32:00     -515.281     -110.289       -6.090      393.986      266.700      164.667   155225.336    71128.735    27115.145       26.554       12.673      526.951      209.661        0.158      339.717       13.238      853.868
05/05/2014  16:33:00     -520.490     -290.118       -6.100      357.118      284.031      143.071   127533.383    80673.463    20469.218       29.185       11.434      595.884      157.837        0.070      339.668       13.155      853.896
05/05/2014  16:34:00     -497.536     -120.381        9.458      356.372      288.736      134.077   127000.916    83368.347    17976.669       24.519       11.417      511.893      176.793        0.119      339.755       13.303      853.906
05/05/2014  16:35:00     -609.407     -265.836      -22.497      292.280      308.710      136.616    85427.563    95302.011    18664.006       32.093        9.970      664.865      140.676        0.045      339.617       13.070      853.920
05/05/2014  16:36:00     -646.222     -387.339      -23.667      302.893      248.349      121.607    91744.462    61677.155    14788.339       36.817        8.410      753.415      124.168        0.027      339.608       13.054      853.855
05/05/2014  16:37:00     -483.364     -121.582       10.735      331.924      249.425      126.022   110173.722    62212.582    15881.447       21.837        9.413      498.421      156.299        0.098      339.677       13.171      853.877
05/05/2014  16:38:00     -468.969     -184.503      -10.492      319.809      242.500      137.808   102277.537    58806.016    18990.959       21.704        9.004      503.958      180.300        0.128      339.709       13.224      853.891
05/05/2014  16:39:00     -525.084     -302.720      -13.412      304.447      252.257      123.841    92687.988    63633.664    15336.483       26.956        8.583      606.096      156.815        0.067      339.729       13.258      853.874
05/05/2014  16:40:00     -674.386     -307.631      -36.892      385.626      269.873      146.537   148707.734    72831.416    21473.151       39.686       12.151      741.238      167.368        0.051      339.682       13.180      853.827
05/05/2014  16:41:00     -647.685     -348.661      -29.165      301.302      220.639      134.707    90783.015    48681.665    18146.090       34.973        7.881      735.568      148.633        0.041      339.684       13.182      853.844
05/05/2014  16:42:00     -449.528     -259.775       16.645      249.960      212.375      112.592    62480.244    45103.035    12676.909       19.502        6.013      519.190      134.527        0.067      339.881       13.514      853.920
05/05/2014  16:43:00     -356.426     -192.709       -4.487      291.263      208.340      126.607    84834.354    43405.630    16029.295       15.420        7.213      405.186      144.708        0.128      339.854       13.469      853.940
05/05/2014  16:44:00     -470.890     -284.193       -7.162      289.934      204.268      125.970    84061.937    41725.401    15868.545       22.208        7.083      550.003      135.409        0.061      339.825       13.421      853.944
05/05/2014  16:45:00     -444.567     -274.244       -4.258      320.738      215.505      136.753   102873.133    46442.481    18701.290       22.041        8.401      522.350      168.976        0.105      339.903       13.552      853.987
05/05/2014  16:46:00     -486.474     -176.311       -1.369      274.532      214.556      113.069    75367.941    46034.072    12784.613       20.094        6.709      517.438      136.969        0.070      340.022       13.752      854.025
05/05/2014  16:47:00     -575.794     -345.350      -11.712      314.778      208.315      135.890    99085.305    43395.306    18466.133       30.591        8.047      671.420      164.512        0.060      339.794       13.368      854.036
05/05/2014  16:48:00     -694.769     -366.663      -29.160      306.764      295.581      141.251    94104.294    87368.098    19951.801       40.967       10.071      785.586      155.069        0.039      339.674       13.166      854.021
05/05/2014  16:49:00     -768.966     -202.860      -20.601      316.078      230.055      121.922    99905.142    52925.210    14864.923       40.026        8.385      795.274      138.964        0.031      339.633       13.097      854.055
05/05/2014  16:50:00     -546.994     -319.004        3.705      362.943      286.356      149.201   131727.391    81999.649    22261.051       31.844       11.799      633.219      189.149        0.089      339.604       13.049      854.050
05/05/2014  16:51:00     -413.112     -348.422       15.192      291.530      224.539      136.575    84989.987    50417.538    18652.761       22.314        7.703      540.426      154.495        0.082      339.637       13.103      854.062
05/05/2014  16:52:00     -625.235     -350.876      -14.345      324.294      236.222      136.838   105166.666    55800.939    18724.772       34.693        8.985      716.960      148.159        0.043      339.512       12.892      854.086
05/05/2014  16:53:00     -726.290     -323.612      -36.907      310.696      241.826      133.461    96531.908    58479.649    17811.916       40.317        8.641      795.124      145.716        0.034      339.534       12.931      854.133
05/05/2014  16:54:00     -628.490     -282.956      -12.921      303.866      318.060      145.891    92334.689   101162.097    21284.051       34.496       10.739      689.248      156.956        0.052      339.389       12.686      854.173
05/05/2014  16:55:00     -546.217     -258.811      -11.550      270.099      192.483      100.589    72953.572    37049.626    10118.204       24.277        6.006      604.431      121.645        0.041      339.511       12.891      854.178
05/05/2014  16:56:00     -341.674      -79.886       10.635      278.701      236.866      119.461    77674.020    56105.385    14270.895       13.561        7.403      350.889      129.497        0.136      339.691       13.194      854.243
05/05/2014  16:57:00     -571.244     -352.418      -18.942      292.716      203.057      113.742    85682.457    41232.184    12937.143       29.534        6.993      671.206      133.157        0.039      339.724       13.251      854.229
05/05/2014  16:58:00     -635.374     -299.086      -11.171      314.153      289.053      125.173    98691.895    83551.358    15668.184       34.556        9.896      702.248      140.502        0.040      339.640       13.108      854.249
05/05/2014  16:59:00     -608.570     -307.813       -3.211      370.802      246.069      124.387   137494.285    60549.976    15472.038       33.927       10.676      681.987      151.968        0.050      339.551       12.959      854.243
05/05/2014  17:00:00     -514.994     -341.525        1.102      310.163      273.401      117.840    96201.193    74748.104    13886.307       28.331        9.242      617.947      122.077        0.039      339.516       12.899      854.245
05/05/2014  17:01:00     -514.030     -292.448       -8.527      300.298      240.174      123.227    90179.184    57683.714    15184.972       25.640        8.152      591.399      154.254        0.068      339.585       13.016      854.307
05/05/2014  17:02:00     -515.452     -252.406      -35.079      255.094      223.225      118.983    65072.823    49829.226    14156.882       22.982        6.453      573.933      123.306        0.046      339.376       12.663      854.293
05/05/2014  17:03:00     -260.497     -192.836       -2.500      216.007      164.351       84.707    46659.037    27011.177     7175.314        9.293        4.042      324.106       99.562        0.094      339.550       12.958      854.324
05/05/2014  17:04:00     -318.096     -103.330      -16.024      231.323      173.511       92.336    53510.487    30106.020     8525.939       10.211        4.607      334.459      109.330        0.107      339.607       13.054      854.344
05/05/2014  17:05:00     -613.335     -220.917      -33.183      343.565      249.355      113.348   118037.225    62177.889    12847.733       30.954        9.653      651.908      128.957        0.039      339.448       12.785      854.287
05/05/2014  17:06:00     -745.331     -219.915      -39.886      325.280      262.887      126.974   105807.055    69109.435    16122.394       39.822        9.552      777.097      159.365        0.042      339.459       12.803      854.276
05/05/2014  17:07:00     -499.511     -286.005      -26.825      268.886      204.761      108.493    72299.596    41926.972    11770.802       22.899        6.300      575.596      110.546        0.037      339.545       12.949      854.304
05/05/2014  17:08:00     -311.819     -201.187       15.272      249.961      235.723      108.316    62480.720    55565.274    11732.392       13.383        6.489      371.089      137.315        0.137      339.667       13.154      854.323
05/05/2014  17:09:00     -532.616     -291.536      -23.212      369.653      197.370      117.490   136643.638    38955.064    13803.986       27.927        9.470      607.185      144.708        0.057      339.571       12.993      854.351
05/05/2014  17:10:00     -605.118     -211.921      -22.568      247.556      235.580      132.669    61284.015    55497.865    17601.029       27.296        6.719      641.154      127.643        0.040      339.575       12.999      854.335
05/05/2014  17:11:00     -460.916     -142.754       -4.610      263.435      266.390      122.270    69398.156    70963.752    14950.011       19.405        7.766      482.517      113.414        0.055      339.634       13.098      854.372
05/05/2014  17:12:00     -520.135     -367.817       -5.632      313.921      204.812      111.845    98546.134    41947.776    12509.208       27.940        7.650      637.047      141.434        0.049      339.618       13.071      854.391
05/05/2014  17:13:00     -516.497     -378.237       -0.766      384.049      273.432      145.547   147493.425    74764.959    21183.919       32.659       12.172      640.181      190.446        0.088      339.553       12.961      854.382
05/05/2014  17:14:00     -581.114     -317.712      -13.726      320.443      263.440      124.099   102683.757    69400.552    15400.460       31.312        9.374      662.295      122.966        0.034      339.504       12.879      854.362
05/05/2014  17:15:00     -640.299     -265.633      -15.478      223.849      172.018       98.011    50108.522    29590.115     9606.060       28.503        4.465      693.213       97.910        0.020      339.364       12.642      854.423
05/05/2014  17:16:00     -438.101     -198.758      -28.932      232.934      169.712       86.173    54258.121    28802.020     7425.804       16.136        4.524      481.079       91.677        0.036      339.652       13.129      854.489
05/05/2014  17:17:00     -316.282     -165.909        0.381      299.525      228.107       99.260    89715.475    52032.646     9852.545       13.955        7.580      357.156      127.726        0.128      339.738       13.275      854.454
05/05/2014  17:18:00     -306.179     -204.100        7.365      309.131      191.887      120.746    95561.973    36820.687    14579.694       14.118        7.348      367.971      137.138        0.139      339.748       13.290      854.514
05/05/2014  17:19:00     -413.335     -127.317      -17.159      238.647      164.056       98.699    56952.548    26914.470     9741.523       14.046        4.680      432.499      102.085        0.056      339.567       12.986      854.534
05/05/2014  17:20:00     -518.071     -278.738      -13.116      231.742      207.920       99.064    53704.169    43230.873     9813.716       22.649        5.337      588.296      105.695        0.032      339.431       12.757      854.548
05/05/2014  17:21:00     -518.032     -275.216      -15.283      260.484      248.450      113.341    67852.094    61727.172    12846.187       24.335        7.121      586.601      131.480        0.050      339.580       13.007      854.569
05/05/2014  17:22:00     -441.647     -134.608       -8.387      237.797      225.389      106.278    56547.646    50800.247    11294.931       16.592        5.932      461.705      117.801        0.065      339.682       13.179      854.667
05/05/2014  17:23:00     -397.912     -299.096       -1.615      250.223      181.360       87.049    62611.489    32891.377     7577.609       17.542        5.154      497.788       88.241        0.031      339.536       12.935      854.670
05/05/2014  17:24:00     -340.170     -245.370        0.128      178.827      148.105       78.825    31979.018    21935.001     6213.442       11.801        3.006      419.431       98.331        0.055      339.575       12.999      854.704
05/05/2014  17:25:00     -136.006     -100.140       34.326      255.901      143.704       89.235    65485.491    20650.823     7962.907        6.188        4.705      168.895      125.843        0.555      339.739       13.277      854.664
05/05/2014  17:26:00     -254.349      -93.905       -4.264      187.967      107.524       65.611    35331.568    11561.441     4304.839        6.235        2.560      271.130       62.444        0.053      339.748       13.291      854.665
05/05/2014  17:27:00     -194.890      -10.653       22.057      131.210      128.276       69.972    17216.158    16454.857     4896.126        3.857        1.928      195.180       70.633        0.131      339.811       13.398      854.674
05/05/2014  17:28:00     -434.455       -8.889      -14.508      215.546      165.622       95.236    46460.056    27430.691     9069.837       13.598        4.148      434.546       98.055        0.051      339.542       12.943      854.664
05/05/2014  17:29:00     -470.657      -39.824        6.256      305.185      201.478      115.797    93138.127    40593.205    13408.959       18.511        7.357      472.339      134.575        0.081      339.426       12.748      854.631
05/05/2014  17:30:00     -542.916      -90.033       -3.454      250.054      190.266      118.051    62527.192    36201.230    13935.989       20.775        5.633      550.330      113.335        0.042      339.253       12.456      854.613
05/05/2014  17:31:00     -415.982     -203.311      -12.737      236.865      208.104       96.321    56104.947    43307.308     9277.733       16.159        5.434      463.008      113.861        0.060      339.278       12.499      854.619
05/05/2014  17:32:00     -480.867     -167.065      -34.948      175.761      204.917       88.598    30891.988    41990.803     7849.577       17.053        4.037      509.062       74.174        0.021      339.308       12.549      854.615
05/05/2014  17:33:00     -850.220      -75.640      -36.297      300.470      232.405      124.020    90282.395    54012.143    15380.907       44.476        7.984      853.578      131.869        0.024      339.227       12.412      854.566
05/05/2014  17:34:00     -437.590     -214.243      -24.298      215.816      209.721      110.333    46576.629    43983.004    12173.340       17.033        5.137      487.222       97.794        0.040      339.360       12.636      854.585
05/05/2014  17:35:00     -487.652     -214.112      -13.057      190.184      159.494       91.731    36169.809    25438.306     8414.555       17.691        3.501      532.587       97.481        0.034      339.375       12.662      854.577
05/05/2014  17:36:00     -432.599     -155.591      -15.659      173.887      206.041      100.377    30236.796    42453.005    10075.623       14.716        4.138      459.728       95.692        0.043      339.400       12.703      854.548
05/05/2014  17:37:00     -505.899     -275.444        7.140      298.151      221.217      138.212    88893.808    48937.064    19102.455       24.436        7.847      576.024      146.709        0.065      339.312       12.556      854.529
05/05/2014  17:38:00     -455.597     -255.875       -5.923      264.350      214.739      119.254    69881.149    46112.767    14221.561       20.162        6.511      522.532      136.961        0.069      339.263       12.474      854.492
05/05/2014  17:39:00     -314.596     -196.309       10.694      282.969      194.361      122.110    80071.197    37776.377    14910.930       13.516        6.638      370.820      144.525        0.152      339.280       12.502      854.495
05/05/2014  17:40:00     -329.372     -238.920       -9.127      297.000      231.518      131.157    88209.193    53600.626    17202.160       16.230        7.951      406.901      135.686        0.111      339.236       12.428      854.496
05/05/2014  17:41:00     -460.656     -328.778      -12.657      309.028      230.828      139.259    95498.270    53281.672    19393.116       24.428        8.409      565.950      139.403        0.061      339.166       12.311      854.483
05/05/2014  17:42:00     -504.405     -238.425      -17.379      365.791      229.934      122.873   133803.287    52869.577    15097.717       25.663       10.089      557.917      162.783        0.085      339.158       12.298      854.503
05/05/2014  17:43:00     -400.107     -104.918        6.281      271.658      221.414      108.830    73798.060    49024.206    11843.882       15.287        6.733      413.634       95.720        0.054      339.177       12.329      854.513
05/05/2014  17:44:00     -453.684     -100.865       -7.014      229.481      247.135       97.756    52661.407    61075.506     9556.291       16.965        6.165      464.761       91.421        0.039      339.185       12.342      854.542
05/05/2014  17:45:00     -417.616      -64.261        4.311      270.833      163.528      115.340    73350.355    26741.458    13303.234       14.595        5.670      422.531      133.672        0.100      339.156       12.293      854.534
05/05/2014  17:46:00     -351.126     -222.447        1.362      204.966      226.309      114.054    42011.151    51215.707    13008.275       13.948        5.312      415.659      114.884        0.076      339.166       12.310      854.547
05/05/2014  17:47:00     -340.659     -194.266       16.071      281.553      210.058      141.772    79271.929    44124.195    20099.199       14.874        7.175      392.158      156.231        0.159      339.089       12.182      854.530
05/05/2014  17:48:00     -592.847     -219.517      -31.786      253.706      248.761      113.796    64366.682    61882.243    12949.512       26.990        6.960      632.183      119.310        0.036      339.023       12.070      854.519
05/05/2014  17:49:00     -693.748     -107.205      -37.178      375.966      244.222      136.347   141350.766    59644.402    18590.486       35.683       10.979      701.983      144.407        0.042      338.979       11.996      854.504
05/05/2014  17:50:00     -475.351     -262.966        2.735      271.269      239.731      118.110    73586.643    57470.991    13949.910       22.003        7.250      543.240      130.695        0.058      338.986       12.008      854.508
05/05/2014  17:51:00     -592.974     -236.848      -24.394      297.754      253.888      124.538    88657.157    64458.939    15509.773       28.843        8.431      638.526      119.428        0.035      338.976       11.990      854.464
05/05/2014  17:52:00     -642.550     -103.837      -38.182      329.511      217.196      116.136   108577.532    47173.906    13487.479       29.714        8.462      650.886      146.098        0.050      338.996       12.024      854.430
05/05/2014  17:53:00     -611.607     -125.968      -24.014      343.023      239.488      108.837   117664.455    57354.716    11845.499       28.865        9.343      624.445      123.954        0.039      338.961       11.967      854.436
05/05/2014  17:54:00     -472.355      -93.455      -32.557      281.202      178.102       98.534    79074.538    31720.284     9709.002       17.668        6.025      481.511      110.103        0.052      338.969       11.978      854.388
05/05/2014  17:55:00     -527.200     -192.796      -23.177      414.477      222.371      124.461   171791.496    49449.005    15490.567       27.614       11.837      561.347      154.826        0.076      338.956       11.958      854.350
05/05/2014  17:56:00     -627.960     -115.887      -18.640      388.973      238.217      125.671   151299.695    56747.300    15793.229       31.593       11.192      638.564      168.104        0.069      338.916       11.890      854.336
05/05/2014  17:57:00     -600.732     -268.288      -29.110      290.266      227.857      133.055    84254.219    51918.845    17703.745       29.376        7.694      657.919      147.058        0.050      338.933       11.918      854.323
05/05/2014  17:58:00     -696.530     -146.216      -35.920      392.637      296.843      140.848   154163.974    88115.821    19838.222       38.492       13.106      711.712      178.019        0.063      338.879       11.827      854.311
05/05/2014  17:59:00     -628.566     -169.048      -26.979      267.156      247.776      111.729    71372.493    61393.183    12483.400       28.480        7.262      650.902      112.986        0.030      338.883       11.832      854.274
05/05/2014  18:00:00     -441.896     -154.422       -4.843      315.808      214.170      116.882    99734.701    45868.617    13661.432       18.917        7.963      468.101      151.989        0.105      338.942       11.934      854.280
05/05/2014  18:01:00     -522.334     -177.628        0.504      343.164      232.241      132.525   117761.779    53935.696    17562.786       24.678        9.463      551.711      149.534        0.073      338.889       11.846      854.238
05/05/2014  18:02:00     -479.279     -301.983      -17.713      319.017      228.287      140.453   101771.936    52114.967    19726.974       24.738        8.681      566.482      159.544        0.079      338.826       11.738      854.208
05/05/2014  18:03:00     -530.615     -362.056      -16.406      342.157      266.562      148.153   117071.683    71055.508    21949.407       31.145       10.504      642.368      162.724        0.064      338.748       11.606      854.191
05/05/2014  18:04:00     -578.388     -301.431        3.916      300.771      210.048      136.661    90462.975    44120.151    18676.121       28.930        7.663      652.222      143.642        0.049      338.777       11.657      854.232
05/05/2014  18:05:00     -610.269     -248.629       -6.561      352.297      228.716      141.857   124113.282    52310.807    20123.413       31.538        9.827      658.972      160.045        0.059      338.792       11.682      854.227
05/05/2014  18:06:00     -280.892     -159.122       14.396      234.481      175.626      116.575    54981.238    30844.494    13589.773       10.190        4.971      322.831      123.711        0.147      338.885       11.839      854.250
05/05/2014  18:07:00     -283.373      -98.249       -7.362      183.885      130.288       85.134    33813.652    16975.040     7247.879        7.401        2.902      299.922       95.791        0.102      338.904       11.870      854.303
05/05/2014  18:08:00     -468.289     -168.614       -6.887      247.393      251.570      121.182    61203.199    63287.384    14685.170       19.345        6.959      497.720      138.261        0.077      338.900       11.862      854.274
05/05/2014  18:09:00     -399.043     -105.985        2.192      272.585      176.411      115.345    74302.462    31120.700    13304.463       14.458        5.936      412.878      129.140        0.098      338.867       11.806      854.236
05/05/2014  18:10:00     -312.425     -147.753       -2.056      212.156      202.740      110.506    45009.971    41103.702    12211.672       10.887        4.916      345.601      100.697        0.085      338.821       11.730      854.256
05/05/2014  18:11:00     -486.306     -224.557       -8.390      327.875      220.742      103.639   107502.098    48726.927    10741.019       22.695        8.349      535.649      141.531        0.070      338.827       11.738      854.293
05/05/2014  18:12:00     -726.756     -297.280      -34.339      347.998      287.013      137.052   121102.887    82376.333    18783.122       41.995       11.113      785.207      144.920        0.034      338.764       11.633      854.262
05/05/2014  18:13:00     -775.644     -286.182      -44.775      402.386      252.484      121.287   161914.765    63748.279    14710.574       46.290       12.019      826.755      142.615        0.030      338.688       11.505      854.275
05/05/2014  18:14:00     -694.066     -146.684       -9.480      348.912      226.375      140.877   121739.629    51245.788    19846.334       34.804        9.642      709.397      164.727        0.054      338.693       11.514      854.212
05/05/2014  18:15:00     -416.511      -27.741       -1.314      330.856      191.128      117.941   109466.007    36530.016    13910.065       16.705        7.995      417.434      158.126        0.143      338.767       11.640      854.235
05/05/2014  18:16:00     -619.269     -153.962      -29.624      337.014      286.728      150.237   113578.355    82212.931    22571.158       31.318       10.918      638.121      163.811        0.066      338.733       11.583      854.242
05/05/2014  18:17:00     -508.177     -212.681      -27.726      315.978      196.327      128.565    99842.314    38544.210    16528.971       22.955        7.746      550.888      135.849        0.061      338.701       11.527      854.179
05/05/2014  18:18:00     -517.706     -151.410        5.185      362.126      202.349      141.012   131135.564    40945.023    19884.339       24.143        9.598      539.392      189.117        0.123      338.733       11.581      854.191
05/05/2014  18:19:00     -565.862     -210.012       -6.382      284.876      227.652      109.367    81154.248    51825.442    11961.228       25.461        7.247      603.576      130.231        0.047      338.769       11.642      854.123
05/05/2014  18:20:00     -432.480     -180.499      -11.533      274.123      190.233      103.154    75143.277    36188.600    10640.732       17.084        6.099      468.635      127.378        0.074      338.868       11.810      854.135
05/05/2014  18:21:00     -522.250     -120.191      -10.500      354.271      209.275      121.561   125508.038    43795.832    14777.175       23.565        9.204      535.902      146.061        0.074      338.900       11.863      854.093
05/05/2014  18:22:00     -644.193     -284.574      -30.668      372.532      249.223      144.756   138779.917    62112.193    20954.228       35.933       11.092      704.250      179.776        0.065      338.826       11.738      854.143
05/05/2014  18:23:00     -390.863      -93.522       -0.002      290.181      235.746      116.952    84204.826    55576.215    13677.839       15.746        7.673      401.896      138.457        0.119      338.890       11.848      854.144
05/05/2014  18:24:00     -309.646     -244.511        8.766      236.758      214.539      132.917    56054.271    46026.863    17666.882       13.772        5.987      394.546      148.888        0.142      338.903       11.868      854.182
05/05/2014  18:25:00     -423.996     -237.797      -16.626      231.866      219.305      112.688    53761.617    48094.661    12698.515       17.555        5.728      486.128      113.562        0.055      338.865       11.803      854.205
05/05/2014  18:26:00     -354.308     -199.928       -1.463      291.533      186.804      103.710    84991.559    34895.606    10755.774       14.805        6.532      406.823      117.938        0.084      338.845       11.771      854.196
05/05/2014  18:27:00     -567.572     -378.527      -26.161      280.346      219.942      118.589    78594.119    48374.300    14063.247       30.354        7.052      682.217      137.255        0.040      338.765       11.635      854.180
05/05/2014  18:28:00     -388.915     -183.263       -3.876      231.010      188.573      109.328    53365.623    35559.815    11952.684       14.285        5.044      429.930      123.610        0.083      338.797       11.690      854.263
05/05/2014  18:29:00     -420.963     -243.312       -0.853      286.275      221.944      108.882    81953.095    49258.985    11855.234       18.971        7.153      486.221      107.538        0.049      338.831       11.748      854.265
05/05/2014  18:30:00     -399.250     -287.852       12.514      272.153      231.753      126.003    74067.388    53709.399    15876.866       19.301        7.183      492.198      148.534        0.091      338.757       11.622      854.213
05/05/2014  18:31:00     -402.673     -229.713       -9.814      203.414      175.725       91.288    41377.246    30879.360     8333.484       14.778        4.030      463.588      105.066        0.051      338.775       11.653      854.276
05/05/2014  18:32:00     -449.261     -249.109      -15.663      257.743      164.392       97.007    66431.657    27024.753     9410.448       18.348        5.143      513.703      123.776        0.058      338.796       11.688      854.296
05/05/2014  18:33:00     -361.579     -242.602       -7.350      171.819      196.868       97.361    29521.603    38756.918     9479.208       13.369        3.888      435.425      101.407        0.054      338.729       11.574      854.284
05/05/2014  18:34:00     -238.573     -133.109        4.971      191.754      169.653       85.328    36769.766    28782.156     7280.884        7.373        3.642      273.194       99.023        0.131      338.849       11.779      854.300
05/05/2014  18:35:00     -347.767     -118.782      -20.261      135.656      134.247       68.794    18402.435    18022.208     4732.560        8.830        2.058      367.493       59.073        0.026      338.809       11.710      854.295
05/05/2014  18:36:00     -330.972     -170.251      -26.509      165.655      181.573       82.771    27441.734    32968.853     6850.970       10.323        3.363      372.193       80.528        0.047      338.872       11.814      854.258
05/05/2014  18:37:00     -211.850      -56.917       17.429      241.362      139.841       75.563    58255.444    19555.504     5709.818        6.596        4.176      219.362       90.502        0.170      338.953       11.952      854.257
05/05/2014  18:38:00     -332.445      -38.911      -23.893      160.759      133.979       66.962    25843.330    17950.262     4483.848        8.043        2.414      334.714       65.985        0.039      338.916       11.890      854.257
05/05/2014  18:39:00     -197.000     -203.573        5.627      174.027      129.182       84.784    30285.562    16688.110     7188.401        6.721        2.708      283.286       85.845        0.092      338.886       11.840      854.252
05/05/2014  18:40:00     -422.258     -218.746      -26.500      219.336      182.842      106.913    48108.118    33431.062    11430.340       15.989        4.648      475.554      116.721        0.060      338.790       11.677      854.243
05/05/2014  18:41:00     -367.196     -284.980        0.312      271.692      200.021      110.252    73816.522    40008.243    12155.496       17.099        6.299      464.808      108.185        0.054      338.780       11.661      854.182
05/05/2014  18:42:00     -386.611     -212.360        5.528      219.396      196.290      120.534    48134.691    38529.613    14528.348       14.787        5.060      441.096      133.456        0.092      338.792       11.682      854.185
05/05/2014  18:43:00     -333.509     -138.683        5.140      207.405      134.423       89.354    43016.643    18069.617     7984.096        9.977        3.454      361.195      100.708        0.078      338.761       11.629      854.171
05/05/2014  18:44:00     -518.074     -229.054      -24.209      290.857      230.093      138.316    84597.799    52942.708    19131.397       23.903        7.834      566.451      159.239        0.079      338.670       11.475      854.116
05/05/2014  18:45:00     -490.627     -285.296       -9.121      351.956      245.617      142.118   123872.956    60327.830    20197.420       26.325       10.220      567.546      131.333        0.054      338.674       11.483      854.103
05/05/2014  18:46:00     -351.417     -142.599      -10.025      289.694      260.967      123.074    83922.569    68103.742    15147.120       15.552        8.359      379.247      134.043        0.125      338.726       11.571      854.145
05/05/2014  18:47:00     -397.049     -221.610      -18.733      231.902      191.300      102.749    53778.465    36595.854    10557.337       15.400        5.047      454.708      117.787        0.067      338.738       11.591      854.147
05/05/2014  18:48:00     -222.136      -97.307       35.948      239.991      157.579      102.127    57595.508    24831.156    10429.949        7.646        4.643      242.514      124.600        0.264      338.815       11.722      854.157
05/05/2014  18:49:00     -212.250     -143.706       14.063      165.947      170.469       86.581    27538.376    29059.817     7496.335        6.498        3.205      256.323       83.574        0.106      338.799       11.694      854.159
05/05/2014  18:50:00     -435.430     -211.223      -18.004      183.534      168.793       91.048    33684.860    28490.915     8289.798       15.249        3.523      483.957       98.429        0.041      338.717       11.554      854.178
05/05/2014  18:51:00     -470.544     -195.560      -48.234      321.256      197.626      100.123   103205.533    39055.979    10024.616       20.710        7.614      509.564      131.203        0.066      338.722       11.564      854.248
05/05/2014  18:52:00     -283.533     -124.330       16.101      185.639      130.704       85.303    34461.841    17083.607     7276.553        7.745        2.941      309.595      101.558        0.108      338.758       11.624      854.230
05/05/2014  18:53:00     -230.046     -209.177        1.817      212.055      141.272       92.742    44967.258    19957.766     8601.042        8.509        3.676      310.928      109.267        0.123      338.755       11.619      854.265
05/05/2014  18:54:00     -228.126       11.649       -4.261      126.419      120.276       63.322    15981.863    14466.203     4009.646        4.332        1.723      228.423       54.689        0.057      338.821       11.729      854.247
05/05/2014  18:55:00      -54.595     -129.977       19.179      149.577      131.028       81.560    22373.175    17168.424     6652.109        3.321        2.310      140.977       80.027        0.322      338.830       11.747      854.245
05/05/2014  18:56:00     -311.808     -152.369      -10.014      174.674      138.555       80.040    30510.920    19197.476     6406.356        8.832        2.806      347.045       93.162        0.072      338.752       11.614      854.282
05/05/2014  18:57:00     -212.547     -134.825        7.419      155.591      130.387       58.300    24208.679    17000.702     3398.929        5.400        2.230      251.702       53.346        0.045      338.775       11.652      854.324
05/05/2014  18:58:00      -99.914     -116.493       12.887      122.619      153.347       58.365    15035.464    23515.346     3406.493        3.283        2.098      153.471       36.814        0.058      338.815       11.721      854.344
05/05/2014  18:59:00     -338.571     -109.427        9.004      200.607      169.021       88.242    40243.070    28568.164     7786.733       10.163        3.830      355.816       96.130        0.073      338.708       11.540      854.349
05/05/2014  19:00:00     -301.109     -198.818        5.491      170.381      155.681       78.026    29029.670    24236.419     6088.099        9.478        2.968      360.826       85.819        0.057      338.676       11.488      854.367
05/05/2014  19:01:00     -347.145     -196.927       -1.331      225.764      168.417       94.778    50969.578    28364.139     8982.903       12.379        4.416      399.111      117.677        0.087      338.699       11.525      854.381
05/05/2014  19:02:00     -193.802     -137.103       18.090      129.567      148.367       64.282    16787.725    22012.839     4132.222        4.980        2.147      237.396       80.913        0.116      338.716       11.554      854.445
05/05/2014  19:03:00     -380.912     -186.331      -20.800      191.833      169.169       85.719    36799.709    28618.081     7347.801       12.649        3.638      424.044       94.195        0.049      338.655       11.451      854.449
05/05/2014  19:04:00     -209.864      -64.433      -12.333      137.516       94.358       48.248    18910.620     8903.465     2327.886        3.924        1.507      219.532       52.520        0.057      338.693       11.515      854.444
05/05/2014  19:05:00     -159.699      -35.801       -8.142      128.378       71.202       40.813    16480.792     5069.679     1665.741        2.503        1.161      163.663       55.302        0.114      338.829       11.745      854.449
05/05/2014  19:06:00     -181.095      -43.752        5.961      119.504       68.082       49.927    14281.300     4635.135     2492.702        2.807        1.070      186.305       52.640        0.080      338.702       11.532      854.499
05/05/2014  19:07:00     -241.476     -248.985      -11.328      202.737      177.523       77.901    41102.322    31514.478     6068.537        9.954        3.934      346.849       90.060        0.067      338.651       11.445      854.462
05/05/2014  19:08:00     -281.028     -117.098       10.233      197.251      177.443       86.967    38907.929    31486.008     7563.345        8.536        3.898      304.448       81.361        0.071      338.680       11.494      854.475
05/05/2014  19:09:00     -506.140     -279.623      -25.345      240.070      177.733       92.468    57633.582    31589.112     8550.418       21.637        4.889      578.244      105.702        0.033      338.591       11.344      854.415
05/05/2014  19:10:00     -317.031     -111.550      -23.150      130.677      155.630       64.474    17076.516    24220.672     4156.880        7.946        2.273      336.084       63.149        0.035      338.667       11.472      854.435
05/05/2014  19:11:00     -181.227     -283.074      -18.086      150.498       93.807       48.219    22649.642     8799.838     2325.074        7.353        1.689      336.116       35.048        0.011      338.644       11.433      854.441
05/05/2014  19:12:00     -210.581     -197.014        6.338      210.130      156.114       71.523    44154.580    24371.509     5115.571        7.841        3.682      288.373      105.157        0.133      338.687       11.505      854.440
05/05/2014  19:13:00     -170.309     -167.065       15.389      159.762      141.575       78.723    25523.943    20043.622     6197.297        5.445        2.588      238.571       83.290        0.122      338.692       11.514      854.490
05/05/2014  19:14:00     -201.861     -280.724        2.176      173.539      176.916       78.208    30115.612    31299.380     6116.436        9.353        3.377      345.766       66.827        0.037      338.718       11.558      854.551
05/05/2014  19:15:00     -122.203     -224.996       15.659      154.704      107.506       64.961    23933.395    11557.488     4219.877        5.275        1.986      256.041       71.804        0.079      338.690       11.510      854.502
05/05/2014  19:16:00     -330.567     -197.279      -10.820      203.877      156.965       84.880    41566.017    24638.062     7204.620       11.084        3.670      384.959       91.749        0.057      338.609       11.373      854.512
05/05/2014  19:17:00     -327.261     -134.500       -8.342      225.865      190.716       94.889    51015.149    36372.588     9003.962       11.081        4.820      353.822      103.166        0.085      338.624       11.398      854.496
05/05/2014  19:18:00      -96.240     -162.640       15.662      127.624      116.638       52.245    16287.966    13604.498     2729.581        3.428        1.631      188.982       58.985        0.097      338.690       11.509      854.518
05/05/2014  19:19:00     -118.170     -150.019        4.842      173.281      101.116       57.959    30026.138    10224.391     3359.215        4.004        2.180      190.971       59.991        0.099      338.696       11.521      854.541
05/05/2014  19:20:00     -188.038     -131.784      -12.492      164.888      101.296       40.969    27187.918    10260.961     1678.465        4.600        1.956      229.620       54.245        0.056      338.607       11.369      854.568
05/05/2014  19:21:00      -92.807       -1.050        2.729       89.436       95.703       36.349     7998.848     9159.064     1321.216        1.355        0.924       92.813       33.959        0.134      338.706       11.540      854.580
05/05/2014  19:22:00       14.634       25.209       26.221       64.974       37.909       30.149     4221.628     1437.110      908.966        0.405        0.328       29.149       23.532        0.652      338.652       11.450      854.580
05/05/2014  19:23:00       25.306      -13.647       41.333       52.817       73.540       57.945     2789.602     5408.063     3357.651        0.704        0.578       28.751       45.540        2.509      338.709       11.543      854.630
05/05/2014  19:24:00        4.713      108.003      123.166       48.797       50.131       35.838     2381.143     2513.120     1284.366        1.652        0.309      108.106       33.662        0.097      338.520       11.227      854.622
05/05/2014  19:25:00      147.917      114.645       30.775      123.598       62.849       51.191    15276.381     3949.938     2620.477        2.890        1.092      187.144       35.262        0.036      338.626       11.402      854.666
05/05/2014  19:26:00      130.203       98.272       23.002       98.534       70.833       40.537     9708.945     5017.292     1643.214        2.175        0.818      163.126       29.938        0.034      338.642       11.433      854.661
05/05/2014  19:27:00      129.379      141.512      134.802      113.382      105.594       78.678    12855.549    11150.182     6190.286        4.256        1.510      191.740       80.070        0.174      338.589       11.341      854.654
05/05/2014  19:28:00      -15.510       -9.848      -12.104       71.789       71.859       45.793     5153.656     5163.759     2097.013        0.645        0.621       18.372       33.174        3.260      338.823       11.737      854.737
05/05/2014  19:29:00       59.501      107.842       23.836       77.417       57.287       44.314     5993.414     3281.831     1963.726        1.349        0.562      123.167       39.176        0.101      338.640       11.429      854.814
05/05/2014  19:30:00      121.821       84.054       19.034       38.366       34.210       28.042     1471.987     1170.301      786.350        1.285        0.171      148.005       15.877        0.012      338.575       11.321      854.863
05/05/2014  19:31:00      185.124       89.661       21.711       66.678       47.127       46.362     4446.000     2220.979     2149.462        2.580        0.441      205.694       39.342        0.037      338.596       11.353      854.881
05/05/2014  19:32:00       44.409       36.523       49.125       70.317       50.236       36.205     4944.420     2523.612     1310.831        0.725        0.439       57.499       31.640        0.303      338.648       11.441      854.916
05/05/2014  19:33:00       52.836       35.037       15.046       55.050       44.180       32.059     3030.450     1951.848     1027.771        0.513        0.301       63.397       20.331        0.103      338.558       11.292      854.947
05/05/2014  19:34:00       89.721        3.897       26.355       72.179       42.827       36.438     5209.830     1834.156     1327.712        0.856        0.419       89.805       32.077        0.128      338.594       11.352      854.972
05/05/2014  19:35:00      104.446      -75.933       24.072       74.386      107.839       59.948     5533.289    11629.260     3593.822        1.900        1.038      129.131       64.366        0.248      338.650       11.446      855.001
05/05/2014  19:36:00       76.210       36.573      102.154      103.432      152.495       79.691    10698.267    23254.676     6350.601        2.893        2.015       84.531       86.939        1.058      338.618       11.389      854.994
05/05/2014  19:37:00      244.016      131.697       28.820       68.089       65.449       56.215     4636.114     4283.514     3160.123        4.490        0.604      277.287       35.717        0.017      338.559       11.289      854.987
05/05/2014  19:38:00       94.815       86.777       95.874      147.169      107.836       93.015    21658.843    11628.561     8651.813        3.382        2.097      128.531       66.866        0.271      338.593       11.348      854.959
05/05/2014  19:39:00      -16.286     -104.840       -3.247      119.396      109.127       78.825    14255.516    11908.647     6213.454        2.182        1.619      106.097       77.354        0.532      338.664       11.468      854.975
05/05/2014  19:40:00       20.287        2.125       59.399       50.664       84.985       45.739     2566.858     7222.467     2092.062        0.791        0.594       20.398       52.994        6.749      338.516       11.220      855.011
05/05/2014  19:41:00       37.130       52.636       40.856       36.933       30.029       39.060     1364.068      901.738     1525.691        0.480        0.190       64.414       26.898        0.174      338.366       10.970      855.038
05/05/2014  19:42:00       68.532       71.587       20.819       41.414       28.969       26.464     1715.154      839.201      700.370        0.675        0.163       99.102       20.542        0.043      338.512       11.215      855.037
05/05/2014  19:43:00       24.859       41.987       -6.646       34.074       36.143       19.353     1161.058     1306.346      374.545        0.263        0.142       48.794       18.606        0.145      338.516       11.221      855.042
05/05/2014  19:44:00      -99.897      112.864      -30.611       61.680       63.737       31.617     3804.405     4062.362      999.604        1.626        0.443      150.723       36.511        0.059      338.513       11.214      855.034
05/05/2014  19:45:00      -53.682       85.122      -12.171       40.179       55.508       31.698     1614.349     3081.101     1004.743        0.799        0.285      100.636       36.882        0.134      338.640       11.429      855.020
05/05/2014  19:46:00      -78.675       90.293      -13.441       41.365       50.171       28.813     1711.088     2517.120      830.194        0.979        0.253      119.761       23.842        0.040      338.604       11.368      855.011
05/05/2014  19:47:00     -109.167      -50.409      -12.641       51.768       43.463       25.139     2679.927     1889.036      631.985        0.991        0.260      120.243        9.700        0.007      338.643       11.434      854.999
05/05/2014  19:48:00       -8.007      -63.702       22.860       44.284       44.700       32.038     1961.097     1998.087     1026.430        0.481        0.249       64.203       24.580        0.147      338.728       11.578      854.995
05/05/2014  19:49:00      -55.867      -79.973        5.231       72.166       56.277       30.746     5207.911     3167.123      945.327        0.943        0.466       97.554       38.310        0.154      338.618       11.391      854.993
05/05/2014  19:50:00      -37.563     -174.204        2.772       40.298       93.940       25.289     1623.907     8824.677      639.546        2.142        0.554      178.207       22.773        0.016      338.534       11.250      854.990
05/05/2014  19:51:00      -85.759     -107.685        1.243      117.997      138.731       47.862    13923.175    19246.201     2290.797        2.720        1.773      137.661       36.932        0.072      338.496       11.187      854.947
05/05/2014  19:52:00     -189.750     -144.043       -1.803      143.532       87.830       71.774    20601.373     7714.101     5151.470        4.511        1.673      238.230       78.716        0.109      338.449       11.104      854.939
05/05/2014  19:53:00     -166.676     -133.919        8.917      123.114      105.809       55.968    15157.162    11195.639     3132.393        3.763        1.474      213.811       53.323        0.062      338.423       11.062      854.953
05/05/2014  19:54:00     -156.470      -98.231        7.135      118.877       80.267       55.927    14131.709     6442.737     3127.870        2.894        1.185      184.749       65.468        0.126      338.418       11.054      854.955
05/05/2014  19:55:00     -160.909     -118.798        0.541      105.718       91.321       54.421    11176.316     8339.554     2961.662        3.124        1.124      200.012       58.109        0.084      338.399       11.022      854.964
05/05/2014  19:56:00     -188.199     -264.511       -9.009      100.364      147.365       64.304    10072.980    21716.408     4134.971        7.069        1.796      324.630       66.937        0.043      338.393       11.011      854.965
05/05/2014  19:57:00     -253.058     -241.783       -5.933      174.543      106.904       64.139    30465.234    11428.526     4113.850        8.426        2.300      349.996       74.077        0.045      338.305       10.863      854.976
05/05/2014  19:58:00     -353.737     -189.821      -14.055      179.849      120.927       55.199    32345.757    14623.431     3046.904       10.568        2.501      401.449       58.283        0.021      338.243       10.758      854.948
05/05/2014  19:59:00     -282.821     -165.473      -14.944      195.286      144.873       83.772    38136.484    20988.243     7017.716        8.685        3.307      327.672       78.834        0.058      338.234       10.743      854.931
05/05/2014  20:00:00     -313.730     -268.684      -20.072      181.093      136.544       84.232    32794.790    18644.275     7095.035       11.477        2.927      413.058       89.861        0.047      338.203       10.692      854.932
05/05/2014  20:01:00     -161.926     -365.858        3.423      147.999      222.892       75.699    21903.815    49680.888     5730.357       11.868        3.866      400.090       65.860        0.027      338.191       10.671      854.938
05/05/2014  20:02:00     -336.258     -232.105       -5.453      251.156      167.414       84.288    63079.329    28027.494     7104.502       13.257        4.911      408.585       86.926        0.045      338.117       10.546      854.911
05/05/2014  20:03:00     -302.694     -198.073        8.887      191.167      151.119       89.765    36544.674    22837.044     8057.712        9.917        3.372      361.741       97.536        0.073      338.117       10.546      854.900
05/05/2014  20:04:00     -251.413     -156.429       18.736      150.283      118.140       82.175    22584.920    13956.953     6752.757        6.565        2.165      296.106       77.700        0.069      338.111       10.537      854.893
05/05/2014  20:05:00     -300.549     -173.155        5.528      134.468      154.440       78.934    18081.750    23851.569     6230.549        8.424        2.408      346.861       66.344        0.037      338.132       10.570      854.906
05/05/2014  20:06:00     -457.469     -272.057      -14.900      180.098      141.736       92.248    32435.450    20088.980     8509.626       17.226        3.052      532.253       77.734        0.021      338.059       10.452      854.894
05/05/2014  20:07:00     -462.023     -264.998      -19.472      144.307      128.732       64.889    20824.465    16572.052     4210.537       16.283        2.080      532.625       51.078        0.009      338.046       10.427      854.889
05/05/2014  20:08:00     -325.032     -211.836      -13.670      131.059      152.018       73.602    17176.462    23109.481     5417.305        9.820        2.285      387.969       78.831        0.041      338.065       10.462      854.882
05/05/2014  20:09:00     -279.477     -160.155        9.595      149.567      129.688       68.723    22370.390    16818.899     4722.785        7.387        2.196      322.113       63.662        0.039      338.050       10.434      854.888
05/05/2014  20:10:00     -232.813     -175.414       -6.522      118.706      102.243       67.797    14091.121    10453.533     4596.494        5.707        1.457      291.499       62.738        0.046      338.087       10.496      854.895
05/05/2014  20:11:00     -319.746     -195.024       -5.007      136.912      134.719       72.644    18744.924    18149.214     5277.118        9.123        2.109      374.529       65.795        0.031      338.038       10.415      854.894
05/05/2014  20:12:00     -298.593     -199.894       -5.713      136.944      118.676       67.678    18753.749    14084.066     4580.358        8.328        1.871      359.326       73.491        0.042      338.059       10.449      854.920
05/05/2014  20:13:00     -407.720     -214.996        4.422      185.586      159.076       86.449    34442.119    25305.324     7473.360       13.984        3.361      460.933      104.784        0.052      337.989       10.333      854.920
05/05/2014  20:14:00     -379.844     -215.901      -12.316      177.508      152.278       79.853    31509.071    23188.648     6376.460       12.605        3.054      436.915       87.036        0.040      337.990       10.335      854.926
05/05/2014  20:15:00     -349.281     -125.761       15.189      151.365      123.855       72.351    22911.491    15340.166     5234.622        9.076        2.174      371.232       81.775        0.049      337.994       10.340      854.955
05/05/2014  20:16:00     -343.339     -146.014      -10.836      188.315      109.432       68.547    35462.674    11975.403     4698.652        9.572        2.607      373.098       72.369        0.038      337.999       10.349      854.969
05/05/2014  20:17:00     -404.303     -237.690      -33.669      131.459      117.989       69.542    17281.520    13921.480     4836.138       12.856        1.802      468.996       47.328        0.010      337.961       10.286      854.952
05/05/2014  20:18:00     -192.702      -83.352       12.908      162.371      128.582       73.020    26364.384    16533.358     5331.918        4.623        2.411      209.956       63.654        0.092      338.000       10.353      854.966
05/05/2014  20:19:00     -245.556       11.915       10.821      214.239      108.607       57.783    45898.528    11795.387     3338.912        6.078        3.052      245.845       74.699        0.092      337.998       10.349      854.995
05/05/2014  20:20:00     -257.857     -122.943      -10.954      163.757      129.481       61.035    26816.387    16765.260     3725.320        6.451        2.365      285.666       73.743        0.067      337.982       10.322      855.007
05/05/2014  20:21:00     -217.136      -86.116        0.766      116.278       90.891       52.179    13520.523     8261.262     2722.700        3.953        1.225      233.589       59.958        0.066      337.943       10.256      855.030
05/05/2014  20:22:00     -215.494      -65.648        5.723      178.499      101.966       61.117    31861.904    10397.135     3735.333        4.838        2.300      225.272       83.978        0.139      337.958       10.281      855.051
05/05/2014  20:23:00     -238.444      -85.168       -3.890       97.835      126.138       45.795     9571.601    15910.879     2097.141        4.585        1.379      253.198       39.868        0.025      337.977       10.312      855.075
05/05/2014  20:24:00     -164.429      -58.992        7.600      133.372       84.729       60.840    17788.101     7178.971     3701.519        2.962        1.433      174.691       73.119        0.175      337.950       10.268      855.072
05/05/2014  20:25:00     -115.120      -10.154       10.414       99.329       73.015       51.110     9866.205     5331.203     2612.255        1.563        0.890      115.567       53.134        0.211      337.982       10.324      855.087
05/05/2014  20:26:00     -120.671      -75.085        1.773      168.415       78.695       43.593    28363.528     6192.954     1900.341        2.832        1.823      142.124       61.237        0.186      337.916       10.212      855.079
05/05/2014  20:27:00     -206.022     -180.215       13.409      187.303      133.325       66.036    35082.557    17775.624     4360.709        6.615        2.861      273.719       82.193        0.090      337.920       10.217      855.073
05/05/2014  20:28:00     -215.178     -122.036      -15.567      115.194       78.651       51.143    13269.681     6185.973     2615.575        4.175        1.104      247.375       55.250        0.050      337.875       10.141      855.072
05/05/2014  20:29:00     -317.335     -214.755      -21.467      138.523      118.363       65.351    19188.655    14009.695     4270.750        9.237        1.873      383.173       67.679        0.031      337.854       10.107      855.056
05/05/2014  20:30:00     -224.775     -125.161        3.214      117.871       96.642       57.508    13893.686     9339.699     3307.150        4.636        1.327      257.272       61.113        0.056      337.855       10.108      855.052
05/05/2014  20:31:00     -226.211     -112.666       -5.837       77.005       73.136       47.172     5929.824     5348.944     2225.200        3.870        0.675      252.716       35.945        0.020      337.868       10.128      855.061
05/05/2014  20:32:00     -139.409      -41.120       -5.653      104.270       55.086       32.604    10872.145     3034.498     1063.011        1.806        0.748      145.347       32.885        0.051      337.899       10.183      855.060
05/05/2014  20:33:00     -170.050      -77.251        8.363      132.968       71.385       49.335    17680.463     5095.804     2433.978        3.008        1.261      186.774       58.313        0.097      337.879       10.147      855.063
05/05/2014  20:34:00     -126.771      -79.856        3.306      100.989       89.844       51.992    10198.865     8071.932     2703.160        2.171        1.049      149.826       50.890        0.115      337.833       10.071      855.053
05/05/2014  20:35:00     -121.973      -65.715        0.667       84.128       64.188       39.410     7077.490     4120.077     1553.132        1.597        0.638      138.549       48.773        0.124      337.854       10.106      855.062
05/05/2014  20:36:00     -117.932      -48.169        0.843       70.092       47.302       37.765     4912.941     2237.444     1426.200        1.240        0.429      127.390       41.704        0.107      337.854       10.108      855.053
05/05/2014  20:37:00      -69.639      -60.177       10.013       86.869       66.286       44.854     7546.231     4393.871     2011.904        1.126        0.698       92.037       47.020        0.261      337.870       10.135      855.054
05/05/2014  20:38:00     -157.788     -112.694        7.522      127.947       98.127       51.275    16370.333     9628.888     2629.090        3.314        1.431      193.900       66.858        0.119      337.777        9.976      855.053
05/05/2014  20:39:00     -242.880     -178.266       -3.621      137.843      122.493       68.129    19000.724    15004.471     4641.568        6.471        1.932      301.280       79.079        0.069      337.754        9.938      855.058
05/05/2014  20:40:00     -152.472      -71.932       -1.891      105.551       80.889       45.508    11141.006     6543.074     2071.006        2.409        0.988      168.588       46.747        0.077      337.814       10.040      855.074
05/05/2014  20:41:00     -131.109     -105.008        7.594      100.242       79.563       52.673    10048.420     6330.236     2774.429        2.371        0.958      167.977       54.183        0.104      337.760        9.950      855.101
05/05/2014  20:42:00     -214.644     -119.050      -16.588      121.388       81.384       50.641    14734.983     6623.405     2564.461        4.222        1.196      245.448       57.904        0.056      337.774        9.972      855.109
05/05/2014  20:43:00     -100.315      -25.196        4.433       78.819       62.052       36.803     6212.383     3850.393     1354.436        1.107        0.571      103.431       33.963        0.108      337.771        9.970      855.141
05/05/2014  20:44:00     -114.315      -47.853        7.309       98.247       62.198       40.301     9652.547     3868.584     1624.190        1.528        0.757      123.927       49.521        0.160      337.787        9.995      855.165
05/05/2014  20:45:00     -161.278     -114.348       -9.501       85.574       74.157       48.355     7322.984     5499.227     2338.211        2.717        0.758      197.702       47.984        0.059      337.740        9.916      855.184
05/05/2014  20:46:00     -112.153      -32.189       -0.797       97.976       64.551       45.053     9599.280     4166.774     2029.798        1.470        0.790      116.681       46.050        0.156      337.719        9.882      855.190
05/05/2014  20:47:00      -58.312      -87.690        5.216       73.457       61.568       50.544     5395.905     3790.675     2554.670        1.143        0.587      105.308       48.131        0.209      337.740        9.917      855.198
05/05/2014  20:48:00     -163.781      -77.698        5.864       79.032       54.996       43.564     6246.073     3024.525     1897.779        2.203        0.558      181.277       47.344        0.068      337.730        9.900      855.214
05/05/2014  20:49:00      -83.723      -62.408        7.046       89.707       59.479       35.965     8047.420     3537.751     1293.507        1.191        0.644      104.424       39.028        0.140      337.769        9.966      855.231
05/05/2014  20:50:00     -175.187      -92.400       -1.577       95.018       67.709       48.878     9028.441     4584.442     2389.050        2.761        0.800      198.062       55.778        0.079      337.690        9.833      855.237
05/05/2014  20:51:00     -170.021      -77.273        0.012       83.609       64.099       36.752     6990.406     4108.672     1350.721        2.366        0.622      186.757       41.789        0.050      337.724        9.889      855.255
05/05/2014  20:52:00     -231.122      -72.000      -22.401       71.920       85.266       34.441     5172.493     7270.234     1186.154        3.636        0.681      242.077       25.097        0.011      337.706        9.857      855.269
05/05/2014  20:53:00     -108.912      -11.621        6.013       70.074       66.565       40.980     4910.389     4430.895     1679.338        1.152        0.551      109.530       27.947        0.065      337.807       10.031      855.266
05/05/2014  20:54:00      -77.788      -17.969        7.775       70.451       48.321       34.071     4963.344     2334.921     1160.845        0.745        0.423       79.837       31.033        0.151      337.777        9.981      855.262
05/05/2014  20:55:00      -78.917      -43.999        7.929       75.360       51.083       35.894     5679.198     2609.444     1288.354        0.890        0.479       90.354       44.426        0.242      337.727        9.897      855.251
05/05/2014  20:56:00     -148.408      -17.269       -4.667       83.901       49.953       37.669     7039.313     2495.339     1418.923        1.665        0.548      149.409       29.923        0.040      337.736        9.910      855.244
05/05/2014  20:57:00     -149.708      -31.405        7.676       74.932       61.834       30.473     5614.869     3823.433      928.629        1.691        0.518      152.966       33.623        0.048      337.592        9.669      855.238
05/05/2014  20:58:00     -158.612      -44.811       -5.385       50.568       52.246       28.262     2557.096     2729.600      798.759        1.664        0.304      164.820       17.870        0.012      337.572        9.635      855.232
05/05/2014  20:59:00     -160.619      -26.972       -7.158       50.076       55.416       26.496     2507.577     3070.950      702.028        1.643        0.314      162.868       20.629        0.016      337.777        9.980      855.229
05/05/2014  21:00:00     -137.943      -66.069      -12.997       55.288       43.215       28.806     3056.709     1867.510      829.805        1.466        0.288      152.949       26.981        0.031      337.568        9.630      855.225
05/05/2014  21:01:00     -133.992      -53.981        1.157       66.541       60.161       30.203     4427.720     3619.324      912.248        1.491        0.448      144.457       29.182        0.041      337.496        9.509      855.233
05/05/2014  21:02:00      -92.238      -49.495       -3.618       89.015       56.520       32.551     7923.748     3194.549     1059.549        1.157        0.609      104.679       27.928        0.071      337.512        9.534      855.236
05/05/2014  21:03:00     -201.066      -72.712       -5.655       81.026       51.027       38.505     6565.285     2603.739     1482.666        2.820        0.533      213.810       40.666        0.036      337.474        9.468      855.238
05/05/2014  21:04:00     -127.304      -48.192        4.680       70.318       88.155       37.614     4944.688     7771.249     1414.810        1.634        0.707      136.121       41.124        0.091      337.517        9.543      855.243
05/05/2014  21:05:00      -96.069      -13.525        5.912       83.853       54.441       36.461     7031.258     2963.860     1329.372        1.038        0.566       97.017       41.963        0.187      337.541        9.584      855.253
05/05/2014  21:06:00     -137.814      -24.338      -11.768       49.527       53.893       30.487     2452.891     2904.405      929.458        1.300        0.314      139.947       28.754        0.042      337.540        9.582      855.270
05/05/2014  21:07:00     -174.343      -54.247        0.461       63.907       72.551       28.469     4084.063     5263.645      810.456        2.175        0.508      182.588       27.680        0.023      337.550        9.599      855.297
05/05/2014  21:08:00     -188.123      -80.450       -2.704       71.852       45.546       34.335     5162.693     2074.399     1178.876        2.514        0.421      204.603       39.650        0.038      337.417        9.374      855.326
05/05/2014  21:09:00     -177.877     -107.944       -0.893       46.787       41.049       27.369     2189.031     1685.022      749.052        2.396        0.231      208.067       29.034        0.019      337.424        9.385      855.357
05/05/2014  21:10:00     -118.982      -72.490       -0.357       73.176       45.668       25.727     5354.686     2085.556      661.901        1.376        0.405      139.325       33.741        0.059      337.437        9.409      855.389
05/05/2014  21:11:00     -199.594      -58.311      -18.300       61.833       44.000       33.386     3823.316     1935.990     1114.597        2.522        0.344      207.937       21.223        0.010      337.441        9.415      855.417
05/05/2014  21:12:00     -240.626      -47.737      -21.603       64.279       56.687       40.144     4131.839     3213.392     1611.544        3.480        0.448      245.315       36.793        0.022      337.443        9.416      855.453
05/05/2014  21:13:00     -238.500      -97.845       -7.278       70.211       71.085       36.131     4929.649     5053.141     1305.456        3.890        0.564      257.790       29.532        0.013      337.390        9.327      855.471
05/05/2014  21:14:00     -165.320     -105.337       -0.587       72.787       48.241       35.629     5297.946     2327.161     1269.427        2.366        0.445      196.027       37.127        0.036      337.362        9.282      855.494
05/05/2014  21:15:00     -185.828     -103.268       -1.612      112.233       85.786       56.296    12596.140     7359.160     3169.267        3.416        1.156      212.594       53.068        0.062      337.347        9.256      855.483
05/05/2014  21:16:00     -229.472      -87.315       -9.638       63.750       66.732       42.276     4064.061     4453.126     1787.292        3.534        0.515      245.523       39.404        0.026      337.378        9.308      855.473
05/05/2014  21:17:00     -159.601      -83.875        7.600       78.057       82.092       41.432     6092.890     6739.052     1716.625        2.355        0.727      180.299       44.380        0.061      337.400        9.348      855.472
05/05/2014  21:18:00     -168.464     -147.337       -3.160      113.211      106.854       64.473    12816.755    11417.799     4156.711        3.924        1.420      223.804       66.569        0.088      337.439        9.411      855.457
05/05/2014  21:19:00     -304.143     -173.170      -11.273      128.341      107.300       59.195    16471.483    11513.334     3504.035        7.705        1.574      349.987       54.975        0.025      337.421        9.380      855.446
05/05/2014  21:20:00     -213.007      -56.560        0.254      110.924       94.169       54.037    12304.245     8867.833     2920.004        3.633        1.205      220.388       56.880        0.067      337.418        9.376      855.461
05/05/2014  21:21:00     -216.871      -54.224        1.389      117.512       95.808       55.155    13809.050     9179.141     3042.122        3.800        1.302      223.547       52.153        0.054      337.401        9.349      855.484
05/05/2014  21:22:00     -245.253      -70.612        7.554      116.827      113.582       62.370    13648.456    12900.831     3890.004        4.781        1.522      255.216       58.632        0.053      337.385        9.320      855.500
05/05/2014  21:23:00     -226.606      -98.912       -2.537      124.093       79.470       53.795    15399.108     6315.465     2893.915        4.287        1.230      247.253       60.830        0.061      337.364        9.285      855.518
05/05/2014  21:24:00     -171.749      -53.028       -7.073       96.100       80.261       43.682     9235.251     6441.800     1908.110        2.497        0.879      179.749       38.689        0.046      337.368        9.293      855.533
05/05/2014  21:25:00     -174.028      -50.512      -10.800       86.510       64.724       38.771     7483.911     4189.234     1503.197        2.306        0.659      181.210       42.190        0.054      337.371        9.298      855.563
05/05/2014  21:26:00     -223.047      -14.404       -1.295       92.025       70.076       49.526     8468.544     4910.578     2452.835        3.289        0.792      223.512       53.063        0.056      337.399        9.344      855.588
05/05/2014  21:27:00     -269.421      -89.236      -15.174      136.984       66.409       54.815    18764.546     4410.206     3004.720        5.347        1.309      283.814       63.827        0.051      337.304        9.184      855.623
05/05/2014  21:28:00     -119.204      -23.645        7.684      122.744       67.607       44.836    15066.210     4570.688     2010.259        1.823        1.082      121.527       57.234        0.222      337.415        9.373      855.642
05/05/2014  21:29:00     -256.494      -16.253      -11.008      129.418       89.244       57.846    16749.053     7964.425     3346.107        4.711        1.403      257.008       67.275        0.069      337.416        9.373      855.661
05/05/2014  21:30:00     -268.319      -28.791      -20.068       72.492       69.540       39.695     5255.066     4835.807     1575.721        4.244        0.583      269.860       37.142        0.019      337.331        9.228      855.689
05/05/2014  21:31:00     -226.686      -16.720      -12.855      102.649       71.186       53.201    10536.863     5067.384     2830.307        3.513        0.922      227.301       61.721        0.074      337.452        9.432      855.706
05/05/2014  21:32:00     -184.969      -23.819        7.328       95.987      108.639       43.655     9213.495    11802.399     1905.797        2.887        1.146      186.497       42.816        0.053      337.405        9.353      855.721
05/05/2014  21:33:00     -165.958      -20.057        0.511       95.159       85.173       48.318     9055.209     7254.392     2334.652        2.329        0.932      167.165       48.947        0.086      337.457        9.443      855.720
05/05/2014  21:34:00     -104.016      -26.286        6.740       82.580       90.016       46.056     6819.504     8102.919     2121.113        1.430        0.852      107.286       51.456        0.230      337.477        9.477      855.702
05/05/2014  21:35:00     -253.567     -105.904       -1.116      120.634       98.254       55.526    14552.666     9653.824     3083.113        5.140        1.364      274.794       64.135        0.054      337.352        9.264      855.687
05/05/2014  21:36:00     -264.401      -40.405      -11.219       92.570       77.496       57.408     8569.120     6005.594     3295.665        4.476        0.894      267.470       52.271        0.038      337.343        9.249      855.681
05/05/2014  21:37:00     -234.490     -106.618       -3.042      127.887       99.264       49.374    16355.161     9853.393     2437.839        4.750        1.432      257.591       38.450        0.022      337.392        9.332      855.667
05/05/2014  21:38:00      -54.766      -33.897        2.516      144.083       86.799       52.821    20759.771     7534.041     2790.058        1.761        1.554       64.407       57.071        0.785      337.431        9.398      855.639
05/05/2014  21:39:00     -213.872      -44.996       -7.250       89.206       74.446       52.722     7957.713     5542.176     2779.661        3.205        0.814      218.554       49.828        0.052      337.375        9.304      855.616
05/05/2014  21:40:00     -136.087      -85.575       -6.515       73.791       78.699       38.145     5445.084     6193.600     1455.049        1.949        0.655      160.757       35.322        0.048      337.398        9.343      855.588
05/05/2014  21:41:00     -151.020     -142.054       11.696      105.998       76.809       58.589    11235.485     5899.673     3432.705        3.184        1.028      207.332       66.538        0.103      337.394        9.335      855.562
05/05/2014  21:42:00     -133.441      -71.276       -5.961       87.794       73.009       52.069     7707.754     5330.244     2711.129        1.933        0.787      151.284       41.965        0.077      337.358        9.276      855.559
05/05/2014  21:43:00     -179.399     -132.731       -3.856      149.374      107.057       59.169    22312.557    11461.169     3500.915        4.354        1.864      223.162       70.212        0.099      337.375        9.304      855.563
05/05/2014  21:44:00     -254.948      -90.699       -0.905      148.397      108.314       59.973    22021.574    11731.903     3596.760        5.528        1.868      270.601       76.333        0.080      337.327        9.224      855.564
05/05/2014  21:45:00     -218.665     -134.254       -6.004      112.022      117.033       66.199    12548.835    13696.767     4382.304        4.825        1.531      256.591       70.290        0.075      337.358        9.276      855.581
05/05/2014  21:46:00     -147.155      -53.948       19.233      100.180       79.334       49.242    10036.047     6293.891     2424.746        2.184        0.938      156.732       48.271        0.095      337.409        9.361      855.590
05/05/2014  21:47:00     -171.245      -59.450       -3.166       96.466       99.435       49.019     9305.730     9887.314     2402.907        2.723        1.080      181.271       48.632        0.072      337.432        9.399      855.620
05/05/2014  21:48:00     -287.816     -145.343      -17.631      171.204      115.486       67.359    29310.659    13336.904     4537.254        7.572        2.359      322.432       79.688        0.061      337.322        9.215      855.639
05/05/2014  21:49:00     -120.227      -51.507        0.640       65.185       59.667       41.605     4249.057     3560.117     1730.972        1.332        0.477      130.795       42.559        0.106      337.349        9.262      855.669
05/05/2014  21:50:00     -179.970      -30.675      -15.775       57.669       48.504       36.565     3325.703     2352.668     1336.968        2.030        0.351      182.565       25.534        0.020      337.374        9.303      855.686
05/05/2014  21:51:00     -135.790      -30.242       -3.555      115.678       57.971       50.037    13381.417     3360.600     2503.709        1.930        0.962      139.117       61.004        0.192      337.374        9.301      855.697
05/05/2014  21:52:00     -133.808      -54.478       -1.874       93.836       74.790       46.262     8805.217     5593.564     2140.129        1.870        0.827      144.473       46.785        0.105      337.372        9.300      855.700
05/05/2014  21:53:00     -155.107      -84.617       -5.233      114.131       55.197       44.705    13025.823     3046.697     1998.562        2.465        0.904      176.687       48.697        0.076      337.353        9.269      855.686
05/05/2014  21:54:00     -234.610     -106.423       -5.525      167.074       73.841       52.504    27913.591     5452.529     2756.654        5.125        1.806      257.620       59.816        0.054      337.322        9.215      855.677
05/05/2014  21:55:00     -262.534     -127.816       -7.329      104.692       76.000       48.874    10960.366     5775.952     2388.665        5.222        0.956      291.995       51.927        0.032      337.286        9.154      855.673
05/05/2014  21:56:00     -204.831     -135.011       -0.419       73.758       66.894       43.964     5440.222     4474.842     1932.877        3.601        0.592      245.324       44.477        0.033      337.299        9.175      855.668
05/05/2014  21:57:00     -189.401      -96.682       -3.531      114.260       79.408       50.449    13055.368     6305.577     2545.145        3.356        1.095      212.650       47.424        0.050      337.290        9.161      855.658
05/05/2014  21:58:00     -104.460       -3.354        4.265      110.634       72.119       51.680    12239.867     5201.212     2670.856        1.552        1.006      104.514       51.207        0.240      337.333        9.235      855.662
05/05/2014  21:59:00     -121.752      -10.962       11.826      107.519       68.822       46.866    11560.367     4736.490     2196.453        1.678        0.925      122.245       53.603        0.192      337.335        9.238      855.677
05/05/2014  22:00:00     -132.123      -66.920       -2.884       84.062       61.624       38.808     7066.466     3797.466     1506.094        1.715        0.619      148.104       41.143        0.077      337.358        9.277      855.711
05/05/2014  22:01:00     -229.558      -55.211      -17.212       70.752       70.543       32.434     5005.862     4976.328     1051.959        3.354        0.552      236.104       29.284        0.015      337.287        9.157      855.744
05/05/2014  22:02:00     -207.566      -68.784       -6.123       91.691       69.010       42.937     8407.292     4762.349     1843.618        3.143        0.751      218.666       37.774        0.030      337.186        8.988      855.762
05/05/2014  22:03:00     -159.475      -74.943      -15.331       83.209       57.481       38.602     6923.734     3304.022     1490.092        2.150        0.586      176.207       29.092        0.027      337.232        9.065      855.781
05/05/2014  22:04:00     -261.560      -61.209      -27.000       86.576       84.633       43.316     7495.399     7162.678     1876.295        4.471        0.827      268.626       39.207        0.021      337.212        9.030      855.790
05/05/2014  22:05:00     -308.385      -30.999      -17.631      101.452       91.400       48.388    10292.500     8353.932     2341.379        5.868        1.049      309.939       48.451        0.024      337.219        9.042      855.795
05/05/2014  22:06:00     -230.565      -40.156      -26.260       83.104       76.368       47.178     6906.320     5832.048     2225.754        3.521        0.748      234.036       37.028        0.025      337.218        9.041      855.802
05/05/2014  22:07:00     -232.243      -63.683      -12.337      111.263       61.385       46.276    12379.553     3768.134     2141.438        3.821        0.914      240.816       52.266        0.047      337.241        9.080      855.811
05/05/2014  22:08:00     -231.614      -52.340       -5.158       91.797       83.159       53.485     8426.778     6915.497     2860.656        3.730        0.910      237.454       55.341        0.054      337.225        9.052      855.809
05/05/2014  22:09:00     -219.603      -48.392      -21.600       76.794      103.262       44.914     5897.320    10663.027     2017.306        3.480        0.929      224.871       35.190        0.024      337.256        9.105      855.806
05/05/2014  22:10:00     -169.209      -37.532      -13.306       68.835       71.234       45.700     4738.214     5074.305     2088.506        2.106        0.595      173.322       21.047        0.015      337.204        9.020      855.791
05/05/2014  22:11:00     -132.058        2.225      -24.004       48.371       52.806       30.932     2339.714     2788.481      956.765        1.205        0.304      132.076       18.825        0.020      337.243        9.085      855.786
05/05/2014  22:12:00      -95.766       14.768       -9.346       50.907       50.700       28.646     2591.560     2570.520      820.590        0.773        0.299       96.898       16.165        0.028      337.219        9.047      855.792
05/05/2014  22:13:00      -66.501       11.918      -10.297       45.399       41.192       29.640     2061.075     1696.815      878.546        0.465        0.232       67.561       16.828        0.062      337.225        9.056      855.789
05/05/2014  22:14:00     -143.357       35.885      -17.823       45.679       54.644       36.480     2086.589     2985.987     1330.767        1.428        0.320      147.780       17.697        0.014      337.271        9.133      855.797
05/05/2014  22:15:00     -166.796       44.087      -30.688       67.423       63.075       39.211     4545.892     3978.467     1537.473        2.038        0.503      172.524       39.829        0.053      337.143        8.916      855.803
05/05/2014  22:16:00     -126.166       28.263      -12.484       55.228       64.089       29.010     3050.165     4107.344      841.576        1.243        0.400      129.293       17.333        0.018      337.229        9.060      855.812
05/05/2014  22:17:00     -151.041       24.626      -22.656       38.664       58.553       32.615     1494.922     3428.462     1063.731        1.496        0.299      153.035       27.575        0.032      337.191        8.998      855.816
05/05/2014  22:18:00      -58.451       67.220      -22.619       44.964       56.668       31.797     2021.737     3211.212     1011.056        0.734        0.312       89.079       29.190        0.107      337.283        9.153      855.825
05/05/2014  22:19:00      -39.470       43.402       -3.701       40.694       53.095       29.627     1655.996     2819.097      877.745        0.440        0.268       58.666       29.966        0.261      337.327        9.226      855.822
05/05/2014  22:20:00      -92.872       82.393      -18.429       78.498       62.945       36.472     6161.945     3962.026     1330.199        1.360        0.573      124.153       43.835        0.125      337.324        9.221      855.815
05/05/2014  22:21:00      -73.254      111.026      -15.454       57.418       52.885       34.484     3296.826     2796.818     1189.140        1.261        0.364      133.014       32.510        0.060      337.281        9.150      855.815
05/05/2014  22:22:00      -82.525       80.261      -19.222       58.475       71.751       26.787     3419.290     5148.190      717.517        1.145        0.464      115.118       31.197        0.073      337.270        9.130      855.801
05/05/2014  22:23:00      -60.439       76.083       -5.642       38.910       68.513       27.689     1513.991     4694.011      766.691        0.822        0.349       97.167       26.185        0.073      337.354        9.272      855.798
05/05/2014  22:24:00     -101.712       87.811      -20.006       59.895       61.553       28.017     3587.387     3788.758      784.948        1.331        0.408      134.373       13.714        0.010      337.299        9.179      855.776
05/05/2014  22:25:00      -93.009      118.880       -1.620       61.748       78.602       48.626     3812.873     6178.318     2364.483        1.757        0.618      150.941       34.209        0.051      337.210        9.028      855.756
05/05/2014  22:26:00      -61.305       54.888       -1.862       40.359       44.530       31.016     1628.830     1982.929      962.011        0.567        0.229       82.286       21.965        0.071      337.277        9.143      855.725
05/05/2014  22:27:00      -63.553       -0.004        1.283       49.751       43.476       33.072     2475.124     1890.144     1093.764        0.475        0.273       63.553       26.043        0.168      337.312        9.200      855.687
05/05/2014  22:28:00     -117.158        4.852       -6.048       47.355       55.003       24.476     2242.524     3025.381      599.094        0.983        0.293      117.258       18.072        0.024      337.317        9.210      855.654
05/05/2014  22:29:00     -115.123       50.415      -14.689       84.262       64.427       42.684     7100.013     4150.839     1821.882        1.454        0.654      125.678       45.610        0.132      337.118        8.875      855.631
05/05/2014  22:30:00     -192.182      -32.788      -39.499       78.266      106.006       54.593     6125.634    11237.184     2980.386        2.995        1.017      194.959       49.026        0.063      337.098        8.840      855.600
05/05/2014  22:31:00      -95.211      -63.602       10.157       85.679       88.159       57.471     7340.867     7772.039     3302.890        1.581        0.921      114.501       46.914        0.168      337.023        8.716      855.565
05/05/2014  22:32:00     -119.133      -39.819      -27.686       75.009       53.053       37.583     5626.331     2814.575     1412.502        1.320        0.493      125.611       36.733        0.086      337.020        8.711      855.550
05/05/2014  22:33:00      -84.190       23.142        0.749       71.315       87.882       35.983     5085.796     7723.173     1294.793        1.086        0.705       87.312       32.357        0.137      337.125        8.885      855.537
05/05/2014  22:34:00     -176.532       81.095      -21.465       76.311       57.299       45.400     5823.367     3283.125     2061.124        2.468        0.558      194.268       37.447        0.037      337.006        8.685      855.530
05/05/2014  22:35:00     -146.061      126.356      -21.676       84.290      114.864       54.429     7104.861    13193.834     2962.501        3.051        1.163      193.131       47.671        0.061      336.937        8.570      855.522
05/05/2014  22:36:00      -93.858       51.523       -8.144       56.179       49.382       36.063     3156.106     2438.590     1300.533        0.921        0.345      107.069       30.075        0.079      337.078        8.808      855.502
05/05/2014  22:37:00     -137.605       53.190       -5.316       65.249       65.559       47.848     4257.460     4297.965     2289.390        1.632        0.542      147.527       38.130        0.067      337.068        8.792      855.492
05/05/2014  22:38:00     -147.430       35.751       -9.095       91.417       71.984       49.075     8357.143     5181.757     2408.311        1.952        0.797      151.703       53.716        0.125      336.968        8.623      855.486
05/05/2014  22:39:00     -145.145       90.269      -23.136       93.066       59.611       42.388     8661.326     3553.431     1796.706        2.188        0.701      170.926       33.295        0.038      336.917        8.539      855.471
05/05/2014  22:40:00      -80.640       56.945       -7.849       45.720       66.362       35.398     2090.328     4403.914     1253.014        0.878        0.387       98.720       24.682        0.063      337.021        8.713      855.446
05/05/2014  22:41:00      -70.426      102.812       -4.797       43.028       70.360       34.626     1851.370     4950.526     1198.988        1.178        0.400      124.620       29.044        0.054      336.958        8.610      855.423
05/05/2014  22:42:00     -168.075      198.841      -34.686       70.424      134.586       41.501     4959.490    18113.370     1722.324        4.689        1.240      260.360       36.425        0.020      336.828        8.389      855.413
05/05/2014  22:43:00     -133.960      165.265      -16.601       92.863      131.514       56.486     8623.516    17295.920     3190.639        3.732        1.456      212.739       60.867        0.082      336.826        8.383      855.403
05/05/2014  22:44:00     -144.811      164.082      -23.547       80.225       76.605       52.478     6436.067     5868.394     2753.966        3.175        0.753      218.845       42.301        0.037      336.841        8.409      855.403
05/05/2014  22:45:00     -152.679      240.232      -35.874       69.143      119.998       41.176     4780.798    14399.421     1695.442        5.159        1.044      284.645       26.324        0.009      336.738        8.238      855.400
05/05/2014  22:46:00     -109.462      294.594      -37.112       72.710      106.655       49.907     5286.794    11375.366     2490.716        5.964        0.958      314.273       42.830        0.019      336.679        8.139      855.401
05/05/2014  22:47:00     -116.320      244.027      -35.410       83.766       73.377       54.910     7016.728     5384.166     3015.089        4.487        0.771      270.333       45.524        0.028      336.691        8.160      855.398
05/05/2014  22:48:00      -38.209      230.015      -30.578       66.006      105.757       40.000     4356.738    11184.517     1600.007        3.622        0.857      233.167       54.432        0.054      336.630        8.060      855.389
05/05/2014  22:49:00     -112.710      334.243      -45.113      119.588       96.412       51.209    14301.199     9295.333     2622.344        7.633        1.311      352.735       36.943        0.011      336.561        7.942      855.401
05/05/2014  22:50:00     -133.667      315.474      -38.157       89.966      105.003       62.576     8093.815    11025.632     3915.781        7.094        1.152      342.624       59.946        0.031      336.557        7.935      855.427
05/05/2014  22:51:00      -94.499      261.176      -37.579       79.448       80.071       47.297     6312.049     6411.397     2236.967        4.675        0.748      277.746       48.467        0.030      336.532        7.894      855.436
05/05/2014  22:52:00     -160.312      261.274      -37.657       95.509      105.496       52.191     9121.921    11129.370     2723.880        5.917        1.149      306.535       49.805        0.026      336.573        7.961      855.447
05/05/2014  22:53:00      -99.053      259.526      -44.192       79.022      110.710       45.623     6244.516    12256.640     2081.416        4.985        1.029      277.786       54.091        0.038      336.477        7.802      855.464
05/05/2014  22:54:00     -100.791      272.241      -43.849       80.926       88.227       43.151     6549.005     7784.077     1862.049        5.119        0.810      290.299       44.704        0.024      336.473        7.795      855.454
05/05/2014  22:55:00      -79.482      171.989      -28.714       69.518       77.561       38.289     4832.760     6015.690     1466.076        2.452        0.616      189.466       37.868        0.040      336.476        7.802      855.443
05/05/2014  22:56:00      -58.450      133.641       -6.423       61.516       57.883       51.162     3784.279     3350.435     2617.583        1.553        0.488      145.864       34.695        0.057      336.457        7.770      855.419
05/05/2014  22:57:00      -96.233      176.276      -25.528       76.343       99.341       44.821     5828.218     9868.554     2008.885        2.934        0.885      200.834       39.672        0.039      336.464        7.779      855.418
05/05/2014  22:58:00     -127.221      276.722      -30.865       90.609      149.016       72.223     8210.078    22205.860     5216.193        6.467        1.782      304.566       73.691        0.059      336.323        7.545      855.411
05/05/2014  22:59:00     -138.629      274.303      -33.523       94.634      153.530       60.412     8955.506    23571.610     3649.582        6.587        1.809      307.343       57.955        0.036      336.325        7.548      855.400
05/05/2014  23:00:00     -175.602      109.889      -23.201       85.523      102.607       59.770     7314.211    10528.194     3572.488        3.243        1.071      207.151       57.501        0.077      336.470        7.790      855.411
05/05/2014  23:01:00     -162.674      260.447      -38.773      164.368      134.468       62.541    27016.751    18081.523     3911.341        7.239        2.450      307.076       79.704        0.067      336.414        7.696      855.393
05/05/2014  23:02:00      -95.815      145.333       -8.074       67.736       99.781       48.601     4588.157     9956.177     2362.017        2.363        0.845      174.075       47.189        0.073      336.528        7.890      855.404
05/05/2014  23:03:00     -117.115      214.814      -17.149       73.585      109.236       47.808     5414.776    11932.523     2285.585        3.989        0.982      244.665       32.081        0.017      336.524        7.880      855.425
05/05/2014  23:04:00     -138.283      313.819      -47.910       75.719       98.229       54.092     5733.400     9648.857     2925.962        6.910        0.915      342.936       52.358        0.023      336.433        7.728      855.441
05/05/2014  23:05:00     -189.261      289.858      -51.543      149.609      127.988       79.311    22382.839    16380.948     6290.274        8.377        2.253      346.176       79.206        0.052      336.403        7.677      855.467
05/05/2014  23:06:00      -86.087      254.389      -38.229       74.668       98.139       52.416     5575.321     9631.246     2747.471        4.577        0.898      268.561       48.723        0.033      336.344        7.578      855.501
05/05/2014  23:07:00     -140.583      294.144      -43.406       78.561       95.893       51.803     6171.776     9195.528     2683.525        6.311        0.903      326.012       36.605        0.013      336.226        7.381      855.510
05/05/2014  23:08:00     -158.000      167.311      -23.260       87.110      119.768       58.256     7588.152    14344.271     3393.735        3.941        1.266      230.124       55.705        0.059      336.279        7.470      855.518
05/05/2014  23:09:00      -99.331      305.285      -40.139       65.060       93.439       49.897     4232.817     8730.913     2489.665        6.006        0.773      321.038       42.300        0.017      336.180        7.304      855.506
05/05/2014  23:10:00      -97.493      208.307      -37.257       53.394       63.252       33.915     2850.967     4000.764     1150.223        3.114        0.400      229.993       32.021        0.019      336.191        7.325      855.498
05/05/2014  23:11:00     -145.135      176.765      -30.057      108.012       74.309       56.871    11666.659     5521.765     3234.358        3.681        1.021      228.714       53.331        0.054      336.281        7.474      855.474
05/05/2014  23:12:00     -114.231      213.365      -37.769       80.472      114.779       59.419     6475.705    13174.130     3530.613        4.159        1.159      242.019       53.446        0.049      336.199        7.338      855.454
05/05/2014  23:13:00     -150.380      142.112      -24.309      106.022      142.127       62.223    11240.623    20200.205     3871.670        3.935        1.766      206.905       66.919        0.105      336.250        7.423      855.417
05/05/2014  23:14:00     -172.417      195.371      -37.666       59.717       96.578       52.702     3566.088     9327.390     2777.497        4.249        0.784      260.572       50.433        0.037      336.147        7.251      855.414
05/05/2014  23:15:00     -160.636      151.634      -33.468      105.349       83.928       57.065    11098.391     7043.975     3256.465        3.565        1.070      220.900       65.126        0.087      336.095        7.164      855.386
05/05/2014  23:16:00     -196.874      205.089      -51.625       77.410      100.421       57.055     5992.251    10084.384     3255.227        5.140        0.967      284.290       49.455        0.030      336.090        7.155      855.367
05/05/2014  23:17:00     -169.645      303.174      -44.782      107.549      126.235       64.881    11566.884    15935.184     4209.501        7.720        1.586      347.410       73.983        0.045      336.059        7.103      855.336
05/05/2014  23:18:00     -188.416      259.112      -33.010       90.213      115.464       62.556     8138.309    13331.827     3913.233        6.455        1.269      320.375       46.559        0.021      336.087        7.149      855.343
05/05/2014  23:19:00     -184.857      227.112      -28.616      125.148      123.712       67.240    15661.938    15304.639     4521.220        6.102        1.774      292.834       77.530        0.070      336.062        7.109      855.352
05/05/2014  23:20:00     -141.673      206.649      -44.948       75.706       98.230       45.188     5731.333     9649.122     2041.934        4.111        0.871      250.550       39.579        0.025      336.061        7.108      855.345
05/05/2014  23:21:00     -170.752      148.281      -35.704       86.060       93.774       43.196     7406.238     8793.602     1865.878        3.524        0.903      226.150       41.301        0.033      336.058        7.102      855.325
05/05/2014  23:22:00     -170.016      172.150      -29.268       98.015      108.189       51.043     9606.942    11704.832     2605.340        4.165        1.196      241.953       55.194        0.052      336.048        7.086      855.324
05/05/2014  23:23:00     -191.219      200.044      -42.392       99.209       97.500       51.937     9842.364     9506.199     2697.491        5.021        1.102      276.735       58.951        0.045      336.027        7.049      855.308
05/05/2014  23:24:00      -88.113      150.607      -16.483      102.818       61.903       56.094    10571.463     3832.018     3146.487        2.413        0.877      174.489       49.315        0.080      336.037        7.068      855.293
05/05/2014  23:25:00     -129.022      155.888      -14.731       65.860       98.096       47.096     4337.601     9622.911     2218.014        2.867        0.809      202.356       42.225        0.044      335.991        6.992      855.257
05/05/2014  23:26:00     -261.585      108.220      -39.252      134.388       79.769       54.159    18060.183     6363.028     2933.156        5.451        1.368      283.087       56.965        0.040      336.038        7.070      855.261
05/05/2014  23:27:00     -238.624       92.564      -32.051      111.453       75.591       56.470    12421.815     5714.073     3188.876        4.393        1.066      255.948       49.730        0.038      335.990        6.990      855.246
05/05/2014  23:28:00      -75.627       49.269        2.892      126.777       81.657       50.150    16072.503     6667.905     2515.072        1.670        1.263       90.260       60.608        0.451      335.940        6.907      855.219
05/05/2014  23:29:00     -190.957        7.423      -11.498      114.616      163.406       62.591    13136.755    26701.401     3917.655        4.020        2.188      191.102       60.784        0.101      335.983        6.978      855.207
05/05/2014  23:30:00     -164.077       75.011       -6.845       90.978       78.060       58.926     8277.042     6093.353     3472.278        2.522        0.892      180.410       56.092        0.097      335.978        6.969      855.255
05/05/2014  23:31:00     -214.906       18.641      -25.651       69.660       69.044       32.959     4852.568     4767.065     1086.300        2.895        0.535      215.713       29.361        0.019      336.034        7.062      855.287
05/05/2014  23:32:00     -238.094      -61.655      -24.796       79.629       95.552       46.511     6340.724     9130.131     2163.256        3.937        0.882      245.948       37.163        0.023      335.984        6.977      855.336
05/05/2014  23:33:00     -209.591      -37.532       -5.871      112.993       58.256       41.297    12767.347     3393.812     1705.474        3.162        0.893      212.925       48.395        0.052      335.897        6.834      855.363
05/05/2014  23:34:00     -268.043      -34.425      -20.204       90.123       67.285       38.771     8122.242     4527.330     1503.208        4.379        0.708      270.244       40.414        0.022      335.881        6.806      855.394
05/05/2014  23:35:00      -94.435       -8.555        0.778       84.275       61.856       32.720     7102.295     3826.118     1070.580        1.049        0.600       94.822       41.884        0.195      335.880        6.807      855.432
05/05/2014  23:36:00      -12.269      195.009      -25.652       53.692       98.377       30.865     2882.884     9677.958      952.631        2.617        0.676      195.395       41.051        0.044      336.000        7.007      855.506
05/05/2014  23:37:00      -93.586      305.308      -33.092      105.516      104.077       55.714    11133.714    10832.069     3104.060        6.406        1.253      319.330       53.140        0.028      336.006        7.015      855.535
05/05/2014  23:38:00      -71.251      390.105      -53.047       80.846      112.706       46.777     6536.059    12702.702     2188.127        9.075        1.071      396.558       52.474        0.018      335.933        6.893      855.545
05/05/2014  23:39:00      -10.473      291.047      -35.627       67.537      122.462       44.223     4561.222    14996.970     1955.660        5.380        1.076      291.235       54.775        0.035      335.957        6.933      855.542
05/05/2014  23:40:00      -10.537      285.381      -35.656       93.385      114.081       53.746     8720.716    13014.400     2888.621        5.372        1.231      285.576       55.184        0.037      335.929        6.887      855.562
05/05/2014  23:41:00      -50.510      293.420      -34.949       99.355       99.856       51.844     9871.495     9971.237     2687.797        5.619        1.127      297.735       43.837        0.022      335.941        6.907      855.600
05/05/2014  23:42:00      -39.112      234.223      -21.813       73.462      125.008       55.856     5396.651    15626.922     3119.923        4.050        1.207      237.466       67.465        0.081      335.989        6.986      855.609
05/05/2014  23:43:00       -9.502      500.373      -69.444       77.739       80.508       40.040     6043.376     6481.582     1603.228       13.470        0.706      500.464       35.310        0.005      335.910        6.856      855.599
05/05/2014  23:44:00      -68.907      483.900      -69.810      107.964       92.358       47.992    11656.235     8529.967     2303.270       13.313        1.124      488.782       40.714        0.007      335.910        6.855      855.552
05/05/2014  23:45:00      -40.812      374.483      -47.764      104.432      113.873       63.251    10906.053    12967.096     4000.745        8.602        1.394      376.700       55.268        0.022      335.958        6.935      855.537
05/05/2014  23:46:00      -54.204      296.662      -38.475      107.956      150.846       64.658    11654.411    22754.409     4180.710        6.550        1.929      301.573       78.402        0.068      335.968        6.950      855.516
05/05/2014  23:47:00      -26.264      389.032      -50.429       87.246      118.760       50.179     7611.783    14104.048     2517.979        8.940        1.212      389.917       35.726        0.008      335.939        6.902      855.496
05/05/2014  23:48:00     -101.704      330.119      -21.107       80.316      155.255       61.425     6450.738    24104.139     3773.006        7.704        1.716      345.430       65.437        0.036      335.944        6.913      855.485
05/05/2014  23:49:00      -46.968      287.726      -36.619       80.561       97.788       43.841     6490.011     9562.445     1922.060        5.215        0.899      291.534       43.463        0.022      335.963        6.943      855.470
05/05/2014  23:50:00      -11.831      220.062      -24.626       66.423      101.304       39.149     4411.974    10262.548     1532.680        3.269        0.810      220.380       36.443        0.027      335.975        6.964      855.441
05/05/2014  23:51:00     -145.688      137.371      -34.299       76.346      128.036       55.180     5828.772    16393.286     3044.883        3.326        1.263      200.240       55.123        0.076      336.024        7.045      855.409
05/05/2014  23:52:00     -132.875      247.292      -28.282       68.762       82.644       44.746     4728.185     6830.100     2002.187        4.658        0.678      280.730       42.795        0.023      335.974        6.960      855.421
05/05/2014  23:53:00     -122.092      214.391      -27.275       72.709      100.878       56.702     5286.667    10176.282     3215.114        4.014        0.934      246.719       49.518        0.040      335.980        6.972      855.409
05/05/2014  23:54:00     -122.464      330.177      -46.824       69.191       99.195       51.805     4787.377     9839.640     2683.769        7.176        0.866      352.157       48.486        0.019      335.991        6.989      855.386
05/05/2014  23:55:00      -46.882      348.803      -50.850       47.742      106.080       41.806     2279.339    11252.905     1747.749        7.086        0.764      351.939       47.904        0.019      335.971        6.957      855.366
05/05/2014  23:56:00      -75.073      275.957      -28.597       58.980       64.925       36.379     3478.678     4215.246     1323.428        4.581        0.451      285.986       31.587        0.012      335.980        6.971      855.359
05/05/2014  23:57:00      -57.314      157.574      -24.247       42.675       70.480       31.804     1821.129     4967.498     1011.525        1.825        0.390      167.673       32.730        0.038      336.061        7.110      855.340
05/05/2014  23:58:00      -25.934      206.792      -14.847       51.039       78.238       36.779     2605.010     6121.155     1352.678        2.687        0.504      208.412       40.813        0.038      336.012        7.026      855.321
05/05/2014  23:59:00      -53.562      179.629      -16.168       69.043       91.111       37.903     4766.892     8301.282     1436.667        2.495        0.725      187.445       32.223        0.030      336.056        7.098      855.315
